GFSSE_con_sbcape_000.txt.gz
CAPE
931 570 842 829 1304 1651 1908 2236 2524 2436 2321 2143 1953 1952 2107 2097 1769 1523 1577 1519 1347 993 1097 1803 1907 1542 1004 1032 1219 1928 2003 1965 1800 1833 1695 1256 1069 1159 961 1056 1480 958 1627
1071 555 779 881 1164 1604 1980 2225 2580 2821 2547 2481 2306 2097 1721 1943 1660 986 399 329 626 93 58 767 1152 1403 1598 1770 1740 1763 1772 1847 1828 1803 1715 1371 1087 859 1033 1157 737 890 1626
1099 937 293 984 928 1188 1621 2093 2306 2462 2216 2563 2484 2096 1894 1098 1124 839 484 57 0 7 3 529 860 1287 1413 1548 1756 1732 1861 1895 1811 1813 1774 1045 886 1098 860 889 803 1503 1543
1209 954 610 1344 1274 1013 1185 1470 2039 2284 2286 2296 2400 2046 1650 1075 920 975 432 123 6 86 108 402 733 827 1498 992 1336 1643 1591 1713 1701 1770 1232 674 973 1311 710 672 730 1107 1711
1340 1263 1054 1497 1428 1230 1335 1598 1815 1925 2139 2267 2248 2050 1786 1509 809 719 706 277 127 285 1018 806 121 618 787 734 911 1338 1111 1509 1604 1431 802 259 572 1162 951 495 736 782 978
1624 1511 1343 1635 1555 1355 1065 1409 1836 1797 1891 2193 2237 2276 2155 1043 625 300 225 176 418 747 688 55 8 50 643 671 692 888 1124 1154 1284 847 651 204 189 1544 1227 1232 1035 662 777
1746 1865 1545 1673 1769 1656 1430 1445 1617 1776 1709 1747 2049 2044 1853 1591 1522 883 737 757 875 130 0 0 0 0 370 755 955 1123 1249 1094 1168 818 595 182 635 1912 1333 1228 1417 1333 1086
1888 2052 1916 1709 1721 1490 1340 1262 1199 1307 1387 1589 1741 1712 1705 1510 1383 963 982 1052 783 502 288 93 318 587 755 675 726 825 934 896 915 765 459 130 1244 1995 1483 1564 1625 1211 1093
1410 1729 2160 1992 1704 1349 1009 748 801 930 1049 1320 1467 1416 1358 1263 674 457 470 308 148 124 200 427 482 604 669 727 681 590 472 471 480 406 480 161 1626 1979 1530 1354 1425 1298 1075
1622 1588 1738 1890 2169 1532 713 550 605 873 976 1100 1301 1258 1431 898 351 128 107 51 10 68 0 0 0 78 302 355 370 305 167 192 239 281 288 430 1378 1512 1335 1309 1398 1240 937
1007 1416 2101 2178 2218 1818 1594 832 990 1045 1106 982 669 805 696 1195 574 129 2 0 0 0 0 0 0 0 0 24 83 137 56 48 18 116 173 166 955 705 850 1430 1214 1233 1136
499 372 687 1340 1809 1804 1242 622 1922 1663 1313 1246 1275 963 891 677 231 179 67 15 0 0 0 0 0 0 0 0 0 4 0 0 0 34 279 292 825 449 455 1110 1314 1114 1115
143 94 72 758 1375 1835 1635 1559 1617 1417 1319 1107 953 767 406 226 149 148 138 154 55 0 0 0 0 0 0 0 0 0 0 0 0 0 0 248 645 447 438 881 1408 1205 1065
7 3 6 483 853 926 798 707 863 556 470 348 313 381 417 270 116 82 35 0 0 2 1 2 0 0 0 0 0 0 0 5 1 0 17 4 186 555 305 464 855 1106 1024
0 0 0 74 417 701 443 332 119 17 0 0 0 0 48 64 80 32 0 0 1 2 0 0 0 0 0 0 0 0 0 0 11 1 0 2 0 0 51 234 569 736 898
0 0 0 0 44 38 254 107 1 0 0 0 0 0 0 1 0 0 0 0 0 0 0 1 16 19 4 0 0 1 1 0 0 5 11 0 0 0 0 0 166 649 960
0 0 0 0 0 0 0 0 0 0 0 0 0 0 0 0 0 0 0 0 0 0 0 0 0 0 0 9 10 32 33 0 10 61 63 20 0 0 0 0 0 32 436
0 0 0 0 0 0 0 0 0 0 0 0 0 0 0 0 0 0 0 0 0 0 0 0 0 0 0 0 0 0 0 0 39 60 91 79 14 0 0 0 0 0 1
0 0 0 0 0 0 0 0 0 0 0 0 0 0 0 0 0 0 0 0 0 0 0 0 0 0 0 0 0 0 0 0 0 7 74 86 70 15 9 25 0 0 0
0 0 0 0 0 0 0 0 0 0 0 0 0 0 0 0 0 0 0 0 0 0 0 0 0 0 0 0 0 0 0 0 0 1 35 116 105 88 43 18 6 0 0
0 0 0 0 0 0 0 0 0 0 0 0 0 0 0 0 0 0 0 0 0 0 0 0 0 0 0 0 0 0 0 0 0 0 0 162 215 156 66 34 19 5 0
0 0 0 0 0 0 0 0 0 0 0 0 0 0 0 0 0 0 0 0 0 0 0 0 2 0 0 0 0 0 0 0 0 0 0 0 55 110 121 106 27 19 12
0 0 0 0 0 0 0 0 0 0 0 0 0 0 0 0 0 0 0 0 0 0 0 0 0 1 2 4 0 0 0 0 0 0 0 0 0 0 20 20 79 27 9
0 0 0 0 0 0 0 0 0 0 0 0 0 0 0 10 12 18 26 40 38 23 3 4 6 34 23 6 11 12 3 2 2 0 0 0 0 0 0 0 5 23 12
0 0 0 0 0 0 0 0 0 0 0 0 0 0 0 0 0 0 0 5 29 32 30 17 12 10 13 24 22 31 21 10 2 6 2 0 0 0 0 0 0 0 0
0 0 0 0 0 0 0 0 0 0 0 0 0 0 0 0 0 0 0 0 0 0 0 0 0 0 0 0 0 5 16 17 10 4 1 0 0 0 0 0 0 0 0

GFSSE_con_sbcape_003.txt.gz
CAPE
409 507 744 1071 1538 1698 1798 2000 2057 2347 2437 2161 1934 1838 1744 1865 1441 963 610 406 246 346 388 279 113 892 1369 1262 1361 1816 1807 1707 1741 1875 1672 1260 1255 1046 1125 1487 1236 1028 1696
457 477 732 1001 1332 1673 1879 2023 2136 1977 2578 2513 2304 1971 1759 1505 1026 768 571 564 236 27 77 71 69 885 969 1374 1183 1359 1525 1555 1439 1494 1639 1520 1225 1067 1122 935 414 1028 1699
592 410 756 1054 1192 1364 1736 2103 2312 2284 2479 2568 2533 2274 2024 1305 1031 899 601 362 137 30 4 61 58 596 776 1103 874 1176 1198 1435 1582 1500 1487 881 942 979 971 575 1109 1550 1439
666 729 1011 1243 1326 1476 1649 1920 2083 2154 2179 2282 2379 1989 1703 1431 1288 909 356 271 99 72 11 81 566 304 613 516 724 863 1252 1248 1424 1529 1276 1128 954 1365 899 635 1087 1604 1553
781 1012 1329 1338 1243 1271 1770 1918 1974 2154 2153 2156 2207 2179 1624 1477 1476 1411 555 294 141 142 199 500 156 241 93 31 477 702 741 981 1186 1398 829 391 499 1191 912 615 945 1397 1423
958 1163 1360 1437 1473 1478 1800 1902 1913 1885 2089 2064 2219 2351 1701 1507 1207 1064 841 505 306 329 607 866 342 96 87 103 493 713 476 627 1141 1145 727 409 354 1446 1062 1087 800 779 845
1254 1265 1387 1460 1474 1615 1509 1432 1591 1677 1730 2081 2179 2018 2015 1447 929 490 294 296 416 718 426 220 103 4 9 154 210 388 871 884 1145 807 519 235 497 2041 1440 1006 1224 856 789
1583 1321 1478 1539 1367 1285 1273 1159 1077 1236 1429 1635 1865 1830 1692 1671 1507 1293 1371 1017 1078 582 144 5 4 0 157 132 167 464 892 1170 1298 1008 609 142 138 2023 1639 1678 1389 1263 979
1833 1844 1394 1449 1304 987 761 739 809 868 1206 1522 1549 1320 1135 718 702 673 513 405 439 432 672 492 403 404 610 532 559 508 591 836 773 580 261 74 678 1970 1720 1662 1764 1416 1172
1068 1229 1870 1482 1122 610 341 449 570 738 919 1343 1477 1476 604 372 333 279 252 209 338 102 32 27 139 155 215 251 242 171 169 121 145 69 10 120 1233 1995 1356 1490 1480 1485 1254
953 1526 1270 1278 1449 801 521 520 702 868 918 945 1011 1113 554 149 73 0 60 94 22 135 10 0 0 53 52 0 5 1 6 0 0 7 2 48 651 962 1683 1704 1513 1440 1168
56 325 475 677 935 1091 1049 758 753 1027 740 634 479 394 378 75 0 0 9 21 0 0 0 0 0 0 0 0 0 0 0 0 0 0 0 93 573 450 1019 1597 1528 1387 1180
0 0 12 551 683 564 521 878 1009 667 665 400 262 81 0 0 0 3 0 2 0 0 0 0 0 0 0 0 0 0 0 0 7 7 0 40 646 760 731 1057 1384 1569 1301
0 0 0 83 261 199 0 10 0 356 7 72 43 88 1 0 0 0 0 0 0 0 0 0 0 0 0 0 0 0 0 0 0 0 2 29 131 634 302 761 1045 1313 1349
0 0 0 0 45 141 0 0 0 0 0 0 0 0 0 0 0 0 0 0 0 0 0 0 0 0 0 0 0 0 0 0 0 0 0 0 0 16 183 315 418 694 1024
0 0 0 0 0 0 0 0 0 0 0 0 0 0 0 0 0 0 0 0 0 0 0 0 0 0 0 0 0 0 0 0 0 0 0 0 1 26 36 37 176 372 739
0 0 0 0 0 0 0 0 0 0 0 0 0 0 0 0 0 0 0 0 0 0 0 0 0 0 0 0 0 0 0 0 0 0 0 0 0 6 1 17 44 41 167
0 0 0 0 0 0 0 0 0 0 0 0 0 0 0 0 0 0 0 0 0 0 0 0 0 0 0 0 0 0 0 0 0 0 11 15 9 18 1 13 5 9 15
0 0 0 0 0 0 0 0 0 0 0 0 0 0 0 0 0 0 0 0 0 0 0 0 0 0 0 0 0 0 0 0 0 0 0 11 11 37 4 14 33 33 24
0 0 0 0 0 0 0 0 0 0 0 0 0 0 0 0 0 0 0 0 0 0 0 0 0 0 0 0 0 0 0 0 0 0 0 0 32 39 40 18 31 28 14
0 0 0 0 0 0 0 0 0 0 0 0 0 0 0 0 0 0 0 0 0 0 0 0 0 0 0 0 0 0 0 0 0 0 0 0 15 146 217 220 99 17 0
0 0 0 0 0 0 0 0 0 0 0 0 0 0 0 0 0 0 0 0 0 0 0 0 0 0 0 0 0 0 0 0 0 0 0 0 0 2 0 4 270 139 31
0 0 0 0 0 0 0 0 0 0 0 0 0 0 0 0 0 0 0 0 0 0 0 0 0 0 0 0 0 0 0 0 0 0 0 0 0 0 0 4 94 0 0
0 0 0 0 0 0 0 0 0 0 0 0 0 0 0 0 0 0 0 0 0 0 0 0 0 0 0 0 0 0 0 0 4 0 0 0 0 0 0 0 72 38 73
0 0 0 0 0 0 0 0 0 0 0 0 0 0 0 0 0 0 0 0 0 0 0 0 0 0 0 1 0 0 0 0 0 9 3 0 0 0 0 0 0 6 0
0 0 0 0 0 0 0 0 0 0 0 0 0 0 0 0 0 0 0 0 0 0 0 0 0 0 0 0 0 0 0 0 0 0 0 0 0 0 0 0 0 1 1

GFSSE_con_sbcape_006.txt.gz
CAPE
228 394 861 1337 1545 1605 1699 1556 1974 2272 2111 2123 2039 1980 2084 1548 1250 1119 963 1004 935 1327 874 534 474 672 1042 1022 911 1004 1040 1275 1330 1588 1769 1500 1161 1287 1207 1421 1373 1378 1864
216 346 781 1191 1514 1722 1999 1899 1996 2435 2527 2378 2096 2260 1998 1512 1260 1322 1144 1156 1275 1090 426 523 633 968 1003 868 986 996 863 1071 1243 1424 1620 1618 1419 1099 1235 1036 615 1353 1842
204 405 678 1036 1415 1811 2038 2166 2263 2441 2562 2618 2451 2383 1990 1659 1463 1480 1476 1145 396 480 409 370 465 864 1003 473 261 674 913 704 1012 972 1495 814 816 1098 1046 643 745 1819 1813
397 690 875 1077 1493 1760 1833 2026 2120 2123 2167 2602 2568 2380 2096 1826 1744 1679 1348 461 274 184 477 972 1046 592 776 41 84 134 841 1158 1095 1062 1048 982 812 1068 1034 828 1232 1791 1527
704 898 954 947 1355 1793 1839 1964 1994 2032 2186 2432 2270 2251 2165 1979 1847 1619 847 592 311 339 531 865 1158 948 401 193 83 79 832 679 983 1034 859 567 305 935 1197 903 1616 1440 1291
791 842 1000 1079 1358 1869 2003 1922 1938 1973 1952 2127 2424 2271 2042 1897 1655 1672 1034 560 451 535 624 976 523 438 431 148 75 739 774 451 499 652 878 537 388 1072 1448 1335 1054 1384 1250
794 1013 1109 1200 1406 1624 1606 1679 1731 1839 1947 2038 2127 2281 1953 1634 1252 831 554 835 637 929 910 945 1089 597 371 301 468 611 520 142 456 706 642 284 60 1422 1598 1312 1191 1251 1205
1009 1179 1209 1389 1389 1369 1351 1270 1275 1481 1709 1884 1849 1896 1927 1818 1670 1573 1400 1045 890 1295 480 328 211 420 102 221 275 329 144 250 534 830 573 418 214 1271 1803 1576 1047 1001 1015
1189 1145 1255 1242 1152 1069 943 841 795 1117 1448 1570 1501 1356 1172 1095 1166 1057 897 932 929 904 759 366 309 185 234 512 331 292 411 583 711 489 336 140 263 965 1854 1838 1461 1250 1165
1523 1254 1147 1011 725 323 278 563 664 770 1065 1405 1246 943 669 641 636 512 451 636 597 511 474 369 435 538 585 479 342 286 298 238 166 104 74 59 509 1504 1644 1894 1342 1586 1269
988 1355 1167 1049 832 302 85 327 663 849 931 1082 1322 713 342 126 92 114 61 219 267 215 8 0 5 24 4 0 1 3 4 0 0 2 0 27 481 780 1438 1409 1556 1458 1360
384 395 613 970 1003 648 517 499 389 712 594 500 626 754 344 15 0 0 3 38 0 0 0 0 0 0 0 0 0 0 0 0 0 0 0 2 298 600 799 1157 1345 1245 1366
6 14 96 263 329 97 334 485 555 438 407 353 161 109 2 0 0 0 0 0 0 0 0 0 0 0 0 0 0 0 0 0 0 0 0 8 167 519 592 1087 1195 1253 1276
0 0 0 17 17 0 0 408 311 121 153 6 0 0 0 0 0 0 0 0 0 0 0 0 0 0 0 0 0 0 0 0 0 0 0 6 18 144 462 584 694 727 970
0 0 0 0 0 0 0 0 0 0 0 0 0 0 0 0 0 0 0 0 0 0 0 0 0 0 0 0 0 0 0 0 0 0 0 0 0 19 78 258 499 619 768
0 0 0 0 0 0 0 0 0 0 0 0 0 0 0 0 0 0 0 0 0 0 0 0 0 0 0 0 0 1 5 0 0 0 0 0 0 0 8 5 119 301 457
0 0 0 0 0 0 0 0 0 0 0 0 0 0 0 0 0 0 0 0 0 0 0 0 0 0 0 0 0 0 0 0 0 0 0 0 0 0 0 6 62 100 121
0 0 0 0 0 0 0 0 0 0 0 0 0 0 0 0 0 0 0 0 0 0 0 0 0 0 0 0 0 0 0 0 0 0 0 0 0 0 11 5 46 136 170
0 0 0 0 0 0 0 0 0 0 0 0 0 0 0 0 0 0 0 0 0 0 0 0 0 0 0 0 0 0 0 0 0 0 0 0 0 0 34 32 32 36 79
0 0 0 0 0 0 0 0 0 0 0 0 0 0 0 0 0 0 0 0 0 0 0 0 0 0 0 0 0 0 0 0 0 0 0 0 0 0 14 63 33 23 6
0 0 0 0 0 0 0 0 0 0 0 0 0 0 0 0 0 0 0 0 0 0 0 0 0 0 0 0 0 0 0 0 0 0 0 0 0 0 32 37 111 84 117
0 0 0 0 0 0 0 0 0 0 0 0 0 0 0 0 0 0 0 0 0 0 0 0 0 0 0 0 0 0 0 0 0 0 0 0 0 0 0 0 0 98 99
0 0 0 0 0 0 0 0 0 0 0 0 0 0 0 0 0 0 0 0 0 0 0 0 0 0 0 0 0 0 0 0 0 0 0 0 0 0 0 0 0 11 53
0 0 0 0 0 0 0 0 0 0 0 0 0 0 0 0 0 0 0 0 0 0 0 0 0 0 0 0 0 0 0 0 0 0 0 0 0 0 0 0 0 0 15
0 0 0 0 0 0 0 0 0 0 0 0 0 0 0 0 0 0 0 0 0 0 0 0 0 0 0 0 0 0 0 0 0 0 0 0 0 0 0 0 0 0 0
0 0 0 0 0 0 0 0 0 0 0 0 0 0 0 0 0 0 0 0 0 0 0 0 0 0 0 0 0 0 0 0 0 0 0 0 0 0 0 0 0 0 0

GFSSE_con_sbcape_009.txt.gz
CAPE
165 447 1055 1412 1541 1539 1457 1824 2030 1960 2015 2201 2310 1971 1819 1650 1573 1746 1669 1604 1579 1680 1195 961 1095 1123 1299 904 1026 1019 995 1203 1324 1694 1665 1186 1226 1116 1184 1571 1334 1069 1377
173 468 939 1308 1651 1854 1778 1884 2265 2273 2294 2389 2410 2050 1873 1736 1659 1516 1555 1441 1739 996 707 794 1087 1280 1332 1221 1111 1194 1053 997 1035 1368 1561 1603 1286 1354 1160 1192 902 1333 1354
191 463 734 1208 1686 1913 1983 2107 2305 2627 2767 2619 2474 2263 2085 1859 1836 1580 1514 1076 527 799 649 693 1167 1476 855 999 918 976 913 1097 1320 1390 1741 1037 869 1246 1243 1257 777 1566 1393
340 556 752 1319 1582 1673 1724 1913 2155 2145 2475 2724 2859 2507 2325 2140 2003 1967 1499 621 509 520 1044 1167 1063 1514 937 839 819 944 957 851 1124 1353 1306 940 855 1163 1126 1044 1278 1490 1524
513 492 731 1229 1477 1615 1725 1822 1930 2035 2376 2355 2654 2645 2422 2295 2114 1834 1038 906 593 680 988 1080 1347 1195 858 276 508 373 728 872 906 988 736 822 695 1015 1109 1219 1455 1656 1618
549 562 683 1131 1496 1641 1714 1714 1743 1828 2056 2345 2315 2236 2348 2267 2149 1883 1145 842 660 813 910 1153 1019 920 789 565 537 200 799 389 214 234 472 663 722 626 1153 1319 1372 1462 1461
585 687 724 998 1356 1709 1611 1554 1716 1837 1905 2024 2295 2191 2110 1965 1623 1186 1217 1232 1036 936 1181 1304 1614 1508 905 572 428 564 578 393 124 206 403 430 293 481 1339 1465 1375 1280 1389
700 825 891 1125 1171 1293 1498 1476 1483 1658 1750 1682 1782 1976 2037 1864 1758 1683 1260 843 944 1076 1280 809 759 429 751 293 308 337 200 116 117 239 415 261 393 977 977 1590 1315 1426 1472
863 909 890 952 1050 1145 978 936 1071 1368 1517 1554 1378 1428 1346 1315 1374 1305 1257 1364 1400 1332 1147 545 704 387 322 394 398 344 279 362 307 267 301 293 374 609 927 1597 1439 1234 1310
838 869 758 733 659 405 358 634 624 1000 1286 1284 1084 968 722 753 752 715 558 837 639 614 384 262 307 407 456 317 169 27 0 9 0 1 9 36 257 632 865 1262 1581 1168 1164
1135 795 657 625 418 115 0 141 582 746 961 1184 1054 690 336 133 21 0 198 324 364 164 61 16 0 0 0 0 0 0 0 0 0 0 0 0 13 453 720 908 1224 1126 1070
1130 1037 708 650 519 175 167 178 188 387 438 476 744 294 116 14 0 0 26 71 10 0 0 0 0 0 0 0 0 0 0 0 0 0 0 1 23 268 548 1040 950 1044 1001
925 568 452 645 392 321 264 125 102 193 110 56 69 151 10 0 0 0 0 0 0 0 0 0 0 0 0 0 0 0 0 0 0 0 0 0 0 1 191 540 929 876 854
0 0 0 1 0 0 2 154 213 131 56 16 0 0 0 0 0 0 0 0 0 0 0 0 0 0 0 0 0 0 0 0 0 0 0 0 0 0 11 178 494 665 769
0 0 0 0 0 0 0 0 0 0 12 0 0 0 0 0 0 0 0 0 0 0 0 0 0 0 0 0 0 0 0 0 0 0 0 0 0 0 19 40 176 364 473
0 0 0 0 0 0 0 0 0 0 0 0 0 0 0 0 0 0 0 0 0 0 0 0 0 0 0 0 0 0 0 0 0 0 0 0 0 0 0 3 48 37 67
0 0 0 0 0 0 0 0 0 0 0 0 0 0 0 0 0 0 0 0 0 0 0 0 0 0 0 0 0 0 0 0 0 0 0 0 0 0 0 0 3 100 81
0 0 0 0 0 0 0 0 0 0 0 0 0 0 0 0 0 0 0 0 0 0 0 0 0 0 0 0 0 0 0 0 0 0 0 0 0 0 0 0 13 62 87
0 0 0 0 0 0 0 0 0 0 0 0 0 0 0 0 0 0 0 0 0 0 0 0 0 0 0 0 0 0 0 0 0 0 0 0 0 0 0 11 40 63 78
0 0 0 0 0 0 0 0 0 0 0 0 0 0 0 0 0 0 0 0 0 0 0 0 0 0 0 0 0 0 0 0 0 0 0 0 0 0 0 0 0 4 40
0 0 0 0 0 0 0 0 0 0 0 0 0 0 0 0 0 0 0 0 0 0 0 0 0 0 0 0 0 0 0 0 0 0 0 0 0 0 0 0 0 0 0
0 0 0 0 0 0 0 0 0 0 0 0 0 0 0 0 0 0 0 0 0 0 0 0 0 0 0 0 0 0 0 0 0 0 0 0 0 0 0 0 0 0 0
0 0 0 0 0 0 0 0 0 0 0 0 0 0 0 0 0 0 0 0 0 0 0 0 0 0 0 0 0 0 0 0 0 0 0 0 0 0 0 0 0 0 0
0 0 0 0 0 0 0 0 0 0 0 0 0 0 0 0 0 0 0 0 0 0 0 0 0 0 0 0 0 0 0 0 0 0 0 0 0 0 0 0 0 0 0
0 0 0 0 0 0 0 0 0 0 0 0 0 0 0 0 0 0 0 0 0 0 0 0 0 0 0 0 0 0 0 0 0 0 0 0 0 0 0 0 0 0 0
0 0 0 0 0 0 0 0 0 0 0 0 0 0 0 0 0 0 0 0 0 0 0 0 0 0 0 0 0 0 0 0 0 0 0 0 0 0 0 0 0 0 0

GFSSE_con_sbcape_012.txt.gz
CAPE
156 471 984 1279 1416 1356 1569 1666 1625 1710 2044 2186 2216 2005 1879 1992 1809 1913 1971 1755 1783 1663 1159 1226 1261 1487 1182 982 1186 1452 1439 1497 1536 1549 1642 1298 1405 1258 1402 1657 1376 1104 1276
167 474 986 1334 1620 1610 1766 1869 1864 1953 2363 2308 2219 1966 1793 1937 1879 1806 1716 1093 1595 1098 1035 1358 1368 1523 1626 1475 1362 1246 1238 1462 1569 1744 1960 1776 1521 1457 1101 1568 1259 1128 1115
335 484 853 1317 1621 1754 1943 2179 2443 2508 2597 2380 2349 2169 2040 1941 1721 1793 1366 785 821 904 992 839 1502 1862 1451 1432 1360 1295 1165 1166 1232 1351 1628 1004 1059 1451 1428 1467 965 1654 1278
312 471 834 1229 1390 1541 1678 1920 2131 2343 2580 2840 2650 2490 2253 2032 1734 1783 1000 853 801 909 1275 1374 1359 1850 1427 1193 1006 1088 1100 1115 1034 1337 1264 1002 957 1265 1315 1503 1323 1439 1411
401 469 1047 1155 1257 1472 1595 1694 1897 2114 2313 2570 2784 2667 2544 2364 2180 1852 979 1023 725 761 1195 1226 1451 1490 1441 816 714 359 849 886 614 453 521 723 843 1106 1315 1168 1381 1409 1551
293 345 972 1098 1280 1470 1599 1555 1575 1766 2118 2169 2208 2414 2433 2326 2181 1965 1523 1039 755 971 1113 1300 1441 1292 927 977 764 681 799 513 41 5 154 454 857 869 1026 1176 1161 1250 1492
261 306 732 1064 1335 1525 1463 1461 1648 1747 1794 2011 2142 2138 2157 1969 1658 1286 1133 1330 1236 1109 1357 1459 1357 1215 974 855 617 531 560 387 181 103 231 207 256 836 1040 1613 1450 1221 1448
363 446 520 929 1071 1308 1396 1289 1321 1446 1535 1484 1678 1992 2000 1814 1768 1631 1329 979 1026 1228 1494 971 728 707 438 426 681 259 224 229 201 191 237 334 342 927 1146 1326 1302 1038 1193
437 506 502 639 767 881 841 874 981 1233 1344 1275 1166 1192 1143 1215 1235 1120 1129 1154 1007 1020 974 807 704 834 702 501 293 71 27 144 4 12 101 61 231 607 857 1057 1357 1177 1244
534 468 399 413 391 245 275 533 596 892 1125 1110 882 688 527 518 533 480 285 638 513 320 249 189 161 94 16 0 0 0 0 0 0 0 0 0 14 194 638 954 1314 1286 1252
636 515 317 278 164 0 0 42 426 615 837 1012 768 475 112 5 0 0 150 285 228 124 73 39 20 1 0 0 0 0 0 0 0 0 0 0 0 127 502 701 1124 1267 1220
862 745 380 296 197 7 0 0 7 108 238 298 496 104 0 0 0 0 0 5 1 0 0 0 0 0 0 0 0 0 0 0 0 0 0 0 0 1 76 234 742 776 781
807 701 560 386 229 147 56 0 0 0 0 0 26 39 0 0 0 0 0 0 0 0 0 0 0 0 0 0 0 0 0 0 0 0 0 0 0 0 3 15 156 435 565
482 771 404 294 223 29 2 3 0 9 0 0 0 0 0 0 0 0 0 0 0 0 0 0 0 0 0 0 0 0 0 0 0 0 0 0 0 0 0 17 52 109 336
109 96 0 0 0 0 0 0 0 0 0 0 0 0 0 0 0 0 0 0 0 0 0 0 0 0 0 0 0 0 0 0 0 0 0 0 0 0 0 0 2 118 72
0 0 0 0 0 0 0 0 0 0 0 0 0 0 0 0 0 0 0 0 0 0 0 0 0 0 0 0 0 0 0 0 0 0 0 0 0 0 0 0 0 3 64
0 0 0 0 0 0 0 0 0 0 0 0 0 0 0 0 0 0 0 0 0 0 0 0 0 0 0 0 0 0 0 0 0 0 0 0 0 0 0 0 0 2 11
0 0 0 0 0 0 0 0 0 0 0 0 0 0 0 0 0 0 0 0 0 0 0 0 0 0 0 0 0 0 0 0 0 0 0 0 0 0 0 0 0 0 0
0 0 0 0 0 0 0 0 0 0 0 0 0 0 0 0 0 0 0 0 0 0 0 0 0 0 0 0 0 0 0 0 0 0 0 0 0 0 0 0 0 0 0
0 0 0 0 0 0 0 0 0 0 0 0 0 0 0 0 0 0 0 0 0 0 0 0 0 0 0 0 0 0 0 0 0 0 0 0 0 0 0 0 0 0 0
0 0 0 0 0 0 0 0 0 0 0 0 0 0 0 0 0 0 0 0 0 0 0 0 0 0 0 0 0 0 0 0 0 0 0 0 0 0 0 0 0 0 0
0 0 0 0 0 0 0 0 0 0 0 0 0 0 0 0 0 0 0 0 0 0 0 0 0 0 0 0 0 0 0 0 0 0 0 0 0 0 0 0 0 0 0
0 0 0 0 0 0 0 0 0 0 0 0 0 0 0 0 0 0 0 0 0 0 0 0 0 0 0 0 0 0 0 0 0 0 0 0 0 0 0 0 0 0 0
0 0 0 0 0 0 0 0 0 0 0 0 0 0 0 0 0 0 0 0 0 0 0 0 0 0 0 0 0 0 0 0 0 0 0 0 0 0 0 0 0 0 0
0 0 0 0 0 0 0 0 0 0 0 0 0 0 0 0 0 0 0 0 0 0 0 0 0 0 0 0 0 0 0 0 0 0 0 0 0 0 0 0 0 0 0
0 0 0 0 0 0 0 0 0 0 0 0 0 0 0 0 0 0 0 0 0 0 0 0 0 0 0 0 0 0 0 0 0 0 0 0 0 0 0 0 0 0 0

GFSSE_con_sbcape_018.txt.gz
CAPE
290 741 823 946 1110 1186 1308 1253 1255 1267 1484 1899 1926 1934 1996 1968 2041 2065 1947 2009 1913 1480 1409 1406 1533 1631 1453 1281 1080 1417 1639 1586 1589 1544 1743 1596 1539 1770 1951 1790 1523 1195 1593
398 803 852 1058 1211 1413 1560 1501 1415 1491 1582 1877 2029 1963 1907 1978 1809 1647 1617 1300 1154 1187 1193 1026 1469 1687 1808 1427 1534 1582 1512 1612 1677 1750 1837 1650 1521 1574 1772 1658 1529 1536 1637
313 785 1030 1124 1341 1620 2002 1899 1853 1849 1860 1784 1796 1879 1861 2016 1682 1400 1034 901 996 1319 1314 1490 1479 1774 1639 1531 983 1232 1423 1381 1497 1587 1561 1094 795 1732 1666 1632 1603 1634 1458
337 679 983 992 1218 1389 1619 1859 2107 2272 2148 2150 2098 1970 1807 1769 1728 1467 1216 1010 1051 1071 1324 1558 1721 1808 1513 1115 968 756 967 992 967 1059 1393 1114 865 1466 1693 1748 1597 1719 1551
357 641 956 924 1041 1187 1351 1483 1615 1832 2069 2227 2283 2111 1929 1900 1812 1574 1436 1222 964 964 1073 1452 1727 1582 1308 1029 744 777 864 950 662 609 1129 1215 1303 1297 1530 1562 1520 1593 1632
144 323 651 773 852 1029 1116 1118 1389 1597 1728 1814 1950 2102 2195 2037 1804 1613 1397 1093 1091 1159 1324 1492 1237 972 772 1054 639 486 604 736 553 940 813 902 951 1258 1224 1349 1365 1326 1252
125 295 374 673 800 991 937 1108 1197 1255 1402 1547 1615 1724 1637 1497 1376 1167 837 876 1056 1158 1436 946 1031 631 532 567 627 600 593 490 715 1141 1110 1048 1194 892 1005 1084 1570 1379 1733
135 353 291 524 819 879 908 1014 1082 1131 1142 1316 1406 1539 1474 1399 1320 1294 1369 1330 1207 1086 1053 898 932 853 902 706 466 301 330 356 960 1182 1084 1107 541 700 1013 1061 1397 1229 1277
125 272 513 589 528 479 520 589 748 928 884 893 835 859 896 812 803 806 865 770 585 515 480 412 316 237 150 38 0 0 5 29 987 892 631 707 297 649 880 772 880 1173 1367
425 496 810 917 847 793 702 186 440 658 729 677 541 367 303 345 246 99 221 278 215 165 118 77 26 8 0 0 0 0 0 0 594 738 694 369 34 307 636 705 820 829 1014
797 1096 1152 1129 1140 877 524 485 144 368 639 544 510 181 262 626 580 359 5 17 7 0 0 0 0 0 0 0 0 0 0 103 184 183 191 0 0 77 159 250 318 664 716
1180 1401 1524 1672 1562 1158 233 708 759 674 757 980 1100 1070 660 890 783 184 13 0 0 0 0 0 0 0 0 0 0 0 0 0 12 30 36 0 0 11 83 127 164 244 527
1234 1429 1647 1921 1915 1535 715 522 355 333 589 802 1249 1293 1078 1047 845 667 480 137 60 0 0 0 0 0 0 0 0 0 0 0 0 0 0 0 0 0 0 0 7 157 212
973 1553 1887 1984 2017 1885 1001 555 397 398 448 649 755 1364 1085 761 607 575 223 66 13 0 0 0 0 0 0 0 0 0 0 0 0 0 0 0 0 0 0 0 0 0 73
1224 1605 2104 2318 2248 1506 1146 572 726 763 493 803 661 541 1058 577 371 209 36 0 0 0 0 1 0 0 0 0 0 0 0 0 0 0 0 0 0 0 0 0 0 0 0
1307 1721 2262 2480 2201 903 425 611 446 494 380 446 208 176 696 728 186 39 0 0 0 0 0 0 0 0 0 0 0 0 0 0 0 0 0 0 0 0 0 0 0 0 0
1050 1383 2035 2221 1201 506 315 188 55 26 82 14 11 72 162 276 86 59 11 7 0 0 0 33 0 0 0 0 0 0 0 0 0 0 0 0 0 0 0 0 0 0 0
497 775 1310 1115 489 394 155 51 6 3 9 3 8 14 16 28 46 51 21 6 17 27 1 0 0 0 0 0 0 0 0 0 0 0 0 0 0 0 0 0 0 0 0
54 180 713 890 315 169 60 28 34 35 44 8 14 5 0 9 18 38 12 12 48 36 6 2 0 0 0 0 0 0 0 0 0 0 0 0 0 0 0 0 0 0 0
2 102 511 416 110 43 5 0 0 0 0 0 0 0 0 0 0 0 0 0 30 51 40 17 26 20 4 0 0 0 0 0 0 0 0 0 0 0 0 0 0 0 0
0 28 32 23 0 0 0 0 0 0 0 0 0 0 0 0 0 0 0 0 2 5 20 40 32 27 40 26 0 0 0 0 0 0 0 0 0 0 0 0 0 0 0
0 0 0 0 0 0 0 0 0 0 0 0 0 0 0 0 0 0 0 0 0 0 0 12 35 48 44 24 20 2 2 2 10 0 0 0 0 0 0 0 0 0 0
0 0 0 0 0 0 0 0 0 0 0 0 0 0 0 0 0 0 0 0 0 0 0 0 0 16 34 43 100 22 17 40 83 69 9 0 0 0 0 0 0 0 0
0 0 0 0 0 0 0 0 0 0 0 0 0 0 0 0 0 0 0 0 0 0 0 0 1 10 24 25 57 82 56 14 38 70 23 11 0 0 0 0 0 0 0
0 0 0 0 0 0 0 0 0 0 0 0 0 0 0 0 0 0 0 0 0 0 0 0 1 8 12 18 18 14 0 3 30 18 27 6 12 5 0 0 0 0 0
0 0 0 0 0 0 0 0 0 0 0 0 0 0 0 0 0 0 0 0 0 0 5 11 8 3 7 4 5 9 11 8 4 2 6 13 8 7 10 12 11 5 0

GFSSE_con_sbcape_021.txt.gz
CAPE
566 633 848 936 1093 1233 1190 1065 1072 1297 1760 1857 1637 1756 1731 2004 2039 2014 1967 1912 1789 1303 1121 1233 1405 1502 1668 1398 1465 1520 1640 1735 1696 1570 1579 1429 1431 1706 1933 1717 1686 1177 1582
611 789 897 1097 1313 1403 1369 1365 1338 1609 1621 1583 1783 1754 1774 1832 1836 1637 1249 1084 1315 1302 1345 1234 1503 1751 1649 1712 1593 1622 1588 1515 1575 1642 1569 1281 1459 1695 1693 1569 1899 1440 1456
669 755 884 1078 1354 1721 1667 1702 1710 1767 1734 1656 1707 1744 1827 1675 1496 1263 1079 962 1148 1265 1415 1615 1690 1939 1560 1349 1043 1264 1372 1318 1381 1492 1759 483 1193 1882 1777 1613 1696 1712 1620
515 774 964 951 1174 1342 1586 1755 2081 1985 1922 1870 1779 1719 1750 1785 1511 1296 1139 1092 1153 1130 1175 1455 1624 1683 1348 1044 914 847 883 979 956 1183 925 1522 972 1503 1879 1790 1618 1720 1580
400 674 816 854 954 1190 1366 1445 1625 1874 1971 2041 1995 1943 1744 1695 1594 1592 1444 1180 977 1126 1391 1489 1558 1558 1318 1077 769 670 827 976 1014 826 1054 1495 1594 1254 1621 1544 1635 1654 1662
250 425 521 623 811 1004 863 1060 1259 1416 1566 1753 1988 2130 2062 1921 1739 1486 1279 1108 1202 1206 1482 1123 962 695 655 867 587 491 453 634 845 908 1196 994 999 1586 1318 1362 1485 1199 1247
34 81 160 574 842 866 794 888 946 1051 1227 1391 1602 1611 1505 1443 1329 1147 888 951 1115 1371 1163 1014 964 571 554 711 727 726 779 782 639 904 1148 960 992 1230 1279 1266 1665 1478 1382
49 81 60 412 742 823 780 836 879 881 929 1116 1283 1306 1271 1186 1145 1171 1156 1083 920 901 754 766 840 775 616 379 213 191 233 291 850 1062 1189 1072 787 848 1005 1189 1271 1284 1319
33 122 192 312 368 522 522 654 800 814 662 630 613 686 673 662 654 716 657 556 487 423 379 298 214 159 69 5 0 0 0 42 485 508 534 614 461 735 1121 1073 1092 1078 1193
51 328 427 461 420 611 587 335 551 680 596 514 372 274 294 384 267 145 424 249 177 118 63 23 1 0 0 0 0 0 0 0 297 266 725 56 135 311 518 750 836 927 782
352 648 628 518 408 250 104 225 167 552 640 484 461 210 289 700 506 411 22 19 5 0 0 0 0 0 0 0 0 0 0 0 15 33 142 4 14 98 304 302 330 484 775
561 586 923 1161 772 298 0 215 260 142 543 572 677 708 518 637 655 140 27 0 0 0 0 0 0 0 0 0 1 0 0 0 0 0 46 0 0 0 42 138 207 265 373
512 536 812 1727 1289 726 318 38 107 109 179 440 700 806 541 619 643 430 318 308 350 3 21 0 0 0 0 0 0 0 0 0 0 0 1 0 0 0 0 0 0 93 260
326 355 811 1948 1788 1031 350 127 88 86 270 270 615 482 423 340 340 231 15 0 2 4 1 3 2 4 6 2 0 0 0 0 0 0 0 0 0 0 0 0 0 0 42
274 403 744 1756 2441 1164 735 196 187 246 250 467 291 188 211 174 129 8 0 0 0 0 4 3 1 1 1 0 0 0 0 0 0 0 0 0 0 0 0 0 0 0 0
357 511 793 1529 2504 1372 206 286 171 249 193 199 31 25 56 131 156 71 41 26 5 0 0 0 0 0 0 0 0 0 0 0 0 0 0 0 0 0 0 0 0 0 0
347 504 928 1605 2202 1341 297 174 23 11 4 0 0 17 30 56 51 71 36 29 21 44 175 40 6 7 9 6 0 0 0 0 0 0 0 0 0 0 0 0 0 0 0
338 396 709 1447 1912 1184 225 76 14 6 0 0 9 19 12 26 31 51 20 41 70 115 42 20 6 4 8 11 21 1 0 0 0 0 0 0 0 0 0 0 0 0 0
101 226 582 1390 1427 802 224 76 50 43 34 24 30 23 0 15 5 28 33 45 154 81 154 137 94 129 53 25 10 30 14 0 0 0 0 0 0 0 0 0 0 0 0
57 176 494 1120 1036 387 125 53 8 1 0 0 1 0 0 4 0 0 1 26 42 23 87 128 217 158 183 165 28 35 110 23 0 6 0 0 0 0 0 0 0 0 0
106 347 539 519 87 38 14 0 0 0 0 0 0 0 0 0 0 0 0 0 5 0 22 95 106 135 158 278 255 226 187 125 82 13 9 5 4 2 7 0 7 0 0
0 0 0 0 0 0 0 0 0 0 0 2 7 0 0 0 0 0 0 0 0 0 3 31 95 62 119 227 303 298 205 129 195 155 68 16 24 4 12 8 15 1 0
0 0 0 0 0 0 0 0 0 0 0 0 0 0 0 0 0 0 0 0 0 0 0 14 29 55 58 87 279 290 212 163 215 220 297 149 163 146 39 26 13 0 0
0 0 0 0 0 0 0 0 0 0 0 0 0 0 0 0 0 0 0 0 0 0 7 7 7 14 51 24 63 58 161 186 68 95 194 153 106 64 105 113 63 6 0
0 0 0 0 0 0 0 0 0 0 0 0 0 0 0 0 0 0 0 0 0 0 5 13 20 13 7 4 3 2 0 10 29 0 5 65 59 53 33 11 86 14 15
0 0 0 0 0 0 0 0 0 0 0 0 0 0 0 0 0 0 0 0 1 13 22 6 4 6 8 4 2 3 4 6 8 7 9 5 3 2 0 2 3 11 31

GFSSE_con_sbcape_024.txt.gz
CAPE
465 577 998 1151 1331 1308 1227 1225 1320 1511 1656 1820 1800 1862 2036 2002 1856 1725 1662 1636 1527 1419 1110 1238 1873 1697 1563 1629 1516 1559 1865 1845 1785 1827 1589 1258 1313 1469 1578 1799 1540 951 1796
610 648 937 1318 1467 1414 1389 1474 1510 1536 1666 1746 1827 1939 1828 1790 1447 1266 1441 1671 1699 1413 1500 1575 1764 1794 1680 1277 1265 1385 1442 1582 1571 1688 1787 1539 1388 1497 1433 1935 1950 1711 1946
619 613 817 1151 1490 1625 1757 1843 1832 1786 1741 1785 1914 1933 1733 1458 1297 1247 1274 1248 1260 1273 1397 1650 1755 1747 1383 1176 975 842 957 1208 1267 1312 1524 879 1096 982 1301 1751 2000 2100 1926
801 652 649 912 1188 1427 1573 1834 1979 1893 1894 1856 1804 1909 1741 1476 1320 1190 1184 1160 1159 1229 1348 1609 1671 1491 1259 954 771 805 825 924 1003 1080 503 569 1197 995 667 1421 1694 1781 1720
601 561 518 711 942 1158 1305 1452 1628 1706 1884 2001 1983 1853 1804 1589 1498 1528 1242 1096 1130 1267 1375 1354 1303 1281 1032 1013 784 563 513 781 1040 721 314 856 953 750 990 1572 1584 1593 1504
319 337 316 535 757 907 1070 1216 1288 1361 1532 1737 1878 1909 1790 1661 1390 1126 985 1036 1040 1182 1175 961 667 448 460 524 539 543 607 701 674 216 406 961 548 857 1162 1352 1539 1411 1228
45 66 161 541 811 914 888 801 1053 1137 1313 1439 1422 1407 1317 1249 1176 1042 977 1114 1162 1064 915 843 717 673 748 647 540 469 495 568 437 452 712 962 975 34 723 1210 1245 1340 1227
0 0 32 607 795 823 865 873 839 907 982 1145 1211 1167 999 950 969 903 846 712 635 565 530 604 577 437 277 137 61 59 88 162 134 371 717 729 1170 1019 1125 1199 1247 1052 1128
0 0 91 125 394 577 566 598 613 636 627 646 640 633 653 697 747 676 540 415 322 261 215 157 109 55 25 3 0 0 0 6 0 71 418 296 1051 943 915 1081 1175 1281 1042
39 104 214 321 303 313 244 386 507 480 445 407 321 267 319 316 360 515 383 171 99 51 11 0 0 0 0 0 0 0 0 0 0 2 197 162 650 531 512 560 632 761 1180
116 581 528 290 436 687 328 290 409 558 479 417 323 199 78 435 277 417 58 80 18 0 0 0 0 0 0 0 0 0 0 0 0 0 0 99 94 149 249 312 339 367 595
445 490 815 739 556 167 3 198 686 669 612 688 751 758 720 579 518 169 127 32 40 3 2 0 0 0 0 0 0 0 0 0 0 0 0 0 0 0 0 57 149 223 294
404 337 963 1566 1021 853 602 59 472 486 665 1132 1351 608 934 478 959 576 354 14 2 14 13 0 0 0 9 0 0 0 0 0 0 0 0 0 0 0 0 0 0 4 184
369 557 1411 1733 1603 852 696 410 307 389 543 652 538 677 522 430 527 163 71 0 0 0 0 4 0 22 0 8 0 0 0 0 0 0 0 0 0 0 0 0 0 0 0
199 430 853 1889 2337 1551 802 856 636 520 813 486 518 476 394 273 314 254 65 24 1 0 0 4 0 0 0 0 0 0 0 0 0 0 0 0 0 0 0 0 0 0 0
296 657 1121 1561 2492 1817 790 550 539 710 753 631 252 92 173 213 278 167 74 60 18 0 0 0 0 0 0 0 0 0 0 0 0 0 0 0 0 0 0 0 0 0 0
214 709 1211 656 2192 1913 730 406 221 223 36 64 107 36 52 58 68 76 69 60 47 83 64 28 18 1 0 0 0 3 0 0 0 0 0 0 0 0 0 0 0 0 0
311 206 171 958 2194 1968 1073 410 126 87 62 42 27 63 28 15 85 84 95 90 106 112 70 80 55 26 4 2 0 0 0 0 0 0 0 0 0 0 0 0 0 0 0
433 392 518 1242 1797 1645 909 268 168 93 53 59 115 47 54 3 67 30 29 47 85 39 51 66 41 43 28 2 0 0 1 6 0 0 0 0 0 0 0 0 0 0 0
437 463 595 1139 978 618 362 133 61 39 24 36 21 15 5 0 11 3 0 5 32 1 0 1 9 4 17 23 18 7 0 0 0 0 0 0 0 0 0 0 0 0 0
472 321 289 68 64 15 44 0 1 1 0 1 9 26 0 3 0 0 0 0 0 0 0 0 0 0 0 0 7 0 0 23 39 14 0 0 0 0 0 0 0 0 0
0 0 0 0 0 0 0 0 0 0 4 7 15 0 0 1 0 0 0 0 0 0 0 0 0 0 0 0 38 7 2 0 0 2 29 3 0 0 0 0 0 0 0
0 0 0 0 0 0 0 0 0 0 9 1 0 0 5 0 0 0 0 4 0 0 0 0 0 0 0 0 4 49 17 3 0 0 0 1 42 20 30 0 0 0 0
0 0 0 0 0 0 0 0 0 0 0 0 0 0 0 0 0 0 0 0 0 0 0 0 8 1 0 0 0 0 0 0 11 0 0 0 0 0 0 0 0 0 0
1 1 0 0 0 0 0 0 0 0 0 0 0 0 0 0 0 0 0 0 0 0 4 2 0 0 0 0 0 0 0 0 0 0 0 0 0 0 0 0 0 0 0
1 0 0 0 0 0 0 0 0 0 0 0 2 1 0 0 0 0 0 0 0 8 4 0 0 0 1 0 1 0 0 1 0 0 2 0 1 0 0 0 0 0 0

GFSSE_con_sbcape_027.txt.gz
CAPE
464 741 929 1148 1051 950 975 1095 1147 1248 1476 1604 1731 1811 1704 1556 1476 1545 1570 1573 1645 1546 1430 1621 1810 1772 1588 1448 1417 1453 1460 1609 1574 1650 1395 1305 1393 1467 1549 2034 1668 1565 2007
554 761 953 1104 1131 1173 1288 1259 1311 1398 1534 1786 1635 1704 1561 1443 1354 1334 1482 1464 1469 1326 1531 1648 1766 1661 1471 1238 1085 1146 1224 1363 1228 1318 1347 1196 1495 1464 1551 2029 1403 1719 1996
528 797 994 1073 1307 1484 1589 1557 1532 1549 1657 1656 1607 1594 1498 1340 1268 1268 1112 1229 1183 1198 1306 1580 1700 1558 1281 1022 911 939 977 1198 1080 1099 1215 308 930 1061 993 1524 1707 1457 1790
449 573 788 942 1120 1322 1488 1591 1666 1657 1594 1730 1734 1571 1459 1196 1152 1118 1062 1255 1309 1322 1400 1464 1462 1423 1214 1065 886 714 647 878 985 1060 158 227 1105 741 649 840 1604 1720 1687
295 356 532 667 874 1083 1234 1307 1416 1559 1679 1672 1663 1683 1571 1425 1402 1104 1045 1285 1165 1207 1132 1053 748 532 520 741 707 656 647 717 772 431 11 454 1030 396 580 869 1023 1433 1330
101 121 258 434 690 883 1008 1082 1167 1295 1398 1476 1592 1641 1416 1167 971 852 961 1005 1003 1001 890 730 465 344 494 606 615 539 601 602 621 143 93 749 1004 1069 1212 1271 1177 819 1271
0 36 205 425 656 804 801 750 952 1053 1097 1161 1244 1301 1157 1044 1029 984 1008 975 857 622 568 557 554 517 388 278 165 137 119 133 93 0 72 586 179 276 905 1159 1104 1008 950
0 3 158 521 584 627 651 638 651 729 858 930 1018 1040 990 962 919 736 581 458 392 311 266 211 149 117 70 40 25 7 0 5 0 0 379 509 865 971 1259 1076 964 869 966
0 0 35 179 331 348 320 305 319 401 437 468 480 505 537 635 693 678 493 302 179 107 77 35 4 2 6 11 2 0 0 0 0 0 13 266 1403 1251 1151 1134 1098 1125 1098
0 0 0 6 16 40 56 130 105 132 142 144 182 178 166 258 406 448 270 265 110 39 5 0 0 0 0 0 0 0 0 0 0 0 0 66 671 638 595 596 581 597 741
0 0 1 0 0 0 0 96 190 219 132 90 139 100 49 26 104 264 84 105 83 24 0 0 0 0 0 0 0 0 0 0 0 0 0 118 258 235 270 289 287 311 387
57 28 11 2 41 6 0 29 29 131 157 73 103 70 19 75 95 199 12 63 80 43 20 5 0 0 0 0 0 0 0 0 0 0 0 0 6 0 0 34 127 202 297
76 183 85 0 0 5 7 0 46 74 142 160 211 3 11 66 98 38 0 3 0 6 0 0 0 0 0 0 0 0 0 0 0 0 0 0 0 0 0 0 0 0 14
63 359 267 59 82 0 0 0 0 0 7 332 170 11 0 7 0 0 0 0 0 0 0 0 0 0 0 0 0 0 0 0 0 0 0 0 0 0 0 0 0 0 0
34 532 518 285 173 168 1 0 1 28 31 1 11 0 0 5 0 0 0 0 0 0 0 0 0 0 0 0 0 0 0 0 0 0 0 0 0 0 0 0 0 0 0
6 653 813 787 631 411 149 6 40 12 18 9 0 0 1 0 0 1 0 0 0 0 0 0 0 0 0 0 0 0 0 0 0 0 0 0 0 0 0 0 0 0 0
6 549 1182 620 954 724 75 0 1 100 0 0 0 0 0 0 0 0 0 0 0 0 0 0 0 0 0 0 0 0 0 0 0 0 0 0 0 0 0 0 0 0 0
233 575 755 1040 176 445 39 0 0 0 0 0 0 0 0 0 0 0 0 0 0 0 0 0 0 0 0 0 0 0 0 0 0 0 0 0 0 0 0 0 0 4 0
0 0 80 318 785 280 15 0 0 0 0 0 0 0 0 0 0 0 0 0 0 0 0 0 0 0 0 0 0 0 0 0 0 0 0 0 0 0 0 0 0 9 3
0 0 0 0 0 6 0 0 0 0 0 0 0 0 0 0 0 0 0 0 0 0 0 0 0 0 0 0 0 0 0 0 0 0 0 0 0 0 0 0 0 0 0
0 0 0 0 0 0 0 0 0 0 0 0 0 0 0 0 0 0 0 0 0 0 0 0 0 0 0 0 0 0 0 0 0 0 0 0 0 0 0 0 0 0 0
0 0 0 0 0 0 0 0 0 0 0 0 0 0 0 0 0 0 0 0 0 0 0 0 0 0 0 0 0 0 0 0 0 0 0 0 0 0 0 0 0 0 0
0 0 0 0 0 0 0 0 0 0 0 0 0 0 0 0 0 0 0 0 0 0 0 0 0 0 0 0 0 0 0 1 0 0 0 0 0 0 0 0 0 0 0
0 0 0 0 0 0 0 0 0 0 0 0 0 0 0 0 0 0 0 0 0 0 0 0 0 0 0 0 0 0 0 3 3 0 0 0 0 0 0 0 0 2 4
0 0 0 0 0 0 0 0 0 0 0 0 0 0 0 0 0 0 0 0 0 0 0 0 0 0 0 0 0 0 0 0 0 0 0 0 0 0 0 0 0 0 0
0 0 0 0 0 0 0 0 0 0 0 0 0 0 0 0 0 0 0 0 0 0 0 0 0 0 0 0 0 0 0 2 0 0 0 0 0 0 0 0 0 0 0

GFSSE_con_sbcape_030.txt.gz
CAPE
539 728 820 824 830 902 913 953 1072 1187 1363 1665 1611 1537 1400 1399 1408 1477 1504 1591 1598 1412 1425 1560 1519 1473 1368 1288 1306 1332 1279 1190 1301 1225 1285 1185 1499 1375 1442 1827 2012 1733 1750
586 698 719 901 1038 1031 1074 1104 1192 1408 1538 1592 1437 1354 1281 1257 1351 1170 1139 1182 1364 1258 1392 1519 1575 1397 1224 1108 1064 996 984 1142 1098 1144 977 916 1671 1064 1174 1444 1717 1663 1788
703 761 869 1063 1284 1292 1297 1334 1428 1649 1454 1335 1228 1225 1155 1025 1011 946 956 1106 1252 1234 1507 1489 1365 1249 1066 922 803 707 721 823 1022 1002 724 75 1138 998 1096 1472 1515 1603 1804
678 747 841 1045 1252 1372 1405 1425 1360 1474 1403 1456 1291 1125 1049 1060 1013 930 931 1335 1229 1213 1176 1081 937 782 752 751 628 607 609 620 777 839 14 156 968 615 856 1069 1236 1290 1383
360 516 681 802 979 1143 1224 1314 1413 1421 1424 1520 1493 1202 1258 1179 975 891 873 1196 1013 931 911 607 409 301 320 403 436 412 403 445 563 65 0 432 856 1138 1149 766 868 1165 1296
105 216 416 577 744 951 1067 1145 1252 1331 1346 1459 1511 1421 1142 907 677 663 769 927 852 695 530 427 416 424 393 328 245 162 137 110 145 0 0 385 839 216 1015 1142 1094 1160 1309
0 59 207 388 616 766 787 809 1015 1073 1076 1185 1247 1195 911 763 790 787 760 635 442 335 344 315 283 182 117 87 56 44 27 20 0 0 14 306 597 1385 1292 1381 1379 1066 974
0 55 197 442 538 601 664 675 723 779 845 934 1006 1039 913 811 713 496 392 282 239 171 91 43 33 24 25 36 36 25 1 1 0 0 6 236 254 911 1201 1225 1200 1133 1084
0 4 75 200 262 274 247 266 299 415 513 600 599 639 597 550 566 527 334 178 127 57 8 0 0 0 0 0 0 0 0 0 0 0 0 94 1001 1197 990 1132 1119 891 1128
0 0 0 12 3 0 22 115 115 148 205 248 243 231 201 261 328 310 212 188 140 41 0 0 0 0 0 0 0 0 0 0 0 0 0 0 893 903 799 731 709 674 609
0 0 0 0 0 0 0 45 118 175 131 108 124 122 60 52 126 174 31 68 127 29 0 0 0 0 0 0 0 0 0 0 0 0 0 0 492 638 557 437 365 359 360
0 0 0 0 0 0 17 54 4 81 15 1 25 28 8 9 6 146 86 77 106 44 23 11 0 0 0 0 0 0 0 0 0 0 0 0 123 142 51 50 172 228 297
0 0 0 0 0 0 1 0 0 11 42 28 60 74 4 65 58 38 0 0 0 1 0 0 0 0 0 0 0 0 0 0 0 0 0 0 0 0 0 0 0 0 0
5 2 0 0 0 0 0 0 1 4 72 112 81 0 0 0 0 0 0 0 0 0 0 0 0 0 0 0 0 0 0 0 0 0 0 0 0 0 0 0 0 0 0
46 25 0 0 0 0 0 0 0 0 32 135 3 0 0 0 0 0 0 0 0 0 0 0 0 0 0 0 0 0 0 0 0 0 0 0 0 0 0 0 0 0 0
123 191 39 13 7 17 0 0 0 0 1 0 0 0 0 0 0 0 0 0 0 0 0 0 0 0 0 0 0 0 0 0 0 0 0 0 0 0 0 0 0 0 0
170 554 404 552 505 422 246 0 0 0 0 0 0 0 0 0 0 0 0 0 0 0 0 0 0 0 0 0 0 0 0 0 0 0 0 0 0 0 0 0 1 0 0
533 918 557 239 86 73 370 68 0 0 0 0 0 0 0 0 0 0 0 0 0 0 0 0 0 0 0 0 0 0 0 0 0 0 0 0 0 0 0 3 8 21 17
22 508 193 107 52 0 138 29 0 0 0 0 0 0 0 0 0 0 0 0 0 0 0 0 0 0 0 0 0 0 0 0 0 0 0 0 0 0 0 0 19 32 28
0 0 4 16 16 68 2 0 0 0 0 0 0 0 0 0 0 0 0 0 0 0 0 0 0 0 0 0 0 0 0 0 0 0 0 0 0 0 0 0 0 1 25
0 0 0 0 0 0 0 0 0 0 0 0 0 0 0 0 0 0 0 0 0 0 0 0 0 0 0 0 0 0 0 0 0 0 0 0 0 0 0 0 0 0 0
0 0 0 0 0 0 0 0 0 0 0 0 0 0 0 0 0 0 0 0 0 0 0 0 0 0 0 0 0 0 1 0 0 0 0 0 0 0 0 0 0 0 0
0 0 0 0 0 0 0 0 0 0 0 0 0 0 0 0 0 0 0 0 0 0 0 0 0 0 0 0 0 0 0 0 0 0 0 0 0 0 0 0 0 0 0
0 0 0 0 0 0 0 0 0 0 0 0 0 0 0 0 0 0 0 0 0 0 0 0 0 0 0 1 0 2 0 0 0 0 0 0 0 0 0 0 0 0 0
0 0 0 0 0 0 0 0 0 0 0 0 0 0 0 0 0 0 0 0 0 0 0 0 0 0 0 0 0 0 0 0 0 1 0 0 0 0 0 0 0 0 0
0 0 0 0 0 0 0 0 0 0 0 0 0 0 0 0 0 0 0 0 0 0 0 0 0 0 0 0 0 0 0 0 0 0 0 0 0 0 0 0 0 0 0

GFSSE_con_sbcape_033.txt.gz
CAPE
528 598 614 796 855 870 918 932 946 1096 1435 1481 1375 1258 1192 1199 1139 1265 1258 1431 1467 1200 1256 1284 1248 1218 1137 1037 937 901 861 834 908 984 1076 1122 1462 934 1457 2241 2118 1791 1726
523 583 567 816 922 937 1013 1102 1233 1517 1529 1130 1068 1064 1096 1021 915 895 860 953 1105 1139 1295 1283 1189 1050 887 765 739 676 700 705 787 819 887 517 1515 1012 1389 1824 1718 1858 1687
584 533 661 835 1023 1134 1264 1456 1485 1478 1197 1067 981 911 932 859 804 760 875 1051 1154 1231 1017 957 907 866 759 648 609 609 620 598 562 601 243 83 904 1022 1095 1265 1410 1664 1835
635 678 860 1006 1168 1219 1218 1396 1460 1345 1215 1111 1012 952 921 863 829 842 919 979 811 827 736 522 355 242 194 203 286 300 327 340 354 280 0 23 881 1018 655 1170 1183 1332 1357
574 653 858 948 1073 1209 1250 1240 1359 1387 1371 1307 1212 1090 1064 958 855 717 776 836 740 630 347 238 224 257 211 178 157 115 74 91 107 0 0 29 490 883 1055 719 599 1099 1106
210 353 608 746 867 1054 1211 1267 1274 1285 1275 1297 1325 1214 1019 769 592 637 785 745 524 288 205 185 160 100 55 29 13 5 0 0 0 0 0 0 749 431 599 1256 1273 954 1198
53 183 368 587 766 956 992 1078 1105 1165 1177 1229 1209 1066 719 651 667 725 681 429 263 216 169 64 41 25 12 18 2 2 0 0 0 0 0 33 332 1032 1156 1257 1651 1254 1038
0 39 180 440 582 677 792 815 795 824 879 923 985 1008 898 785 707 484 345 236 164 102 41 3 0 0 0 0 0 0 0 0 0 0 0 0 175 599 885 1246 1269 1164 1188
0 0 57 186 308 361 386 436 459 556 623 645 729 758 750 629 527 446 303 169 78 44 1 0 0 0 0 0 0 0 0 0 0 0 0 0 116 774 706 597 799 1014 1208
0 0 0 0 0 0 34 125 174 248 285 342 376 338 219 236 306 258 165 157 105 24 0 0 0 0 0 0 0 0 0 0 0 0 0 0 251 734 654 475 408 634 823
0 0 0 0 0 0 0 8 69 180 143 163 163 126 80 36 121 179 71 50 149 64 12 0 0 0 0 0 0 0 0 0 0 0 0 0 27 457 626 510 338 363 413
0 0 0 0 0 0 0 1 0 13 0 0 2 7 0 0 0 111 102 141 158 116 122 115 77 11 0 0 0 0 0 0 0 0 0 0 0 118 220 60 33 57 133
0 0 0 0 0 0 0 0 0 0 0 0 0 0 0 6 0 1 0 0 0 0 0 0 0 0 0 0 0 0 0 0 0 0 0 0 0 0 0 0 0 0 2
0 0 0 0 0 0 0 0 0 3 10 30 25 31 0 0 0 0 0 0 0 0 0 0 0 0 0 0 0 0 0 0 0 0 0 0 0 0 0 0 0 0 0
0 0 0 0 0 0 0 0 0 0 40 85 70 0 0 0 0 0 0 0 0 0 0 0 0 0 0 0 0 0 0 0 0 0 0 0 0 0 0 0 0 0 0
0 0 0 0 0 0 0 0 0 0 1 6 3 0 0 0 0 0 0 0 0 0 0 0 0 0 0 0 0 0 0 0 0 0 0 0 0 0 0 0 0 0 0
14 0 0 0 0 3 0 0 0 0 0 0 0 0 0 0 0 0 0 0 0 0 0 0 0 0 0 0 0 0 0 0 0 0 0 0 0 0 0 0 0 35 42
79 102 81 337 0 0 2 0 0 0 0 0 0 0 0 0 0 0 0 0 0 0 0 0 0 0 0 0 0 0 0 0 0 0 0 0 0 0 0 0 0 8 102
356 99 1 0 0 0 0 0 0 0 0 0 0 0 0 0 0 0 0 0 0 0 0 0 0 0 0 0 0 0 0 0 0 0 0 0 0 0 0 0 0 0 21
0 0 0 0 0 0 0 0 0 0 0 0 0 0 0 0 0 0 0 0 0 0 0 0 0 0 0 0 0 0 0 0 0 0 0 0 0 0 0 0 0 0 0
0 0 0 0 0 0 0 0 0 0 0 0 0 0 0 0 0 0 0 0 0 0 0 0 0 0 0 0 0 0 0 0 0 0 0 0 0 0 0 0 0 0 0
0 0 0 0 0 0 0 0 0 0 0 0 0 0 0 0 0 0 0 0 0 0 0 0 0 0 0 0 0 0 0 0 0 0 0 0 0 0 0 0 0 0 0
0 0 0 0 0 0 0 0 0 0 0 0 0 0 0 0 0 0 0 0 0 0 0 0 0 0 0 0 0 0 0 0 0 0 0 0 0 0 0 0 0 0 0
0 0 0 0 0 0 0 0 0 0 0 0 0 0 0 0 0 0 0 0 0 0 0 0 0 0 0 0 0 0 0 0 0 0 0 0 0 0 0 0 0 0 0
0 0 0 0 0 0 0 0 0 0 0 0 0 0 0 0 0 0 0 0 0 0 0 0 0 0 0 0 0 0 0 0 0 0 0 0 0 0 0 0 0 0 0
0 0 0 0 0 0 0 0 0 0 0 0 0 0 0 0 0 0 0 0 0 0 0 0 0 0 0 0 0 0 0 0 0 0 4 0 0 0 0 0 0 0 0

GFSSE_con_sbcape_036.txt.gz
CAPE
315 440 610 915 1041 984 845 807 967 1192 1243 1266 1147 1133 1079 1041 984 1060 1139 1309 1250 999 970 989 966 839 738 671 636 614 619 524 551 663 790 767 1434 956 1608 1828 1913 1561 1873
412 399 550 842 991 1007 976 1055 1365 1321 1173 900 869 957 976 876 773 743 818 898 1065 910 725 771 744 701 605 538 498 506 541 482 454 502 383 382 1207 985 1168 1657 1725 1716 1785
510 388 548 746 1025 1158 1365 1548 1506 1285 920 825 776 833 759 712 672 766 909 1000 870 652 639 546 380 262 174 172 160 213 268 239 268 268 161 3 432 1019 885 1379 1367 1653 1653
484 534 568 824 1068 1337 1407 1407 1353 1146 994 899 876 829 747 705 758 816 776 694 659 517 296 145 116 135 121 79 29 20 17 31 13 0 0 0 196 944 740 977 1181 1240 1294
636 735 828 856 938 1147 1308 1309 1309 1257 1161 1095 1024 851 839 806 669 575 660 638 438 134 84 57 40 20 10 8 1 0 0 0 0 0 0 0 195 624 1078 812 580 1045 1043
428 599 713 792 910 1087 1189 1262 1223 1178 1094 1082 1127 934 842 602 484 588 634 401 183 100 45 25 14 6 6 3 0 0 0 0 0 0 0 0 114 1070 1080 1433 1211 1104 1077
296 401 539 687 886 1083 1077 1049 1128 1096 1095 1150 1138 1002 659 523 559 593 405 182 112 45 13 3 0 0 0 0 0 0 0 0 0 0 0 0 1 838 1017 1084 1574 1199 1048
202 211 410 631 779 917 1024 981 925 965 985 978 925 853 734 682 635 370 200 106 41 5 0 0 0 0 0 0 0 0 0 0 0 0 0 0 9 833 922 868 1293 1150 1081
2 47 143 286 474 575 603 598 623 666 684 723 736 710 692 560 477 368 176 76 17 10 0 3 0 0 0 0 0 0 0 0 0 0 0 0 298 607 579 434 775 917 1117
0 0 0 10 29 33 152 246 315 392 408 421 462 374 304 238 176 82 37 34 1 11 91 127 57 24 5 0 0 0 0 0 0 0 0 0 1 43 389 644 441 412 437
0 0 0 0 0 0 0 52 201 269 256 245 249 155 76 0 23 63 12 13 137 106 118 178 171 67 18 0 0 0 0 0 0 0 0 0 0 0 54 327 497 247 211
0 0 0 0 0 0 0 0 0 4 9 3 10 8 0 0 0 31 52 53 135 53 45 13 0 0 0 0 0 0 0 0 0 0 0 0 0 0 0 26 365 129 127
0 0 0 0 0 0 0 0 0 0 0 0 0 0 0 2 0 0 0 0 0 0 0 0 0 0 0 0 0 0 0 0 0 0 0 0 0 0 0 0 84 72 67
0 0 0 0 0 0 0 0 0 0 0 0 0 7 0 0 0 0 0 0 0 0 0 0 0 0 0 0 0 0 0 0 0 0 0 0 0 0 0 0 5 97 45
0 0 0 0 0 0 0 0 0 0 16 5 19 17 0 0 0 0 0 0 0 0 0 0 0 0 0 0 0 0 0 0 0 0 0 0 0 0 0 0 0 0 83
0 0 0 0 0 0 0 0 0 0 1 13 7 0 0 0 0 0 0 0 0 0 0 0 0 0 0 0 0 0 0 0 0 0 0 0 0 0 0 0 0 0 0
0 0 0 0 0 0 0 0 0 0 0 0 0 0 0 0 0 0 0 0 0 0 0 0 0 0 0 0 0 0 0 0 0 0 0 0 0 0 0 0 0 0 0
0 0 0 0 0 0 0 0 0 0 0 0 0 0 0 0 0 0 0 0 0 0 0 0 0 0 0 0 0 0 0 0 0 0 0 0 0 0 0 0 0 0 0
0 0 0 0 0 1 0 0 0 0 0 0 0 0 0 0 0 0 0 0 0 0 0 0 0 0 0 0 0 0 0 0 0 0 0 0 0 0 0 0 0 0 0
0 0 0 0 2 0 0 0 0 0 0 0 0 0 0 0 0 0 0 0 0 0 0 0 0 0 0 0 0 0 0 0 0 0 0 0 0 0 0 0 0 0 0
0 0 0 0 1 0 0 0 0 0 0 0 0 0 0 0 0 0 0 0 0 0 0 0 0 0 0 0 0 0 0 0 0 0 0 0 0 0 0 0 0 0 0
0 0 0 0 0 0 0 0 0 0 0 0 0 0 0 0 0 0 0 0 0 0 0 0 0 0 0 0 0 0 0 0 0 0 0 0 0 0 0 0 0 0 0
0 0 0 0 0 0 0 0 0 0 0 0 0 0 0 0 0 0 0 0 0 0 0 0 0 0 0 0 0 0 0 0 0 0 0 0 0 0 0 0 0 0 0
0 0 0 0 0 0 0 0 0 0 0 0 0 0 0 0 0 0 0 0 0 0 0 0 0 0 0 0 0 0 0 0 0 0 0 0 0 0 0 0 0 0 0
0 0 0 0 0 0 0 0 0 0 0 0 0 0 0 0 0 0 0 0 0 0 0 0 0 0 0 0 0 0 0 0 0 1 5 3 0 0 0 0 0 0 0
0 0 0 0 0 0 0 0 0 0 0 0 0 0 0 0 0 0 0 0 0 0 0 0 0 0 0 0 0 0 0 0 4 20 11 0 4 1 0 0 0 0 0

GFSSE_con_sbcape_039.txt.gz
CAPE
399 592 657 825 952 838 835 929 989 1085 1167 1144 1149 1159 1080 1011 975 1067 1141 1160 1047 697 766 704 634 585 546 497 483 463 433 395 413 410 439 603 1121 953 1291 1696 1458 1105 1594
549 597 651 751 929 839 953 1093 1125 1184 1145 976 955 950 936 848 767 761 837 1063 918 585 597 531 407 295 215 180 193 193 177 195 196 248 283 474 959 1022 817 1319 1500 1073 1491
644 571 742 789 1005 1052 1303 1338 1270 1198 932 777 796 773 707 650 727 838 888 758 554 477 207 75 78 81 65 41 22 18 13 18 0 3 26 498 957 1111 686 1442 1391 1370 1343
585 652 794 900 1163 1370 1425 1353 1221 1087 881 924 819 737 678 721 785 726 565 786 414 113 34 15 6 0 0 0 0 0 0 0 0 0 204 390 683 947 1033 800 754 839 1023
692 737 912 943 1203 1343 1371 1329 1239 1193 1089 1045 969 783 803 749 572 564 591 582 161 30 11 1 0 0 0 0 0 0 0 0 0 0 121 609 886 993 841 1082 871 1061 1141
617 759 738 813 1050 1290 1386 1335 1249 1164 1068 1053 1012 953 737 479 491 555 381 338 27 0 0 0 0 0 0 3 0 0 0 0 0 0 0 34 668 994 1030 1126 1273 1293 1230
622 777 938 730 938 1227 1313 1189 1155 1059 1024 1125 1119 958 573 486 510 294 145 77 5 0 0 0 0 0 0 6 0 0 0 0 0 0 0 8 315 884 797 757 1227 1216 1208
688 775 995 748 859 985 1085 1024 945 947 993 962 890 797 708 626 490 178 79 45 6 4 0 0 0 0 0 0 0 0 0 0 0 0 0 0 164 372 516 528 874 858 830
569 721 738 753 815 829 814 785 801 830 798 719 688 681 595 438 336 253 171 76 0 54 40 2 0 0 0 0 0 0 0 0 0 0 0 0 0 0 11 500 734 661 452
263 330 410 508 625 736 755 585 574 534 509 524 491 395 239 229 137 109 10 114 128 82 103 82 105 42 14 0 0 0 0 0 0 0 0 0 0 0 0 0 387 477 291
33 75 108 180 225 260 325 367 329 375 340 304 291 182 103 277 247 152 38 74 140 143 132 79 42 9 0 0 0 0 0 0 0 0 0 0 0 0 0 0 495 620 289
0 11 28 69 16 32 19 281 320 277 242 305 291 331 259 282 300 235 107 6 28 0 0 0 0 0 0 0 0 0 0 0 0 0 0 0 0 0 0 39 130 291 428
0 0 0 0 0 0 17 51 36 101 142 172 251 275 246 228 305 336 373 175 44 0 0 0 0 0 0 0 0 0 0 0 0 0 0 0 0 0 0 0 14 255 201
0 0 0 0 0 0 0 16 15 63 113 192 249 260 373 366 376 325 167 0 0 0 0 0 0 0 0 0 0 0 0 0 0 0 0 0 0 0 0 0 0 0 100
0 0 0 0 0 0 0 0 1 85 223 337 394 416 276 196 41 0 0 0 0 0 0 0 0 0 0 0 0 0 0 0 0 0 0 0 0 0 0 0 0 0 0
0 0 9 0 11 0 0 0 1 39 93 155 263 40 5 0 0 0 0 0 0 0 0 0 0 0 0 0 0 0 0 0 0 0 0 0 0 0 0 0 0 1 1
0 12 38 107 7 0 0 0 0 0 0 7 0 0 0 0 0 0 0 0 0 0 0 0 0 0 0 0 0 0 0 0 0 0 0 0 0 0 0 0 0 0 0
14 183 115 11 0 0 0 0 0 0 0 0 0 0 0 0 0 0 0 0 0 0 0 0 0 0 0 0 0 0 0 0 0 0 0 0 0 0 0 0 0 0 0
197 90 60 4 4 1 0 0 0 0 0 0 0 0 0 0 0 0 0 0 0 0 0 0 0 0 0 0 0 0 0 0 0 0 0 0 0 0 0 0 0 0 0
36 2 5 2 2 1 0 0 0 0 0 0 0 0 0 0 0 0 0 0 0 0 0 0 0 0 0 0 0 0 0 0 0 0 0 0 0 0 0 0 0 0 0
273 267 2 0 2 0 0 0 0 0 0 0 0 0 0 0 0 0 0 0 0 0 0 0 0 0 0 0 0 0 0 0 0 0 0 0 0 0 0 0 0 0 0
130 171 134 0 0 0 0 0 0 0 0 0 0 0 0 0 0 0 0 0 0 0 0 0 0 0 0 0 0 0 0 0 0 0 0 0 0 0 0 0 0 0 0
0 0 4 0 0 0 0 0 0 0 0 0 0 0 0 0 0 0 0 0 0 0 0 0 0 0 0 0 1 1 0 0 10 0 0 0 0 0 0 0 0 0 0
0 0 0 0 0 0 0 0 0 0 0 0 0 0 0 0 0 0 0 0 0 0 0 0 0 0 0 1 5 7 27 47 19 17 26 25 11 5 4 4 1 1 1
0 0 0 0 0 0 0 0 0 0 0 0 0 0 0 0 0 0 0 0 0 0 0 0 0 2 10 20 24 25 32 37 50 39 31 16 22 22 27 1 2 6 6
0 0 0 0 0 0 0 0 0 0 0 0 0 0 0 0 0 0 0 0 0 0 0 1 20 36 41 32 32 36 31 23 21 36 31 33 22 18 28 22 11 2 8

GFSSE_con_sbcape_042.txt.gz
CAPE
581 638 859 941 1013 955 958 1029 1060 1094 1112 1171 1185 1175 1094 922 949 1040 1049 978 837 643 471 495 434 396 316 284 245 202 176 160 199 292 469 832 1004 975 861 1131 1436 917 1335
737 646 715 971 1033 1020 1105 1166 1248 1200 1225 972 896 812 792 778 778 815 857 775 530 405 310 208 152 159 119 68 29 11 5 1 13 56 254 703 1222 861 781 903 1535 898 1309
745 689 779 822 1022 1144 1279 1358 1361 1159 908 776 751 706 671 738 813 845 605 542 311 69 43 42 25 0 0 0 0 0 0 0 0 48 196 330 835 1063 703 1090 1236 1076 924
614 769 819 780 1034 1358 1389 1375 1365 1186 929 904 777 683 698 805 688 524 516 532 170 10 0 0 0 0 0 0 0 0 0 0 0 39 229 482 604 1014 988 835 1140 881 838
798 924 1060 896 1045 1264 1350 1275 1313 1248 1196 1087 926 757 792 601 494 523 342 368 132 0 0 0 0 0 0 0 0 0 0 0 0 13 43 658 673 944 1009 671 636 905 900
969 1021 835 968 1017 1370 1321 1419 1356 1232 1114 1033 1018 851 519 467 487 341 250 294 3 0 0 0 0 0 0 0 0 0 0 0 0 0 0 114 627 833 737 723 1183 1074 1213
1000 1121 1217 933 1096 1325 1546 1429 1252 1137 1081 1080 1068 822 547 499 314 192 139 26 0 0 0 0 0 0 0 0 0 0 0 0 0 0 0 0 0 157 513 576 501 572 555
1086 1044 1059 955 1143 1271 1326 1141 967 986 1046 1004 881 835 676 511 324 72 0 0 0 0 0 0 0 0 0 0 0 0 0 0 0 0 0 0 1 0 0 324 821 535 391
1281 1248 1189 1088 970 877 820 780 792 865 815 707 694 706 557 436 339 236 213 22 17 24 13 0 0 1 6 0 0 0 0 0 0 0 0 0 0 0 0 0 113 488 393
1287 892 605 567 623 651 752 655 687 612 517 507 532 387 262 170 118 33 131 151 80 91 84 69 19 0 0 0 0 0 0 11 0 0 0 0 0 0 20 0 0 60 292
627 528 407 386 416 350 318 543 353 399 372 343 320 198 112 271 252 124 73 171 104 40 10 0 0 0 0 0 0 0 1 0 0 0 0 0 0 0 0 45 136 356 341
173 150 213 206 197 172 29 236 273 118 268 448 417 496 464 588 526 309 183 19 1 0 0 0 0 0 0 0 0 0 0 0 0 0 0 0 0 0 0 0 12 43 369
32 31 53 148 199 106 114 113 68 267 463 661 749 780 809 730 831 731 614 319 117 0 0 0 0 0 0 0 0 0 0 0 0 0 0 0 0 0 0 0 0 0 11
3 6 24 65 182 153 72 169 352 424 591 657 847 994 977 975 1087 1077 666 167 80 45 40 12 0 0 0 0 0 0 0 0 0 0 0 0 0 0 0 0 0 0 0
48 70 80 52 92 178 282 418 510 585 705 960 970 1165 1125 1162 849 457 241 120 45 3 0 0 0 0 0 0 0 0 0 0 0 0 0 0 0 0 0 0 0 0 1
150 215 304 276 229 264 340 413 338 238 456 645 888 539 209 294 280 236 108 1 0 0 0 0 0 0 0 0 0 0 0 0 0 0 0 0 0 0 0 0 0 0 0
251 455 487 502 330 281 193 58 19 8 59 118 256 154 154 246 206 35 0 0 0 0 0 0 0 0 0 0 0 0 0 0 0 0 0 0 0 0 0 0 0 0 0
212 572 560 359 265 107 8 0 0 0 0 4 31 43 6 0 0 0 0 0 0 0 0 0 0 0 0 0 0 0 0 0 0 0 0 0 0 0 0 0 0 0 0
400 673 528 430 223 10 0 0 0 0 0 0 0 0 0 0 0 0 0 0 0 0 0 0 0 0 0 0 0 0 0 0 0 0 0 0 0 0 0 0 0 0 0
686 734 568 506 1 1 3 0 0 0 0 0 0 0 0 0 0 0 0 0 0 0 0 0 0 0 0 0 0 0 0 0 0 1 0 0 0 0 0 0 0 0 0
511 586 516 189 11 0 65 0 0 0 0 0 0 0 0 0 0 0 0 0 0 0 0 0 0 0 0 0 0 0 0 0 26 16 5 4 0 1 0 4 1 1 0
590 664 568 671 618 277 51 1 0 0 0 0 0 0 0 0 0 0 0 0 0 0 0 0 0 0 0 0 8 1 0 0 0 19 15 8 8 4 1 3 13 12 10
881 972 805 502 167 2 0 0 0 0 0 0 0 0 0 0 0 0 0 0 0 0 0 0 0 0 2 1 15 30 18 6 11 14 26 22 16 9 13 15 22 23 24
395 204 4 0 0 0 0 0 0 16 21 1 0 0 0 0 0 0 0 0 0 0 1 5 7 21 24 34 30 36 54 60 34 26 39 34 10 7 12 18 26 22 33
0 0 0 0 0 0 0 0 12 11 0 0 0 0 0 0 0 0 0 0 0 16 34 52 59 64 66 72 74 40 45 30 45 63 83 46 28 36 38 28 33 26 30
0 0 0 0 0 0 0 0 0 0 0 0 2 1 1 0 0 1 4 8 29 50 64 76 86 73 74 73 66 55 39 22 26 26 60 52 45 29 39 29 26 39 52

GFSSE_con_sbcape_045.txt.gz
CAPE
468 381 765 913 943 974 990 1013 1050 1055 1152 1178 1136 1002 1054 941 964 939 878 721 590 439 415 358 274 213 96 34 9 13 5 19 64 128 379 913 934 743 680 1020 1130 506 1300
498 435 688 925 988 980 1064 1088 1079 1168 1177 902 863 808 897 858 883 744 622 493 381 275 194 156 62 2 0 0 0 0 0 0 34 138 276 799 1024 793 857 913 1320 757 1112
626 535 466 863 1023 1154 1234 1245 1227 1109 890 792 700 710 748 805 760 580 488 447 160 57 13 0 0 0 0 0 0 0 0 0 0 55 622 635 749 972 793 1372 1405 932 890
619 577 512 818 1092 1331 1356 1286 1176 989 831 787 717 700 752 642 526 467 284 397 142 0 0 0 0 0 0 0 0 0 0 0 84 346 183 183 553 868 698 690 1083 665 765
522 728 816 864 1201 1380 1331 1242 1087 1118 1146 909 827 737 582 435 461 272 208 311 32 0 0 0 0 0 0 0 0 0 0 0 65 26 30 63 430 711 693 531 508 684 675
901 1092 673 888 1148 1292 1283 1197 1145 1052 1074 1023 972 598 410 413 247 170 167 122 0 0 0 0 0 0 0 0 0 0 0 19 0 0 5 32 2 247 576 557 711 473 735
776 993 1055 856 1034 1086 1209 1122 1161 1064 1048 1077 849 690 461 262 133 138 35 9 0 0 0 0 0 0 0 0 0 0 0 0 0 0 0 0 0 0 0 293 584 477 353
946 904 969 829 894 1053 1157 1120 997 1034 1028 902 808 728 418 231 151 27 5 15 1 0 0 0 0 0 0 0 0 0 0 0 0 0 0 0 0 0 0 0 441 787 430
992 1154 1051 1056 985 827 732 715 751 811 763 679 712 598 459 400 321 251 163 26 16 20 0 31 4 0 0 0 0 0 0 14 0 0 4 0 0 0 0 0 10 107 195
931 906 545 610 601 643 716 614 657 588 494 517 458 301 177 116 102 160 213 142 64 62 93 52 1 0 0 0 0 0 0 18 0 0 30 0 0 0 0 0 0 0 382
577 389 369 344 388 405 502 645 441 489 429 362 209 188 27 68 69 145 96 180 33 10 0 0 0 0 0 0 0 0 0 0 0 0 4 0 0 0 0 0 0 0 15
323 257 282 307 292 192 66 253 181 62 141 315 322 306 567 485 591 380 203 132 0 0 0 0 0 0 6 13 4 0 0 0 0 0 0 0 0 0 0 0 0 0 0
69 64 113 196 207 65 145 165 72 178 513 688 695 731 855 582 723 609 744 493 397 16 125 24 45 34 1 0 0 0 0 0 0 0 0 0 0 0 0 0 0 0 2
0 0 40 152 214 148 81 77 272 392 560 657 981 962 889 1044 1120 867 651 387 260 168 195 110 69 0 0 0 0 0 0 0 0 0 0 0 0 0 0 0 0 0 0
24 34 12 78 168 371 438 586 664 693 787 1021 1022 1227 1286 1284 1036 896 545 361 215 83 60 37 10 0 0 1 0 0 0 0 0 0 0 0 0 0 0 0 0 0 0
125 199 132 188 320 573 753 756 652 618 723 1043 1139 847 665 704 767 662 527 184 51 5 1 0 0 0 0 0 0 0 0 0 0 0 0 0 0 0 0 0 0 0 0
357 391 470 540 529 610 325 93 88 108 122 257 444 470 442 553 605 377 91 2 0 0 0 0 0 0 0 0 0 0 0 0 0 0 0 0 0 0 0 0 0 0 0
641 706 649 535 654 418 115 4 4 9 0 40 133 100 13 3 0 0 0 0 0 0 0 0 0 0 0 0 0 0 0 0 0 0 0 0 1 0 0 0 0 0 0
747 917 766 754 606 31 0 2 0 0 0 0 0 0 0 0 0 0 0 0 0 0 0 0 0 0 0 0 0 0 0 0 0 0 0 1 8 3 7 0 2 0 0
688 1049 918 681 333 3 50 2 0 0 0 0 0 0 0 0 0 0 0 0 0 0 0 0 0 0 0 0 0 0 2 0 0 0 6 8 6 8 8 11 10 11 37
911 1089 760 343 104 440 554 20 0 0 0 0 0 0 0 0 0 0 0 0 0 0 0 0 0 0 0 0 0 0 0 0 2 2 1 12 8 9 14 15 21 17 20
998 886 644 503 550 759 501 106 13 1 0 0 0 0 0 0 0 0 0 0 0 0 0 0 0 0 0 2 0 2 1 0 0 1 4 6 31 5 13 16 25 32 36
616 717 719 792 526 242 4 5 7 0 0 0 0 0 0 0 0 0 0 0 0 0 0 0 3 7 9 17 24 15 13 12 15 9 3 1 45 41 27 25 25 28 34
1171 949 819 161 5 0 0 0 0 4 2 21 10 0 0 0 0 0 0 0 0 1 7 17 19 36 62 41 38 28 27 49 36 35 23 25 29 35 95 58 52 18 34
482 153 0 0 0 0 0 1 13 18 15 3 0 6 6 9 1 0 0 2 7 15 25 48 75 88 74 62 48 55 56 56 66 52 42 41 48 54 67 81 98 69 27
30 2 0 1 1 0 0 5 7 10 0 3 17 10 11 4 2 5 7 12 18 25 25 32 62 57 83 83 57 60 59 53 43 52 54 52 54 16 70 59 106 65 68

GFSSE_con_sbcape_048.txt.gz
CAPE
65 195 808 1095 1216 1205 1103 1058 987 997 1043 1081 1086 1119 1018 975 920 828 697 616 489 231 147 70 7 0 0 0 0 0 0 16 83 184 661 776 574 591 503 1033 748 429 1537
95 168 731 1010 1160 1164 1122 1033 1071 1024 1027 1002 994 964 962 942 830 741 573 459 323 36 1 0 0 0 0 0 0 1 6 73 150 237 478 845 817 572 722 1032 1098 1021 1290
166 206 389 856 1156 1217 1209 1248 1203 1112 954 699 862 905 934 756 637 510 392 289 136 0 0 0 0 0 0 0 0 0 23 160 219 330 343 317 452 616 541 1265 1053 1086 1003
239 171 302 883 1239 1332 1227 1179 1143 1031 903 858 837 833 642 538 448 203 282 178 73 0 0 0 0 0 0 0 0 0 17 108 147 248 119 386 267 871 456 703 981 288 686
371 289 602 914 1142 1259 1162 1133 1142 1134 949 899 843 584 436 306 137 134 262 140 46 0 0 0 0 0 0 0 0 4 5 0 64 22 3 1 0 392 536 462 302 390 568
594 527 568 871 1083 1172 1154 1183 1150 998 933 850 613 528 346 138 138 91 226 175 17 0 0 0 0 0 0 0 0 0 0 0 26 2 0 0 0 9 3 502 912 771 630
331 345 715 764 927 1167 1298 1231 1007 967 864 670 616 571 330 120 68 130 209 169 57 0 0 0 0 0 0 1 0 0 16 15 0 0 0 0 0 45 0 0 620 857 715
144 455 527 734 840 937 1034 954 847 825 678 663 634 491 344 253 179 175 169 140 86 34 0 0 0 0 0 0 0 0 0 36 0 3 6 0 101 103 63 44 289 219 326
354 548 744 833 798 663 618 607 599 530 478 570 551 411 348 292 233 212 217 198 133 84 20 0 0 0 0 0 0 0 0 30 0 3 3 0 113 33 8 25 73 244 420
349 380 787 806 802 579 527 498 407 334 368 359 254 179 93 82 137 171 170 174 122 71 28 0 0 0 0 0 0 0 0 0 0 0 0 0 12 0 0 0 0 0 222
272 581 548 454 528 531 553 461 369 394 357 247 149 98 4 0 17 102 112 191 78 0 0 0 0 0 0 3 10 0 0 0 0 0 0 0 0 0 0 0 0 2 4
190 206 284 374 379 431 270 323 220 135 83 83 76 49 87 492 261 136 92 161 48 6 3 0 0 0 10 0 0 3 0 0 0 0 0 0 0 0 0 0 0 4 11
92 109 210 339 343 225 55 242 46 98 425 616 655 671 731 746 461 165 318 123 73 11 18 0 9 12 8 0 0 0 0 0 0 0 0 0 0 0 0 0 0 1 5
32 103 187 283 459 326 112 125 94 393 680 614 876 836 834 803 808 770 603 473 345 17 95 35 33 8 0 0 6 5 0 2 0 0 0 0 0 0 0 0 0 0 0
7 86 138 251 339 335 655 671 516 641 666 650 695 759 685 950 753 728 441 376 82 1 0 0 0 0 0 0 0 0 0 0 0 0 0 0 0 0 0 0 0 0 0
21 48 94 193 500 772 565 502 276 223 443 658 630 592 660 697 571 476 192 2 0 0 0 0 0 0 0 0 0 0 0 0 0 0 0 0 0 0 0 0 0 0 0
126 109 213 364 670 417 119 3 1 7 38 114 215 155 49 31 0 0 0 0 0 0 0 0 0 0 0 0 0 0 0 0 0 0 0 0 0 4 0 0 0 0 0
239 259 366 539 433 85 0 0 0 0 0 0 2 0 0 0 0 0 0 0 0 0 0 0 0 0 0 0 0 0 0 0 0 0 0 0 0 0 2 0 0 0 0
487 503 551 604 239 66 0 0 0 0 0 0 0 0 0 0 0 0 0 0 0 0 0 0 0 0 0 0 0 0 0 0 0 0 0 0 0 0 0 0 37 54 2
863 705 748 391 125 0 3 3 0 0 0 0 0 0 0 0 0 0 0 0 0 0 0 0 0 0 0 0 0 0 0 0 0 0 0 7 13 0 0 0 0 0 51
1095 907 612 267 151 10 262 23 0 0 0 0 0 0 0 0 0 0 0 0 0 0 0 0 0 0 0 0 0 0 0 0 0 0 0 0 0 0 0 2 0 0 0
1065 763 617 479 203 290 498 18 1 0 0 0 0 0 0 0 0 0 0 0 0 0 0 0 0 0 0 0 0 0 0 0 0 0 0 0 0 0 0 0 0 0 0
1092 679 565 568 353 565 236 11 0 0 0 0 0 0 0 0 0 0 0 0 0 0 0 0 0 0 0 0 0 1 0 0 0 0 0 0 0 0 0 0 1 0 0
684 628 603 636 650 280 0 0 0 0 0 0 0 0 0 0 0 0 0 0 0 0 0 0 0 0 0 1 0 0 0 0 0 0 0 0 0 0 0 0 0 0 0
761 810 843 658 48 0 0 0 0 47 2 8 0 0 0 0 1 0 0 0 0 0 0 3 4 1 5 8 5 5 1 0 0 0 0 0 0 0 0 0 0 0 0
1119 787 82 0 0 0 0 12 27 49 1 0 0 0 0 6 4 1 2 0 0 0 0 0 0 0 4 14 11 10 14 5 0 1 0 0 0 0 0 1 0 0 0

GFSSE_con_sbcape_051.txt.gz
CAPE
245 735 1092 1318 1247 1169 1056 930 852 855 989 1031 985 918 856 757 614 555 460 329 219 0 0 0 0 0 0 0 0 0 0 8 121 392 672 553 569 428 438 872 772 704 1004
363 854 1110 1246 1146 1151 1077 1019 962 967 1009 961 941 855 753 625 465 359 270 188 8 0 0 0 0 0 0 0 0 0 0 148 177 318 621 447 447 541 477 763 795 890 1236
425 814 1039 1036 1129 1173 1171 1197 1121 1034 910 812 965 747 613 379 288 241 117 60 0 0 0 0 0 0 0 0 0 0 13 101 116 99 542 319 288 380 365 776 652 905 601
396 662 899 854 1027 1115 1154 1123 1009 945 873 914 654 515 411 208 196 45 13 35 0 0 0 0 0 0 0 0 0 0 13 34 179 497 148 30 113 465 382 296 344 180 90
174 530 857 878 1009 1011 1014 1098 1009 943 800 581 471 386 260 145 4 0 116 87 3 0 0 0 0 0 0 0 0 0 41 55 10 2 0 0 0 7 100 311 326 304 208
240 499 493 679 833 987 1164 1076 930 825 546 415 393 285 147 28 7 18 177 130 18 2 0 0 0 0 0 0 0 17 30 64 0 0 0 26 16 76 34 1 640 482 598
262 298 298 611 835 1066 1140 976 822 591 458 450 309 231 209 26 18 35 179 150 48 1 0 0 0 0 0 0 0 13 14 55 0 0 0 8 79 107 79 94 146 268 229
147 223 325 541 655 820 861 712 510 424 412 372 270 253 218 194 170 151 169 148 110 39 13 0 0 0 0 0 0 0 0 37 0 0 0 0 180 67 55 45 117 309 435
180 211 346 493 582 526 454 397 313 318 345 313 219 153 134 125 143 180 197 210 145 151 98 0 0 0 0 0 0 0 0 44 0 0 0 0 108 22 10 14 23 2 39
158 169 368 400 490 425 368 253 227 224 194 150 93 81 74 60 66 111 108 142 109 44 0 0 0 0 0 0 0 0 0 0 0 0 0 0 47 0 0 0 0 0 7
149 168 271 421 414 349 268 227 204 223 137 86 51 35 0 0 0 29 2 65 33 5 0 0 0 0 0 0 0 11 0 0 0 0 0 0 6 0 0 0 0 0 6
204 219 245 440 354 294 266 100 84 104 13 1 0 0 0 0 0 20 17 15 10 1 0 0 0 0 0 0 0 0 0 0 0 0 0 0 0 0 0 0 0 0 5
145 180 294 296 262 126 150 5 0 0 0 0 0 0 0 95 1 14 2 12 0 0 0 0 0 0 0 0 0 0 0 0 0 0 0 0 0 0 0 0 0 0 0
97 69 41 80 100 0 63 0 0 1 81 53 229 335 308 262 146 105 12 9 17 0 0 0 0 0 0 0 0 0 0 0 0 0 0 0 0 0 0 0 0 0 0
20 11 2 0 0 0 91 197 237 232 274 279 270 242 251 294 114 9 0 0 0 0 0 0 0 0 0 0 0 0 0 0 0 0 0 0 0 0 0 0 0 0 0
0 0 0 0 46 193 25 0 13 106 222 148 79 96 50 40 10 0 0 0 0 0 0 0 0 0 0 0 0 0 0 0 0 0 0 0 0 0 0 0 0 0 0
0 0 0 61 24 0 0 0 0 0 0 18 1 0 0 0 0 0 0 0 0 0 0 0 0 0 0 0 0 0 0 0 0 0 0 0 0 0 1 0 0 0 0
0 0 6 230 0 0 0 0 0 0 0 0 0 0 0 0 0 0 0 0 0 0 0 0 0 0 0 0 0 0 0 0 0 0 0 0 0 0 3 0 0 0 0
5 82 174 0 0 0 0 0 0 0 0 0 0 0 0 0 0 0 0 0 0 0 0 0 0 0 0 0 0 0 0 0 0 0 0 0 0 0 0 2 16 5 0
101 285 49 13 0 0 0 0 0 0 0 0 0 0 0 0 0 0 0 0 0 0 0 0 0 0 0 0 0 0 0 0 0 0 0 0 0 0 0 0 0 0 18
290 295 72 3 0 0 0 1 0 0 0 0 0 0 0 0 0 0 0 0 0 0 0 0 0 0 0 0 0 0 0 0 0 0 0 0 0 0 0 0 0 0 0
391 252 50 0 0 0 11 0 0 0 0 0 0 0 0 0 0 0 0 0 0 0 0 0 0 0 0 0 0 0 0 0 0 0 0 0 0 0 0 0 0 0 0
355 178 153 44 2 1 82 0 0 0 0 0 0 0 0 0 0 0 0 0 0 0 0 0 0 0 0 0 0 0 0 0 0 0 0 0 0 0 0 0 0 0 0
256 284 306 148 8 7 98 0 0 0 0 0 0 0 0 0 0 0 0 0 0 0 0 0 0 0 0 0 0 0 0 0 0 0 0 0 0 0 0 0 0 0 0
309 348 200 137 85 138 0 0 0 0 0 0 0 0 0 0 0 0 0 0 0 0 0 0 0 0 0 0 0 0 0 0 0 0 0 0 0 0 0 0 0 0 0
233 165 203 317 222 0 0 0 0 0 0 0 0 0 0 0 0 0 0 0 0 0 0 0 0 0 0 0 0 0 0 0 2 1 0 0 0 0 0 0 0 0 0

GFSSE_con_sbcape_054.txt.gz
CAPE
628 836 983 1177 1162 1022 932 882 866 859 896 889 819 689 600 472 323 253 127 20 0 0 0 0 0 0 0 0 0 0 0 43 552 632 542 421 451 244 287 579 724 526 714
709 883 969 1108 1131 1043 1035 998 980 949 943 729 787 599 431 344 249 119 16 0 0 0 0 0 0 0 0 0 0 0 0 37 256 563 568 406 345 319 244 350 695 419 494
806 949 945 968 1020 1075 1075 1147 1106 1046 930 519 411 408 329 213 122 57 25 32 14 0 0 0 0 0 0 0 0 41 196 142 266 684 510 53 66 218 166 263 383 56 54
673 934 820 856 960 1057 1104 1126 1028 993 751 670 356 229 235 96 63 0 1 50 54 0 0 0 0 0 0 0 0 111 275 482 496 5 0 0 1 45 46 61 100 117 46
717 771 823 717 804 1073 1031 908 1014 979 711 552 346 259 190 66 8 4 52 103 68 0 0 0 0 0 0 0 0 8 10 0 0 0 0 0 0 29 46 31 27 39 43
848 795 608 674 806 995 957 989 924 651 504 385 280 231 151 40 52 39 157 134 25 0 0 0 0 0 0 0 0 0 0 0 0 0 0 38 15 73 73 85 90 83 150
549 528 459 593 781 850 939 997 689 524 434 305 270 228 193 84 57 78 189 135 75 0 0 0 0 0 0 0 0 0 4 0 0 0 0 14 67 88 65 56 55 82 116
55 105 200 320 451 609 870 633 452 448 337 272 258 226 238 205 137 141 145 126 106 31 12 0 0 0 0 0 0 0 0 0 0 0 0 0 123 45 28 12 27 28 63
94 118 125 195 297 522 489 366 347 312 230 227 213 194 166 150 171 181 163 143 107 76 8 0 0 0 0 0 0 0 0 0 0 0 0 0 109 2 0 0 0 0 4
17 37 174 316 347 379 320 270 251 215 146 142 128 97 80 82 96 118 87 113 103 25 0 0 0 0 0 0 0 0 0 0 0 0 0 0 38 0 0 0 0 0 2
138 41 174 149 285 344 226 232 218 167 112 88 75 45 1 0 0 12 1 36 20 0 0 0 0 0 0 0 0 0 0 0 0 0 0 0 2 0 0 0 0 0 1
80 168 184 200 353 263 224 143 104 64 21 4 0 0 0 0 0 1 0 0 0 0 0 0 0 0 0 0 0 0 0 0 0 0 0 0 0 0 0 0 0 0 0
86 117 148 258 256 203 107 37 36 3 0 0 0 0 0 0 0 0 0 0 0 0 0 0 0 0 0 0 0 0 0 0 0 0 0 0 0 0 0 0 0 0 0
69 113 275 249 164 89 12 0 0 0 0 0 1 0 0 1 0 0 0 0 0 0 0 0 0 0 0 0 0 0 0 0 0 0 0 0 0 0 0 0 0 0 0
95 104 225 221 25 7 6 1 1 48 100 121 100 94 39 9 0 0 0 0 0 0 0 0 0 0 0 0 0 0 0 0 0 0 0 0 0 0 0 0 0 0 0
33 7 51 87 1 47 32 88 58 111 58 2 0 1 0 0 0 0 0 0 0 0 0 0 0 0 0 0 0 0 0 0 0 0 0 0 0 0 0 0 0 0 0
16 22 7 44 29 5 1 0 0 0 0 0 0 0 0 0 0 0 0 0 0 0 0 0 0 0 0 0 0 0 0 0 0 0 0 0 0 0 3 0 0 0 0
18 17 131 25 0 0 0 0 0 0 0 0 0 0 0 0 0 0 0 0 0 0 0 0 0 0 0 0 0 0 0 0 0 0 0 0 0 0 0 11 0 0 0
5 0 22 0 0 0 0 0 0 0 0 0 0 0 0 0 0 0 0 0 0 0 0 0 0 0 0 0 0 0 0 0 0 0 0 0 0 0 0 0 0 8 0
0 55 0 0 0 0 0 0 0 0 0 0 0 0 0 0 0 0 0 0 0 0 0 0 0 0 0 0 0 0 0 0 0 0 0 0 0 0 0 0 0 0 0
42 19 0 0 0 0 0 0 0 0 0 0 0 0 0 0 0 0 0 0 0 0 0 0 0 0 0 0 0 0 0 0 0 0 0 0 0 0 0 0 0 0 0
185 65 0 0 0 0 0 0 0 0 0 0 0 0 0 0 0 0 0 0 0 0 0 0 0 0 0 0 0 0 0 0 0 0 0 0 0 0 0 0 0 0 0
217 79 9 0 0 0 0 0 0 0 0 0 0 0 0 0 0 0 0 0 0 0 0 0 0 0 0 0 0 0 0 0 0 0 0 0 0 0 0 0 0 0 0
186 62 11 0 0 0 0 0 0 0 0 0 0 0 0 0 0 0 0 0 0 0 0 0 0 0 0 0 0 0 0 0 0 0 0 0 0 0 0 0 0 0 0
86 51 10 0 0 0 0 0 0 0 0 0 0 0 0 0 0 0 0 0 0 0 0 0 0 0 0 0 0 0 0 0 0 0 0 0 0 0 0 0 0 0 0
217 120 58 37 1 0 0 0 0 0 0 0 0 0 0 0 0 0 0 0 0 0 0 0 0 0 0 0 0 0 0 0 0 0 1 0 0 0 0 0 0 0 0

GFSSE_con_sbcape_057.txt.gz
CAPE
723 1026 1072 1152 984 861 826 823 820 821 831 805 720 545 340 243 134 52 16 0 0 0 0 0 0 0 0 0 0 0 300 434 462 403 385 245 148 158 134 128 117 106 467
907 968 1004 1052 995 925 963 913 928 945 834 376 350 344 279 164 73 39 74 59 5 0 0 0 0 0 0 0 0 0 84 508 498 518 289 182 99 109 85 4 203 0 1
1032 1026 1054 971 1039 988 999 979 1031 972 542 267 182 224 208 116 103 121 120 106 36 0 0 0 0 0 39 295 467 135 248 544 381 363 109 0 0 0 19 2 31 1 1
1168 1038 981 953 969 1008 975 1009 1040 942 500 301 199 157 118 69 48 53 79 122 48 0 0 0 0 0 0 64 286 492 350 36 18 0 0 0 0 19 0 0 0 0 0
1076 895 994 809 881 1016 1059 1020 1041 923 610 340 250 184 74 68 43 74 188 119 75 0 0 0 0 0 0 0 0 3 0 0 0 0 0 0 0 26 33 47 36 36 25
1059 993 652 613 831 978 1130 1113 944 744 454 325 251 223 128 61 80 121 201 154 91 0 0 0 0 0 0 0 0 0 0 0 0 0 0 1 0 22 0 1 22 30 47
936 780 395 454 700 989 1112 1045 778 596 413 349 287 243 257 211 181 245 239 193 115 33 0 0 0 0 0 0 0 0 0 0 0 0 0 0 0 0 0 0 0 1 28
156 199 284 398 358 527 678 679 529 452 400 348 284 278 310 286 267 256 258 232 204 113 52 0 0 3 0 0 0 0 0 0 0 0 0 0 0 0 1 0 0 0 0
18 14 59 115 128 206 370 493 431 375 365 338 312 281 252 201 203 229 240 237 191 143 97 19 0 1 0 0 0 0 0 0 0 0 0 0 21 0 0 0 0 0 0
44 49 43 49 165 263 337 384 335 300 283 255 239 202 145 147 178 196 199 200 175 121 31 9 0 0 6 0 0 0 0 0 0 0 0 0 22 0 0 0 0 0 0
23 4 6 156 221 176 287 323 259 235 188 149 123 76 24 13 4 0 45 75 91 44 61 41 1 0 0 0 0 0 0 0 0 0 0 0 0 0 0 0 0 0 0
20 27 29 123 110 250 260 211 104 101 54 28 14 2 0 0 0 1 21 43 29 12 9 0 0 0 0 0 0 0 0 0 0 0 0 0 0 0 0 0 0 0 0
8 110 183 175 169 202 176 97 68 23 7 1 0 0 0 0 1 0 0 0 0 0 0 0 0 0 0 0 0 0 0 0 0 0 0 0 0 0 0 0 0 0 0
42 72 121 248 224 117 34 32 21 0 0 0 0 0 0 0 0 0 0 0 0 0 0 0 0 0 0 0 0 0 0 0 0 0 0 0 0 0 0 0 0 0 0
86 72 90 169 112 6 0 0 0 0 0 3 23 8 0 0 0 0 0 0 0 0 0 0 0 0 0 0 0 0 0 0 0 0 0 0 0 0 0 0 0 1 1
96 89 247 232 2 0 0 0 3 16 63 23 7 2 0 0 0 0 0 0 0 0 0 0 0 0 0 0 0 0 0 0 0 0 0 0 0 2 0 0 0 0 1
110 75 179 53 18 36 17 14 11 21 0 0 0 0 0 0 0 0 0 0 0 0 0 0 0 0 0 0 0 0 0 0 0 0 0 0 0 0 2 0 0 0 0
23 23 39 79 14 9 1 0 0 0 0 0 0 0 0 0 0 0 0 0 0 0 0 0 0 0 0 0 0 0 0 0 0 0 0 0 0 0 0 0 0 0 0
4 13 51 10 0 0 0 0 0 0 0 0 0 0 0 0 0 0 0 0 0 0 0 0 0 0 0 0 0 0 0 0 0 0 0 0 0 0 0 0 0 0 0
1 46 1 0 0 0 0 0 0 0 0 0 0 0 0 0 0 0 0 0 0 0 0 0 0 0 0 0 0 0 0 0 0 0 0 0 0 0 0 0 0 0 0
0 0 0 0 0 0 0 0 0 0 0 0 0 0 0 0 0 0 0 0 0 0 0 0 0 0 0 0 0 0 0 0 0 0 0 0 0 0 0 0 0 0 0
0 0 0 0 0 0 0 0 0 0 0 0 0 0 0 0 0 0 0 0 0 0 0 0 0 0 0 0 0 0 0 0 0 0 0 0 0 0 0 0 0 0 0
4 0 0 0 0 0 0 0 0 0 0 0 0 0 0 0 0 0 0 0 0 0 0 0 0 0 0 0 0 0 0 0 0 0 0 0 0 0 0 0 0 0 0
26 26 24 0 0 0 0 0 0 0 0 0 0 0 0 0 0 0 0 0 0 0 0 0 0 0 0 0 0 0 0 0 0 0 0 0 0 0 0 0 0 0 0
34 19 0 0 0 0 0 0 0 0 0 0 0 0 0 0 0 0 0 0 0 0 0 0 0 0 0 0 0 0 0 0 0 0 0 0 0 0 0 0 0 0 0
6 0 0 0 0 0 0 0 0 0 0 0 0 0 0 0 0 0 0 0 0 0 0 0 0 0 0 0 0 0 0 0 0 0 0 0 0 0 0 0 0 0 0

GFSSE_con_sbcape_060.txt.gz
CAPE
949 825 913 1029 938 831 727 678 683 693 734 740 559 448 341 176 80 65 45 31 18 0 0 0 0 0 0 27 350 336 432 502 491 445 151 60 47 22 3 0 0 0 18
1043 918 920 1018 995 896 878 806 812 788 755 519 359 264 169 105 115 144 100 57 26 0 0 0 0 83 26 8 192 487 429 437 339 209 44 0 0 3 2 0 85 0 0
1175 995 986 952 1051 1017 1017 993 903 790 531 219 124 162 137 146 205 207 108 47 28 1 0 120 322 373 300 115 407 500 203 154 47 5 0 0 0 0 0 0 2 0 0
1179 1010 981 1014 1063 1098 1079 1036 860 599 391 287 211 121 147 194 225 165 109 60 56 44 0 40 125 328 350 541 456 191 0 0 0 0 0 0 0 0 0 1 1 1 1
1204 1052 993 986 1001 1115 1132 1010 825 547 400 279 201 129 135 234 221 110 181 77 81 41 0 0 0 20 116 126 120 125 8 0 0 0 0 0 0 1 0 0 1 3 5
1131 956 826 862 906 1115 1281 1122 820 513 347 286 242 237 174 256 194 226 225 143 132 68 0 0 0 0 1 0 0 0 0 0 0 0 0 0 0 4 2 0 0 1 5
977 725 579 623 795 1238 1302 1054 700 525 389 331 307 275 289 331 294 316 262 204 131 131 19 0 3 22 8 0 0 0 0 0 0 0 0 0 0 2 1 0 0 0 1
483 319 342 497 491 511 428 696 556 507 450 383 361 381 388 362 307 298 274 226 181 113 65 44 4 0 0 0 0 0 0 0 0 0 0 0 2 2 3 0 0 0 0
161 53 58 157 160 98 263 479 436 444 395 365 387 390 374 326 271 257 242 225 203 155 120 91 43 0 0 0 0 0 0 0 0 0 0 0 9 1 2 0 0 0 0
54 11 17 29 31 86 195 354 319 364 347 343 360 268 202 207 213 193 224 269 214 148 110 14 3 0 0 0 0 0 0 0 0 0 0 0 14 8 2 0 0 0 0
7 3 7 43 101 39 56 311 296 354 303 261 226 162 57 39 29 0 125 160 161 128 8 0 0 0 0 0 0 0 0 0 0 0 0 6 10 10 5 0 0 0 0
5 8 0 27 49 100 236 198 143 171 75 64 44 3 3 0 0 3 42 92 86 0 0 0 0 0 0 0 0 0 0 0 0 0 0 0 0 1 3 0 0 0 0
1 6 11 36 62 202 186 87 46 25 29 17 5 0 0 1 0 0 0 0 0 0 0 0 0 0 0 0 0 0 0 0 0 0 0 0 0 0 7 0 2 0 0
6 3 5 52 150 157 90 62 26 2 2 0 0 0 0 0 0 0 0 0 0 0 0 0 0 0 0 0 0 0 0 0 0 0 0 0 0 0 3 1 7 8 3
18 40 23 159 179 75 40 7 4 0 0 0 0 0 0 0 0 0 0 0 0 0 0 0 0 0 0 0 0 0 0 0 0 0 0 0 0 0 1 5 3 10 6
55 53 66 168 80 17 0 0 0 0 0 0 3 0 0 0 0 0 0 0 0 0 0 0 0 0 0 0 0 0 0 0 0 0 0 0 0 5 0 0 0 0 0
73 114 146 147 7 1 0 0 0 3 4 6 5 0 0 0 0 0 0 0 0 0 0 0 0 0 0 0 0 0 0 0 0 0 0 0 0 0 0 0 0 0 0
38 75 152 105 28 6 0 0 0 0 0 0 0 0 0 0 0 0 0 0 0 0 0 0 0 0 0 0 0 0 0 0 0 0 0 0 0 0 0 0 0 0 0
5 7 29 19 3 0 0 0 0 0 0 0 0 0 0 0 0 0 0 0 0 0 0 0 0 0 0 0 0 0 0 0 0 0 0 0 0 0 0 0 0 0 0
0 0 0 0 0 0 0 0 0 0 0 0 0 0 0 0 0 0 0 0 0 0 0 0 0 0 0 0 0 0 0 0 0 0 0 0 0 0 0 0 0 0 0
0 0 0 0 0 0 0 0 0 0 0 0 0 0 0 0 0 0 0 0 0 0 0 0 0 0 0 0 0 0 0 0 0 0 0 0 0 0 0 0 0 0 0
0 0 0 0 0 0 0 0 0 0 0 0 0 0 0 0 0 0 0 0 0 0 0 0 0 0 0 0 0 0 0 0 0 0 0 0 0 0 0 0 0 0 0
0 1 0 0 0 0 0 0 0 0 0 0 0 0 0 0 0 0 0 0 0 0 0 0 0 0 0 0 0 0 0 0 0 0 0 0 0 0 0 0 0 0 0
3 3 0 0 0 0 0 0 0 0 0 0 0 0 0 0 0 0 0 0 0 0 0 0 0 0 0 0 0 0 0 0 0 0 0 0 0 0 0 0 0 0 0
0 0 0 0 0 0 0 0 0 0 0 0 0 0 0 0 0 0 0 0 0 0 0 0 0 0 0 0 0 0 0 0 0 0 0 0 0 0 0 0 0 0 0
0 0 0 0 0 0 0 0 0 0 0 0 0 0 0 0 0 0 0 0 0 0 0 0 0 0 0 0 0 0 0 0 0 0 0 0 0 0 0 0 0 0 0

GFSSE_con_sbcape_063.txt.gz
CAPE
872 689 976 1137 1046 912 837 812 812 858 891 851 677 398 189 97 57 82 64 77 65 39 5 12 59 334 404 249 313 341 367 367 259 216 29 0 0 0 0 0 0 0 1
955 720 908 1076 1026 937 910 874 874 858 802 641 446 204 116 109 117 137 107 63 142 35 30 84 73 98 358 295 289 288 208 225 96 6 0 0 0 0 0 0 0 0 0
959 697 895 980 1077 1037 1074 1039 1006 856 572 242 199 200 167 208 168 121 107 138 224 205 411 465 314 97 389 394 330 165 0 0 0 0 0 0 1 2 3 1 1 0 0
1041 826 884 950 1070 1128 1077 986 855 649 404 270 253 264 259 244 157 140 154 173 374 656 553 506 325 297 465 259 178 87 0 0 0 0 0 0 0 3 3 4 5 7 5
1171 915 943 946 1007 1071 1008 848 671 532 328 247 255 329 286 245 178 187 142 157 212 336 321 490 517 466 218 192 184 142 0 0 0 0 0 0 2 2 0 0 0 1 6
1233 923 741 778 976 1148 1090 842 599 392 242 197 260 332 312 266 246 202 155 120 156 245 97 315 220 20 72 66 64 1 0 0 0 0 0 0 6 8 0 0 0 2 3
1141 982 988 640 806 1268 1147 862 528 334 263 244 288 343 312 327 318 257 207 159 157 169 115 74 26 16 0 12 0 0 0 0 0 0 0 4 9 4 0 0 0 0 3
1077 737 701 540 737 524 674 589 378 326 313 314 328 381 367 367 322 266 215 191 147 82 56 77 40 19 0 0 0 0 0 0 0 0 0 5 6 3 1 0 0 0 1
373 193 259 210 147 151 368 289 260 321 309 364 387 407 342 301 287 225 175 170 176 142 67 25 4 0 0 0 0 0 0 0 0 0 0 11 13 6 1 0 0 0 0
173 95 66 10 0 87 147 207 240 272 286 278 273 253 198 220 222 243 182 184 200 204 140 16 7 0 0 0 0 0 0 0 0 0 0 9 17 19 4 0 0 0 0
37 38 11 5 39 39 170 179 274 262 239 191 198 158 109 120 78 45 119 184 85 19 0 0 0 0 0 0 0 0 0 0 0 0 0 10 1 4 5 0 0 0 0
2 4 11 3 11 2 146 185 252 225 162 142 108 76 62 94 120 51 81 88 2 0 0 0 0 0 0 0 0 0 0 0 0 0 0 0 0 2 1 0 1 0 0
5 1 0 0 41 43 126 236 165 121 109 83 56 42 53 95 141 70 37 0 0 0 0 0 0 0 0 0 0 0 0 0 0 0 0 0 0 0 5 1 4 4 0
6 8 0 0 0 218 226 163 83 38 40 48 40 43 108 86 116 48 3 0 0 0 0 0 0 0 0 0 0 0 0 0 0 0 0 0 0 0 10 4 6 1 4
6 3 0 2 129 207 165 142 65 40 24 52 44 63 164 111 106 0 0 0 0 0 0 0 0 0 0 0 0 0 0 0 0 0 0 0 0 0 6 5 4 9 0
3 12 2 74 241 208 171 93 29 17 13 11 61 96 206 141 3 0 0 0 0 0 0 0 0 0 0 0 0 0 0 0 0 0 0 0 0 0 0 0 0 0 0
13 3 1 168 318 231 94 40 8 1 14 8 52 142 121 1 0 0 0 0 0 0 0 0 0 0 0 0 0 0 0 0 0 0 0 0 0 0 0 0 0 0 0
28 73 91 183 268 183 28 2 5 28 165 267 308 94 0 0 0 0 0 0 0 0 0 0 0 0 0 0 0 0 0 0 0 0 0 0 0 0 0 0 0 0 0
124 147 211 306 292 240 37 6 56 156 216 129 24 2 0 0 0 0 0 0 0 0 0 0 0 0 0 0 0 0 0 0 0 0 0 0 0 0 0 0 0 0 0
160 188 311 359 278 96 11 2 57 73 17 2 6 0 0 0 0 0 0 0 0 0 0 0 0 0 0 0 0 0 0 0 0 0 0 0 0 0 0 0 0 0 0
156 186 256 233 146 21 1 3 1 28 2 0 0 0 0 0 0 0 0 0 0 0 0 0 0 0 0 0 0 0 0 0 0 0 0 0 0 0 0 0 0 0 0
86 184 202 214 55 54 51 17 14 13 0 0 0 0 0 0 0 0 0 0 0 0 0 0 0 0 0 0 0 0 0 0 0 0 0 0 0 0 0 0 0 0 0
100 162 187 211 112 73 69 3 0 0 0 0 0 0 0 0 0 0 0 0 0 0 0 0 0 0 0 0 0 0 0 0 0 0 0 0 0 0 0 0 0 0 0
168 151 164 161 84 45 9 18 0 29 0 0 0 0 0 0 0 0 0 0 0 0 0 0 0 0 0 0 0 0 0 0 0 0 0 0 0 0 1 3 1 0 0
138 147 184 118 57 18 0 7 3 0 0 0 0 0 0 0 0 0 0 0 0 0 0 0 0 0 0 0 0 0 0 0 0 0 0 0 5 9 14 14 5 1 0
64 124 142 101 46 2 2 0 0 0 0 0 0 0 0 0 0 0 0 0 0 0 0 0 0 0 0 0 0 0 0 0 0 0 1 1 6 4 6 10 14 2 0

GFSSE_con_sbcape_069.txt.gz
CAPE
991 987 1353 1687 1573 1458 1319 1224 1087 963 1004 929 707 487 350 323 318 312 353 391 688 913 572 385 407 276 119 136 103 77 172 124 0 0 0 2 1 0 0 30 13 1 4
957 1026 1290 1638 1595 1498 1403 1264 1151 1107 1024 790 517 332 269 254 250 334 408 690 898 926 524 371 295 103 44 49 0 0 0 66 98 171 132 0 3 6 7 9 12 6 8
1110 1071 1590 1478 1576 1535 1468 1373 1300 1186 919 620 398 327 294 256 328 440 472 604 726 917 520 307 75 0 0 0 69 0 0 0 0 226 168 1 1 3 4 3 85 19 11
1173 1132 1640 1304 1457 1476 1360 1305 1214 995 668 450 409 364 356 327 473 534 599 568 622 837 554 288 29 0 9 71 47 0 0 0 9 63 28 10 0 0 2 4 0 1 18
1150 886 1567 1181 1243 1344 1259 1168 952 660 439 398 405 466 415 531 646 967 1063 1019 841 868 729 163 30 42 99 207 135 52 0 6 38 13 6 3 0 0 0 0 2 0 1
696 899 866 937 1097 1197 1117 980 629 457 396 399 381 441 593 638 868 938 1072 1071 1006 1026 713 89 82 112 187 133 53 0 0 4 25 18 23 3 0 0 0 1 4 6 7
589 938 1072 839 1047 1113 1067 702 424 428 462 419 393 468 519 477 523 555 757 1040 1039 996 320 113 120 68 109 44 0 0 0 0 3 19 12 3 2 0 0 0 1 2 4
388 669 908 820 963 922 694 380 318 390 408 349 420 418 406 348 349 388 441 584 475 348 291 234 175 57 9 0 0 0 0 0 3 7 17 1 1 0 0 0 0 1 2
572 654 353 603 541 246 156 168 179 294 305 324 365 317 278 264 248 272 302 335 290 231 221 153 81 16 0 0 0 0 0 0 2 5 11 2 0 0 0 0 0 1 1
527 293 69 0 25 14 82 118 159 198 202 220 212 187 192 187 211 224 217 240 237 206 149 30 32 0 0 0 0 0 0 0 0 5 1 2 6 5 0 0 0 0 0
34 8 3 5 8 13 2 169 227 235 155 156 139 124 75 48 22 56 182 194 188 122 78 8 0 0 0 0 0 0 0 0 0 0 0 9 13 14 4 0 0 0 0
11 10 5 1 0 0 12 17 157 196 125 121 90 98 67 147 106 72 115 100 70 8 0 0 0 0 0 0 0 0 0 0 0 0 0 0 5 12 2 1 0 0 0
16 15 16 11 3 13 12 52 30 82 68 186 211 179 169 229 238 137 55 3 0 0 0 0 0 0 0 0 0 0 0 0 0 0 0 0 0 5 3 2 0 0 0
11 17 23 19 31 35 58 45 55 49 96 204 215 342 410 329 269 119 42 19 0 0 0 0 0 0 0 0 0 0 0 0 0 0 0 0 0 0 10 9 2 0 0
12 18 25 26 37 29 38 0 2 117 144 216 267 372 350 365 496 207 172 38 2 0 0 0 0 0 0 0 0 0 0 0 0 0 0 0 0 0 7 0 2 0 0
9 10 23 26 32 4 0 0 1 98 87 164 241 267 508 413 475 287 204 63 3 0 0 0 0 0 0 0 0 0 0 0 0 0 0 0 0 0 0 0 0 0 0
11 25 10 16 2 7 14 95 195 205 174 104 114 405 324 338 354 288 155 43 0 0 0 0 0 0 0 0 0 0 0 0 0 0 0 0 0 0 0 0 0 0 0
2 2 2 0 3 58 120 186 252 145 172 143 178 260 359 469 473 296 59 0 1 0 0 0 0 0 0 0 0 0 0 0 0 0 0 0 0 0 0 0 0 0 0
25 0 0 4 61 239 308 331 193 297 71 27 163 420 662 702 478 284 119 71 0 0 0 0 0 0 0 0 0 0 0 0 0 0 0 0 0 0 0 0 0 0 0
15 4 50 201 287 457 589 284 100 107 100 141 379 535 710 722 452 274 183 31 0 0 0 0 0 0 0 0 0 0 0 0 0 0 0 0 0 0 0 0 0 0 0
16 0 66 265 376 487 424 280 89 39 75 191 515 600 686 604 455 384 132 0 0 0 0 0 0 0 0 0 0 0 0 0 0 0 0 0 0 0 0 0 0 0 0
90 213 249 274 459 513 396 219 49 40 54 173 728 704 698 540 383 253 78 0 0 0 0 0 0 0 0 0 0 0 1 0 0 0 0 0 0 0 0 0 0 0 0
242 321 319 370 367 533 468 286 102 84 103 232 666 597 532 468 394 258 57 1 0 0 0 0 0 0 0 0 0 0 0 0 0 0 1 0 0 0 0 0 0 1 1
547 545 588 543 514 705 693 401 208 123 150 325 538 484 312 341 224 15 2 1 3 0 2 0 0 0 0 2 0 0 0 0 0 0 0 0 0 0 2 0 1 3 2
561 642 739 654 756 752 985 683 434 312 333 472 723 676 593 174 24 2 0 4 6 0 1 1 0 0 0 0 0 0 0 0 0 0 0 0 0 0 0 5 1 1 0
1188 1064 700 723 857 882 990 1036 885 678 623 529 932 689 520 117 5 0 0 3 11 0 4 1 0 0 0 0 0 0 0 0 0 0 0 0 0 0 0 0 0 0 0

GFSSE_con_sbcape_072.txt.gz
CAPE
1194 1341 1781 1738 1626 1400 1232 1142 1057 992 1023 925 777 702 681 697 714 650 716 799 928 819 416 181 159 0 0 0 0 12 91 73 75 88 9 8 4 5 1 39 14 4 13
945 1634 1687 1704 1670 1494 1333 1232 1158 1183 1088 908 719 627 581 579 579 629 884 970 891 787 271 33 0 0 0 0 0 18 146 173 129 101 0 4 14 16 35 29 36 14 16
1 1735 1896 1645 1662 1590 1500 1401 1412 1313 1090 838 678 566 539 587 624 880 982 943 814 502 95 0 0 0 0 0 7 44 32 78 116 159 6 0 0 14 7 9 36 23 17
802 1730 2029 1684 1636 1613 1471 1441 1402 1221 913 705 605 514 523 674 757 926 903 939 861 552 9 0 0 0 0 12 47 35 36 56 83 78 0 0 0 2 7 4 4 12 21
974 1575 1881 1484 1480 1469 1512 1384 1160 888 646 560 468 513 704 773 844 901 784 863 902 572 76 32 30 9 18 77 47 8 17 46 34 0 0 0 0 1 4 6 5 8 12
872 1460 1153 1258 1340 1434 1463 1217 927 676 537 479 453 667 842 1114 1253 1246 909 934 983 415 102 73 55 35 80 0 0 0 20 52 27 0 0 0 0 0 2 3 6 7 9
534 988 1119 937 1225 1317 1238 995 698 602 532 498 574 751 1082 1223 1304 1221 1058 955 671 336 220 113 59 39 35 0 0 0 1 7 0 0 0 0 0 0 0 0 2 6 9
313 158 326 592 807 672 752 588 535 539 488 505 601 607 702 764 958 1062 985 750 363 339 321 230 154 48 8 0 0 0 0 3 4 0 0 0 0 0 0 1 2 2 4
164 0 0 30 167 180 174 244 346 371 419 441 401 326 316 368 509 566 460 381 332 307 255 174 80 18 6 0 0 0 0 0 0 0 0 0 0 0 0 0 1 1 4
435 182 0 32 9 1 39 137 162 227 232 216 177 138 147 179 248 271 245 249 232 210 159 84 46 16 0 0 0 0 0 0 0 0 0 0 6 0 0 0 1 1 9
1 3 24 5 3 2 20 143 186 185 119 127 111 85 74 84 92 115 202 207 191 161 105 52 15 0 0 0 0 0 0 0 0 0 0 6 8 6 0 0 0 0 4
3 3 2 1 0 1 3 26 157 167 92 101 58 57 32 57 98 121 159 142 134 94 66 23 0 0 0 0 0 0 0 0 0 0 0 0 15 10 4 0 0 0 0
7 5 2 3 2 0 0 0 0 14 83 98 115 86 161 123 126 59 18 2 0 0 0 0 0 0 0 0 0 0 0 0 0 0 0 0 1 12 7 1 0 0 0
8 9 9 6 22 28 0 16 61 15 85 72 127 182 287 228 189 71 32 6 0 0 0 0 0 0 0 0 0 0 0 0 0 0 0 0 0 7 5 2 0 0 0
9 12 15 13 8 10 5 2 19 57 61 96 128 217 254 270 229 162 85 12 0 0 0 0 0 0 0 0 0 0 0 0 0 0 0 0 0 0 1 1 3 1 0
5 9 9 5 4 0 0 0 0 21 92 125 182 185 319 356 291 262 199 81 0 0 0 0 0 0 0 0 0 0 0 0 0 0 0 0 0 0 0 0 0 0 0
5 5 1 0 0 0 0 0 11 32 67 84 123 217 280 298 334 365 318 187 3 0 0 0 0 0 0 0 0 0 0 0 0 0 0 0 0 0 0 0 0 0 0
5 6 10 4 0 0 0 0 10 48 77 115 180 198 347 370 378 359 241 97 3 0 0 0 0 0 0 0 0 0 0 0 0 0 0 0 0 0 0 0 0 0 0
9 8 4 1 0 0 0 0 20 82 95 165 138 218 297 365 387 279 73 0 0 0 0 0 0 0 0 0 0 0 0 0 0 0 0 0 0 0 0 0 0 0 0
0 2 0 0 0 0 0 73 111 126 62 69 286 351 432 489 431 332 81 4 8 0 0 0 0 0 0 0 0 0 0 0 0 0 0 0 0 0 0 0 0 0 0
0 0 0 0 0 15 69 44 66 72 31 59 138 337 433 482 459 268 270 105 0 0 0 0 0 0 0 0 0 0 0 0 0 0 0 0 0 0 0 0 0 0 0
0 0 0 0 117 229 218 130 22 0 0 0 134 418 494 528 480 352 334 14 0 0 0 0 0 0 0 0 0 0 0 0 0 0 0 0 0 0 0 0 0 0 0
0 0 0 111 324 325 291 192 56 10 19 10 493 529 494 520 484 292 237 33 0 0 0 0 0 0 0 0 0 0 0 0 0 0 0 0 0 0 0 0 0 0 0
0 4 110 202 380 391 345 149 53 23 18 52 463 550 478 430 422 315 214 107 6 2 0 0 0 0 0 0 0 0 0 0 0 0 0 0 0 0 0 0 0 0 0
147 222 307 309 311 227 365 422 175 84 30 44 189 476 403 315 299 184 90 0 0 0 0 0 0 0 0 0 0 0 0 0 0 0 0 0 0 0 0 0 0 0 0
328 448 656 582 449 461 570 361 594 196 296 324 656 503 415 268 117 55 34 0 0 0 0 0 1 0 0 0 0 0 0 0 0 0 0 0 0 0 0 0 0 0 0

GFSSE_con_sbcape_075.txt.gz
CAPE
1 835 1636 1816 1698 1490 1371 1286 1169 1089 1060 1091 1066 1026 969 939 949 888 1036 878 809 371 19 0 15 0 0 0 0 33 52 44 23 7 7 8 24 27 15 7 12 3 13
10 0 165 1759 1723 1536 1473 1294 1227 1126 1124 1127 1070 1002 926 923 953 1134 1024 896 634 154 0 0 0 0 0 0 17 130 105 20 9 0 1 12 17 32 35 25 41 19 20
96 1 126 1447 1758 1669 1568 1513 1335 1232 1182 1129 1000 948 904 977 1171 1073 979 689 365 141 0 0 0 0 0 0 66 64 72 47 24 0 0 0 1 14 15 15 22 15 19
62 90 167 952 1387 1642 1526 1456 1301 1247 1101 973 929 933 980 1145 1201 1095 819 429 258 154 0 0 0 0 0 0 16 33 43 3 0 0 0 0 0 9 10 9 14 21 31
0 13 0 881 1212 1502 1454 1321 1109 1013 881 811 847 983 1142 1261 1250 1168 713 266 286 210 0 0 0 0 0 0 7 22 13 0 0 0 0 0 0 5 8 6 8 13 27
5 387 299 783 1109 1466 1518 1314 1008 862 723 709 858 1023 1211 1233 1204 1156 715 338 344 231 0 0 0 0 0 0 0 0 0 0 0 0 0 0 0 3 6 8 9 12 14
397 464 525 216 1043 1418 1488 1054 795 673 585 708 861 996 1176 1204 1091 1099 599 334 285 235 27 0 0 0 0 0 0 0 0 0 0 0 0 0 0 2 4 3 6 9 11
41 77 39 37 438 807 893 617 498 516 535 687 1018 1183 1280 1228 1036 1013 440 333 303 233 162 63 35 4 0 0 0 0 0 0 0 0 0 0 0 1 3 3 5 13 14
6 38 0 2 3 169 306 203 213 387 472 530 662 817 933 923 902 665 415 417 356 230 138 65 25 7 0 0 0 0 0 0 0 0 0 0 0 0 2 2 6 13 13
0 1 4 44 48 3 20 77 110 166 181 142 202 224 273 335 361 332 291 281 251 198 125 48 16 0 0 0 0 0 0 0 0 0 0 0 0 1 1 1 5 9 10
34 7 1 7 3 26 39 106 91 116 66 41 44 23 43 67 65 89 176 220 217 155 102 54 10 0 0 0 0 0 0 0 0 0 0 0 2 1 0 0 3 5 9
7 2 2 2 2 2 4 90 102 49 0 0 0 0 0 5 52 99 142 182 182 130 86 42 0 0 0 0 0 0 0 0 0 0 0 0 3 2 0 0 0 0 0
3 2 1 0 1 2 4 5 30 27 1 3 0 0 7 19 34 42 40 43 26 25 1 1 0 0 0 0 0 0 0 0 0 0 0 0 0 4 2 1 0 0 0
3 3 2 0 0 0 0 0 0 5 6 22 1 10 24 17 6 21 1 0 0 0 0 0 0 0 0 0 0 0 0 0 0 0 0 0 1 6 8 3 0 0 0
3 7 7 3 1 0 0 0 0 0 1 7 34 65 81 62 32 22 1 2 0 0 0 0 0 0 0 0 0 0 0 0 0 0 0 0 0 8 7 5 0 0 0
3 4 5 5 1 8 0 0 0 0 0 24 52 113 134 105 57 61 20 3 0 0 0 0 0 0 0 0 0 0 0 0 0 0 0 0 0 1 0 0 0 0 0
6 4 1 1 1 0 0 0 0 0 0 8 79 118 156 168 78 92 24 18 0 0 0 0 0 0 0 0 0 0 0 0 0 0 0 0 0 0 0 0 0 0 0
1 0 1 1 0 0 0 0 0 0 0 0 55 103 149 183 106 127 50 39 0 0 0 0 0 0 0 0 0 0 0 0 0 0 0 0 0 0 0 0 0 0 0
0 2 2 0 0 0 0 0 0 0 0 7 24 66 80 105 110 93 46 0 0 0 0 0 0 0 0 0 0 0 0 0 0 0 0 0 0 0 0 0 0 0 0
0 2 0 0 0 0 0 0 0 0 15 0 12 0 12 17 106 82 0 0 0 0 0 0 0 0 0 0 0 0 0 0 0 0 0 0 0 0 0 0 0 0 0
0 3 0 0 0 0 0 0 0 5 0 0 0 0 54 225 177 92 0 0 0 0 0 0 0 0 0 0 0 0 0 0 0 0 0 0 0 0 0 0 0 0 0
1 0 0 0 0 0 0 0 0 0 0 0 0 69 122 187 231 57 39 4 0 0 0 0 0 0 0 0 0 0 0 0 0 0 0 0 0 0 0 0 0 0 0
0 0 0 0 0 0 0 0 0 0 0 0 0 52 117 185 192 148 46 4 0 0 0 0 0 0 0 0 0 0 0 0 0 0 0 0 0 0 0 0 0 0 0
0 0 0 0 0 0 0 0 0 0 0 0 0 26 100 160 214 198 96 14 0 0 0 0 0 0 0 0 0 0 0 0 0 0 0 0 0 0 0 0 0 0 0
0 0 0 0 0 12 22 23 11 0 0 0 62 144 175 168 164 183 187 29 0 0 0 0 0 0 0 0 0 0 0 0 0 0 0 0 0 0 0 0 0 0 0
0 0 0 0 2 37 45 50 18 0 0 0 24 208 213 163 219 159 80 0 0 0 0 0 0 0 0 0 0 0 0 0 0 0 0 0 0 0 0 0 0 0 0

GFSSE_con_sbcape_078.txt.gz
CAPE
453 919 1678 1858 1814 1636 1434 1312 1287 1260 1257 1327 1331 1249 1091 1058 955 852 642 543 436 193 0 14 164 102 4 5 2 21 34 27 23 28 28 21 22 25 17 11 15 3 12
272 638 1432 1864 1784 1632 1524 1351 1323 1320 1378 1284 1243 1119 1081 1127 983 951 566 458 253 46 1 3 5 5 7 10 37 1 0 0 1 8 12 15 17 24 23 21 17 19 18
202 545 1183 1785 1743 1712 1603 1535 1466 1495 1429 1266 1232 1173 1332 1277 1222 855 498 349 161 67 0 1 3 5 22 38 42 8 0 0 0 0 0 0 1 16 18 14 16 26 40
286 204 1055 1139 1058 1472 1624 1481 1471 1526 1334 1160 1175 1225 1363 1372 1148 689 499 238 101 84 0 0 0 0 0 6 0 0 0 0 0 0 0 0 0 12 19 20 21 47 51
238 191 1020 759 445 1247 1758 1517 1435 1271 1096 1030 1078 1386 1440 1306 977 619 422 215 151 74 0 0 0 0 0 0 0 0 0 0 0 0 0 0 0 9 10 12 19 21 26
54 73 505 885 904 1254 1694 1481 1256 1020 835 797 922 1308 1456 1255 853 620 415 306 198 50 0 0 0 0 0 0 0 0 0 0 0 0 0 0 0 9 11 17 13 13 14
372 239 22 528 793 1078 1596 1353 1004 779 725 749 996 1235 1409 1185 734 588 423 310 142 45 0 0 0 0 0 0 0 0 0 0 0 0 0 0 0 7 11 16 16 16 17
305 150 47 191 254 549 1057 880 620 537 694 714 949 1052 1197 1017 601 530 411 301 152 76 0 0 0 0 0 0 12 0 0 0 0 0 0 0 2 6 11 15 16 12 14
158 36 58 56 14 9 715 415 288 405 568 626 782 805 881 686 409 409 372 309 136 50 0 0 0 0 0 0 0 0 0 0 0 0 0 0 2 4 8 13 13 13 9
13 3 45 13 0 0 26 163 325 427 569 627 747 683 629 322 262 282 228 144 78 54 30 18 0 0 0 0 0 0 0 0 0 0 0 0 2 3 7 7 7 8 8
28 15 5 2 1 10 3 102 146 261 261 248 248 215 255 127 65 17 53 76 65 53 44 23 0 0 0 0 0 0 0 0 0 0 0 0 0 2 4 5 8 10 9
27 2 2 3 4 1 15 3 76 110 130 47 34 0 0 0 0 10 36 70 63 56 44 21 0 0 0 0 0 0 0 0 0 0 0 2 0 1 2 1 1 7 10
1 2 5 2 3 2 2 1 69 1 0 0 0 0 0 0 0 0 16 10 4 10 0 0 0 0 0 0 0 0 0 0 0 0 0 0 4 2 2 1 0 0 0
2 1 2 4 4 5 6 1 10 2 0 0 5 0 1 0 0 0 0 0 0 0 0 0 0 0 0 0 0 0 0 0 0 0 0 0 6 2 2 0 0 0 0
3 2 0 0 1 3 0 0 0 0 0 0 0 0 0 0 0 0 0 0 0 0 0 0 0 0 0 0 0 0 0 0 0 0 0 0 0 4 4 2 1 0 0
5 2 2 0 0 0 0 0 0 0 0 0 32 8 1 0 0 0 0 0 0 0 0 0 0 0 0 0 0 0 0 0 0 0 0 0 0 6 0 0 0 0 0
4 4 4 2 0 0 0 0 0 0 9 31 45 35 9 8 12 0 0 0 0 0 0 0 0 0 0 0 0 0 0 0 0 0 0 0 0 0 0 0 0 0 0
4 2 6 7 3 0 0 0 0 0 0 14 40 66 52 23 30 1 0 0 0 0 0 0 0 0 0 0 0 0 0 0 0 0 0 0 0 0 0 0 0 0 0
3 4 2 1 0 0 0 0 0 0 0 0 6 34 69 77 52 40 0 0 0 0 0 0 0 0 0 0 0 0 0 0 0 0 0 0 0 0 0 0 0 0 0
1 0 1 1 0 0 0 0 0 0 0 0 0 14 29 43 35 15 0 0 0 0 0 0 0 0 0 0 0 0 0 0 0 0 0 0 0 0 0 0 0 0 0
1 0 0 0 0 0 0 0 0 0 0 0 0 0 10 0 10 0 0 0 0 0 0 0 0 0 0 0 0 0 0 0 0 0 0 0 0 0 0 0 0 0 0
0 0 0 0 0 0 0 0 0 0 0 0 0 0 0 6 15 0 0 0 0 0 0 0 0 0 0 0 0 0 0 0 0 0 0 0 0 0 0 0 0 0 0
0 0 0 0 0 0 0 0 0 0 0 0 0 0 0 0 31 6 0 0 0 0 0 0 0 0 0 0 0 0 0 0 0 0 0 0 0 0 0 0 0 0 0
0 0 0 0 0 0 0 0 0 0 0 0 0 0 0 0 8 8 0 0 0 0 0 0 0 0 0 0 0 0 0 0 0 0 0 0 0 0 0 0 0 0 0
0 0 0 0 0 0 0 0 0 0 0 0 0 0 0 1 22 56 21 0 0 0 0 0 0 0 0 0 0 0 0 0 0 0 0 0 0 0 0 0 0 0 0
0 0 0 0 0 0 0 0 0 0 0 0 0 0 0 28 49 55 47 0 0 0 0 0 0 0 0 0 0 0 0 0 0 0 0 0 0 0 0 0 0 0 0

GFSSE_con_sbcape_081.txt.gz
CAPE
1297 1654 1867 1945 1783 1584 1549 1548 1439 1197 1152 1209 1187 1204 1244 1199 1112 932 756 484 226 237 48 18 73 8 6 8 12 10 7 26 43 27 20 20 20 22 16 12 17 0 23
551 1597 1920 1923 1851 1689 1588 1595 1514 1269 1339 1308 1243 1334 1227 1110 987 842 510 259 391 338 29 28 15 9 4 0 2 3 2 6 20 27 25 30 23 15 11 13 29 7 19
447 854 1816 1753 1865 1816 1783 1682 1695 1754 1682 1592 1467 1321 1228 1042 900 668 325 375 498 415 60 36 26 18 10 11 0 0 1 3 12 3 2 0 8 27 31 62 126 62 44
408 519 1683 1660 1740 1776 1712 1684 1747 1796 1733 1576 1545 1411 1324 1001 858 566 371 334 521 519 93 60 34 9 2 15 0 0 0 0 0 0 0 0 6 20 43 48 44 51 54
387 365 1203 1478 1365 1373 1415 1634 1654 1616 1512 1493 1450 1527 1236 966 802 544 311 316 517 493 31 5 0 0 0 0 0 0 0 0 0 0 0 0 0 16 27 15 14 30 30
304 196 875 980 882 827 952 1363 1548 1494 1302 1345 1382 1501 1196 929 704 462 299 251 465 381 2 0 0 0 0 0 0 0 0 0 0 0 0 0 0 17 19 15 14 14 13
14 32 94 817 456 812 1100 1497 1335 1247 1173 1286 1361 1327 1027 827 665 455 250 187 213 56 0 0 0 7 0 0 0 0 0 0 0 0 0 0 0 14 18 15 17 17 17
133 47 138 315 537 698 1137 1001 958 913 1015 1193 1262 1181 822 683 541 420 259 154 28 0 0 0 0 0 0 0 0 0 0 0 0 0 0 0 5 13 18 17 15 14 15
273 39 10 23 11 40 323 341 479 583 877 1098 1108 837 543 435 398 360 203 70 0 0 0 0 0 0 0 0 0 0 0 0 0 0 0 0 8 11 11 12 10 13 14
99 9 1 16 1 3 0 188 178 359 682 858 847 572 300 279 281 195 16 0 0 0 0 0 0 0 1 0 0 0 0 0 0 0 0 0 7 8 11 14 9 9 8
75 47 38 1 0 0 0 2 89 362 521 519 556 330 150 129 36 0 0 0 0 0 0 0 0 1 8 0 0 0 0 0 0 0 0 5 5 7 10 8 7 7 5
41 14 2 1 0 2 2 11 4 120 410 410 344 215 78 26 0 0 0 0 0 0 0 0 0 0 0 0 0 0 0 0 0 0 0 5 1 3 3 5 5 4 3
2 4 3 2 0 1 0 0 5 30 45 187 125 59 2 2 0 0 0 0 0 0 0 0 0 0 0 0 0 0 0 0 0 0 0 4 1 0 1 0 0 1 0
2 2 4 6 4 1 2 0 1 0 0 33 45 20 8 0 0 0 0 0 0 0 0 0 0 0 0 0 0 0 0 0 0 0 0 4 6 1 2 1 0 0 0
1 2 6 6 2 0 0 0 0 0 0 9 54 11 19 8 0 0 0 0 0 0 0 0 0 0 0 0 0 0 0 0 0 0 0 0 1 3 2 2 0 0 0
3 2 1 7 4 0 0 4 6 21 43 82 31 22 6 1 0 0 0 0 0 0 0 0 0 0 0 0 0 0 0 0 0 0 0 0 0 3 7 2 2 0 0
3 2 0 1 6 3 0 0 3 0 0 0 8 0 0 0 0 0 0 0 0 0 0 0 0 0 0 0 0 0 0 0 0 0 0 0 0 0 5 0 0 0 0
4 4 3 2 1 0 0 0 0 0 12 2 0 1 11 1 0 0 0 0 0 0 0 0 0 0 0 0 0 0 0 0 0 0 0 0 0 0 0 0 0 0 0
3 5 6 3 1 0 0 0 0 0 4 20 24 14 6 0 0 0 0 0 0 0 0 0 0 0 0 0 0 0 0 0 0 0 0 0 0 0 0 0 0 0 0
3 2 3 2 0 0 0 0 0 0 0 0 5 17 3 1 5 0 0 0 0 0 0 0 0 0 0 0 0 0 0 0 0 0 0 0 0 0 0 0 0 0 0
1 0 1 0 0 0 0 0 0 5 0 0 0 2 20 16 22 8 0 0 0 0 0 0 0 0 0 0 0 0 0 0 0 0 0 0 0 0 0 0 0 0 0
3 0 0 0 0 0 0 0 0 0 0 0 0 0 0 9 35 4 0 0 0 0 0 0 0 0 0 0 0 0 0 0 0 0 0 0 0 0 0 0 0 0 0
0 0 0 0 0 0 0 0 0 0 0 0 0 0 0 0 6 0 0 0 0 0 0 0 0 0 0 0 0 0 0 0 0 0 0 0 0 0 0 0 0 0 0
0 1 0 0 0 0 0 0 0 0 0 0 0 0 0 0 0 0 0 0 0 0 0 0 0 0 0 0 0 0 0 0 0 0 0 0 0 0 0 0 0 0 0
0 0 0 0 0 0 0 0 0 0 0 0 0 0 0 0 0 0 5 0 0 0 0 0 0 0 0 0 0 0 0 0 0 0 0 0 0 0 0 0 0 0 0
0 0 0 0 0 0 0 0 0 0 0 0 0 0 0 0 0 0 4 11 6 0 0 0 0 0 0 0 0 0 0 0 0 0 0 0 0 0 0 0 0 0 0

GFSSE_con_sbcape_084.txt.gz
CAPE
1175 1541 1692 1804 1769 1725 1547 1647 1751 1737 1701 1716 1603 1563 1462 1390 1282 1143 1003 782 627 516 93 13 11 10 12 21 23 22 37 33 26 37 24 18 20 22 11 11 24 13 35
1489 1650 1615 1799 1797 1700 1696 1676 1788 1891 1904 1793 1626 1583 1477 1356 1184 942 666 530 469 356 9 8 8 5 6 8 10 7 6 12 27 43 39 41 29 20 19 43 18 13 35
1175 1783 1627 1676 1864 1808 1856 1821 1851 1941 1901 1793 1699 1579 1506 1342 1073 707 710 657 650 500 35 11 5 2 3 5 6 3 0 0 12 13 8 1 19 75 75 84 81 58 46
756 1347 1591 1681 1833 1983 1902 1793 1777 1877 1808 1704 1623 1492 1368 1205 816 858 795 594 588 598 62 55 68 15 0 2 3 6 4 0 0 0 0 0 19 55 47 48 41 40 42
530 602 1614 1664 1737 1910 1804 1937 1729 1645 1530 1484 1391 1377 1247 970 779 887 697 564 612 647 260 120 51 8 0 2 4 2 1 0 0 0 0 0 2 8 14 22 22 21 17
204 189 760 1442 1673 1883 1915 1893 1790 1594 1368 1247 1216 1152 1120 908 827 771 648 579 623 430 9 18 15 0 0 0 3 0 0 0 0 0 0 1 0 24 18 17 16 16 21
125 69 82 672 871 1587 1868 1853 1634 1472 1248 1250 1140 1033 966 813 661 663 524 462 266 90 13 17 1 0 0 0 0 0 0 0 0 0 0 0 4 16 22 19 17 18 17
97 62 80 225 611 669 1176 1511 1273 1278 1168 1199 921 830 766 539 467 430 432 226 38 0 167 151 2 0 0 0 0 0 0 0 0 0 0 0 18 16 19 15 13 11 11
158 95 52 61 42 366 225 547 985 1073 1039 1080 718 512 413 332 283 298 183 30 1 0 82 9 0 0 0 0 0 0 0 0 0 0 0 0 11 11 12 11 7 8 7
147 84 0 9 1 13 12 119 403 682 788 840 465 291 189 205 175 120 0 0 0 0 1 6 0 0 0 0 0 0 0 0 0 0 0 4 14 10 8 7 6 6 5
58 23 7 11 1 1 7 24 145 250 485 397 356 199 112 89 8 0 0 0 0 0 0 1 0 0 0 0 0 0 0 0 0 0 0 15 12 8 7 3 3 4 5
46 21 22 1 0 0 0 0 14 15 101 234 254 140 67 36 0 0 0 0 0 0 1 14 3 0 0 0 0 0 0 0 0 0 0 14 9 6 6 5 5 5 4
4 3 1 0 0 0 0 0 3 32 54 173 182 78 19 0 0 0 0 0 0 0 0 0 0 0 0 0 0 0 0 0 0 0 1 10 7 7 8 8 6 2 2
11 3 2 1 0 0 1 3 6 12 66 105 95 51 14 0 0 0 0 0 0 0 0 0 0 0 0 0 0 0 0 0 0 0 0 7 10 3 4 4 4 1 0
5 5 3 1 1 0 0 0 0 22 60 30 119 58 18 0 0 0 0 0 0 0 0 0 0 0 0 0 0 0 0 0 0 0 0 1 10 9 4 4 2 0 0
1 1 2 1 0 0 0 0 2 0 12 42 72 57 10 3 0 0 0 0 0 0 0 0 0 0 0 0 0 0 0 0 0 0 0 0 0 13 9 5 2 0 0
2 1 5 3 0 0 0 0 0 39 12 24 50 31 5 4 3 0 0 0 0 0 0 0 0 0 0 0 0 0 0 0 0 0 0 0 0 1 6 11 4 0 0
2 3 2 8 5 0 4 2 4 6 10 38 26 12 14 1 0 0 0 0 0 0 0 0 0 0 0 0 0 0 0 0 0 0 0 0 0 0 2 0 0 0 0
4 4 2 1 2 0 1 2 3 0 4 11 8 0 0 1 0 0 0 0 0 0 0 0 0 0 0 0 0 0 0 0 0 0 0 0 0 0 0 0 0 0 0
3 3 2 2 0 0 0 0 0 0 5 27 6 7 3 11 0 0 0 0 0 0 0 0 0 0 0 0 0 0 0 0 0 0 0 0 0 0 0 0 0 0 0
1 4 1 1 2 0 0 0 0 0 0 0 0 4 4 5 2 0 0 0 0 0 0 0 0 0 0 0 0 0 0 0 0 0 0 0 0 0 0 0 0 0 0
2 2 1 0 0 0 0 0 1 0 0 0 0 11 41 49 37 7 0 0 0 0 0 0 0 0 0 0 0 0 0 0 0 0 0 0 0 0 0 0 0 0 0
1 0 0 0 0 0 0 0 0 0 0 1 0 0 5 30 48 42 16 0 0 0 0 0 0 0 0 0 0 0 0 0 0 0 0 0 0 0 0 0 0 0 0
0 0 0 0 0 0 0 0 0 0 0 0 0 0 0 0 7 8 1 0 0 0 0 0 0 0 0 0 0 0 0 0 0 0 0 0 0 0 0 0 0 0 0
0 0 0 0 0 0 0 0 0 0 0 0 0 0 0 0 0 2 0 0 0 0 0 0 0 0 0 0 0 0 0 0 0 0 0 0 0 0 0 0 0 0 0
0 0 0 0 0 0 0 0 0 0 0 0 0 0 0 0 0 0 0 0 0 0 0 0 0 0 0 0 0 0 0 0 0 0 0 0 0 0 0 0 0 0 0

GFSSE_con_sbcape_087.txt.gz
CAPE
1200 1495 1425 1725 1746 1720 1935 1757 1564 1584 1674 1691 1598 1465 1434 1423 1397 1391 1318 1173 994 823 391 69 279 70 18 19 20 38 37 37 33 34 27 22 15 12 6 12 41 32 52
1388 1695 1567 1833 1789 1743 1995 1855 1763 1809 1886 1840 1611 1520 1522 1464 1464 1322 1140 971 862 647 60 17 20 24 29 26 32 36 48 43 34 36 29 19 20 15 7 12 30 20 20
1698 1793 1734 1730 1877 1819 2074 2140 2070 2122 2056 1946 1752 1723 1584 1489 1367 1083 863 723 610 348 16 15 21 26 34 29 32 20 22 28 26 22 32 28 39 37 39 60 39 10 7
1751 1916 1687 1555 1699 1915 2002 2169 2163 2249 2067 1893 1882 1747 1514 1226 1041 907 824 626 527 371 12 17 17 13 14 12 8 4 1 2 1 7 25 40 38 53 41 35 31 23 26
1205 1624 1743 1530 1322 1698 1871 2161 2174 2093 1915 1799 1720 1652 1346 1088 1093 1031 830 586 573 510 164 16 4 3 6 11 8 3 0 0 0 6 11 8 10 29 30 22 18 15 19
951 435 314 1087 1214 1720 1949 2084 2081 1921 1714 1623 1567 1440 1161 1174 1148 920 706 564 528 480 257 43 2 0 2 3 2 0 0 0 0 5 7 10 12 24 14 15 17 16 15
789 432 330 449 721 1000 1934 2022 1876 1721 1536 1434 1398 1139 1056 1138 1001 781 626 635 545 435 429 31 0 0 5 5 2 0 0 0 0 1 4 8 18 22 20 19 19 15 16
543 385 148 402 698 464 947 1504 1490 1425 1356 1217 1107 876 929 894 755 728 591 379 212 295 273 5 0 0 0 0 0 0 0 0 0 1 6 10 29 19 22 16 16 11 11
191 379 307 267 207 66 241 655 949 1126 1124 963 773 623 589 507 452 494 254 96 169 230 123 0 0 0 0 0 0 0 0 0 0 3 2 8 20 19 20 17 13 11 10
192 205 270 287 451 212 60 53 377 911 852 713 523 369 255 283 266 160 13 59 258 324 93 0 0 0 0 0 0 0 0 0 0 1 3 11 22 18 15 12 10 8 6
200 118 71 90 183 248 61 129 184 487 525 507 362 153 158 386 209 13 0 24 208 153 40 0 0 0 0 0 0 0 0 0 0 0 4 27 20 15 12 10 9 5 5
90 52 7 14 24 5 166 119 211 197 400 345 281 299 242 210 57 0 0 0 71 124 37 9 0 0 0 0 0 0 0 0 0 3 9 31 18 14 11 6 4 7 6
96 19 7 4 3 0 1 11 181 75 186 205 170 199 118 39 1 0 0 0 0 51 24 11 0 0 0 0 0 0 0 0 0 1 6 23 12 9 8 6 6 4 3
74 58 10 2 1 0 2 3 42 83 75 104 102 114 71 3 0 0 0 0 0 0 56 23 0 0 0 0 0 0 0 0 0 0 5 10 15 11 10 5 4 2 1
21 3 2 1 0 0 0 6 10 4 77 63 64 119 22 0 0 2 0 0 0 0 0 0 0 0 0 0 0 0 0 0 0 0 0 6 10 8 4 4 1 0 0
1 15 2 1 0 0 4 7 26 15 43 19 51 60 22 0 0 0 0 0 0 0 0 0 0 0 0 0 0 0 0 0 0 0 0 2 6 14 8 3 1 0 0
2 4 3 2 0 0 0 1 3 30 11 13 9 68 20 0 0 0 0 0 0 0 0 0 0 0 0 0 0 0 0 0 0 0 0 1 0 0 9 11 0 0 0
3 3 4 4 0 1 0 1 0 3 4 14 3 34 46 27 5 0 0 0 0 0 0 0 0 0 0 0 0 0 0 0 0 0 0 0 1 2 1 18 23 0 0
5 3 4 4 0 0 0 5 6 0 24 4 9 51 53 31 4 1 0 0 0 0 0 0 0 0 0 0 0 0 0 0 0 0 0 0 0 0 4 1 0 0 0
9 2 3 5 1 0 0 0 1 4 3 2 0 55 89 77 47 28 7 0 0 0 0 0 0 0 0 0 0 0 0 0 0 0 0 0 0 0 1 0 0 0 0
10 4 1 2 1 0 5 7 5 1 17 1 1 38 52 50 43 56 8 0 0 0 0 0 0 0 0 0 0 0 0 0 0 0 0 0 0 0 0 0 0 0 0
7 5 3 2 0 0 3 1 0 0 0 4 6 9 13 16 29 51 32 9 0 1 1 0 0 0 0 0 0 0 0 0 0 0 0 0 0 0 0 0 0 0 0
6 4 3 2 2 0 0 0 0 0 0 5 6 2 27 31 28 12 23 33 48 27 6 9 0 0 1 0 0 0 0 0 0 0 0 0 0 0 0 0 0 0 0
2 4 2 1 1 2 0 0 0 0 0 0 0 7 3 20 41 27 38 64 74 61 53 14 0 0 1 0 0 0 0 0 0 0 0 0 0 0 0 0 0 0 0
3 2 4 0 0 0 0 0 0 0 1 0 0 0 5 55 70 70 102 117 94 79 46 31 0 0 0 6 0 0 0 0 0 0 0 0 0 0 0 0 0 0 0
2 1 1 1 1 0 0 0 0 0 0 0 0 0 2 9 16 31 70 84 74 59 60 44 29 15 3 0 0 0 0 0 0 0 0 0 0 0 0 0 0 0 0

GFSSE_con_sbcape_090.txt.gz
CAPE
1711 1381 1396 1759 1826 2037 1968 1681 1608 1687 1739 1761 1633 1503 1462 1557 1521 1407 1265 1178 1048 984 536 214 354 204 45 27 20 59 94 111 85 147 43 25 19 31 69 258 246 72 211
1660 1659 1280 1848 1898 2068 2103 1783 1765 1863 1909 1882 1629 1568 1573 1687 1688 1417 1376 1283 1169 854 279 63 69 24 27 20 24 28 29 21 27 26 26 11 8 23 22 43 81 24 18
1746 1815 1564 1808 1874 1965 2020 2020 1965 2090 2103 1971 1689 1702 1742 1873 1786 1561 1346 1167 966 716 114 42 57 32 30 18 19 30 27 25 15 3 33 13 24 19 15 21 35 14 13
1392 1861 1786 1682 1689 1577 2001 2089 2103 2241 2150 1863 1848 1878 1855 1842 1706 1440 1159 834 660 426 14 20 51 31 24 18 16 9 3 3 3 55 18 21 30 33 27 15 17 11 11
865 1914 1824 1527 1441 1732 1890 2096 1838 2227 1946 1808 1812 1960 1930 1765 1506 1226 803 499 443 309 11 12 15 23 10 13 8 7 0 0 0 37 42 14 25 31 20 11 15 13 17
1010 1470 1255 664 1326 1551 1886 1865 1479 1573 1749 1738 1768 1832 1760 1598 1397 984 648 446 421 327 15 14 15 12 9 3 0 0 0 0 14 12 17 23 17 16 16 10 13 7 10
994 1421 1101 258 809 518 747 1038 1418 1683 1641 1653 1671 1571 1568 1493 1245 800 597 560 547 403 12 3 4 2 3 1 0 0 0 0 0 0 0 5 14 17 20 12 12 12 10
1231 1291 1140 387 939 568 442 30 563 1435 1490 1445 1409 1424 1458 1263 981 733 613 645 560 273 6 4 2 1 0 0 0 0 0 0 0 0 3 5 21 19 15 16 10 11 10
882 926 920 928 1023 208 8 0 20 1191 1317 1255 1096 1162 1065 857 663 731 572 499 430 99 0 1 2 1 0 0 0 0 0 0 0 0 1 5 21 14 15 12 10 10 9
528 697 738 701 418 452 201 120 71 667 791 898 845 857 701 605 538 305 232 341 212 51 0 0 0 0 0 0 0 0 0 0 0 0 1 6 16 12 14 13 13 10 7
512 379 207 433 325 146 155 308 129 112 381 465 621 526 412 810 459 235 127 218 145 28 0 0 0 0 0 0 0 0 0 0 0 0 0 22 19 15 14 13 10 10 8
720 474 173 196 446 177 216 273 201 143 202 702 878 783 685 636 392 148 163 218 100 0 0 0 0 0 0 0 0 0 0 0 0 1 3 29 22 18 14 11 8 6 5
397 340 177 46 83 49 240 269 324 117 143 231 464 592 550 484 306 55 179 257 93 0 0 0 0 0 0 0 0 0 0 0 0 2 3 25 21 17 13 8 4 3 3
179 233 50 34 32 12 4 66 113 78 116 97 111 137 629 202 100 50 87 102 54 0 0 0 0 4 0 0 0 0 0 0 0 3 9 19 26 12 8 7 3 3 2
54 67 44 7 11 8 1 2 10 110 126 84 84 103 125 184 53 4 54 63 66 48 39 19 21 17 0 0 0 0 0 0 0 0 5 14 23 16 9 6 5 2 1
27 12 6 2 1 4 2 4 3 25 76 75 75 52 62 93 60 3 14 0 34 96 102 41 24 1 0 0 0 0 0 0 0 0 1 3 7 19 14 6 4 2 0
15 5 5 3 0 0 1 7 41 2 70 55 20 20 19 101 21 12 2 0 0 0 13 10 8 0 0 0 0 0 0 0 0 0 1 2 1 3 13 15 3 0 0
7 13 5 2 2 1 1 4 15 80 5 17 5 12 26 54 23 6 13 0 0 0 0 0 0 0 0 0 0 0 0 0 0 0 0 2 3 5 5 20 17 1 0
7 6 6 2 3 2 2 2 1 3 2 11 20 6 59 65 28 5 11 0 0 0 0 0 0 0 0 0 0 0 0 0 0 0 0 0 3 4 9 2 14 24 11
9 11 7 7 3 1 5 1 9 7 14 11 21 30 97 70 44 11 11 8 1 0 0 0 0 0 0 0 0 0 0 0 0 0 0 0 0 1 5 17 6 12 0
7 10 10 10 8 0 0 3 3 10 17 13 19 59 80 68 70 99 41 36 4 27 30 5 0 0 0 0 0 0 0 0 0 0 0 0 0 0 2 7 11 4 1
8 7 9 14 7 8 2 0 5 5 9 4 15 76 112 114 90 147 102 69 85 43 27 7 0 3 6 0 0 5 15 1 0 0 0 0 0 0 0 0 2 0 0
14 12 7 8 9 7 21 2 0 0 1 2 10 38 94 111 115 95 95 89 90 82 75 72 86 134 131 34 0 64 127 127 90 0 0 0 0 0 0 0 0 0 0
22 18 15 7 9 12 2 1 1 1 8 2 1 12 49 102 99 85 87 83 101 98 92 134 145 181 166 171 30 0 22 89 129 124 0 0 0 0 0 0 0 0 0
7 25 25 12 10 8 10 3 0 0 43 14 14 2 9 33 32 38 67 83 93 117 126 172 161 179 157 191 162 125 23 50 55 77 108 57 0 0 0 0 0 0 0
2 6 27 24 13 9 10 7 0 0 0 12 6 21 19 3 10 27 49 99 121 124 127 186 227 216 208 198 229 219 184 126 96 63 35 62 124 36 0 0 0 0 0

GFSSE_con_sbcape_093.txt.gz
CAPE
1465 1809 1754 1844 1931 2140 1827 1737 1717 1722 1754 1798 1564 1651 1754 1665 1578 1483 1368 1228 1087 997 496 556 636 593 433 286 242 429 443 354 289 443 375 262 224 217 196 342 311 174 389
1514 1872 1508 1933 2019 2210 2047 1895 1853 1914 1991 1923 1728 1784 1783 1688 1618 1574 1399 1414 1309 1036 421 237 281 213 97 19 125 203 194 114 80 90 184 72 56 66 64 155 116 18 45
1123 1761 1699 1844 2031 2343 2172 1852 2059 2154 2208 2052 1863 1888 1863 1859 1756 1680 1559 1354 1231 964 234 28 67 41 9 6 77 39 61 66 23 89 211 29 21 21 8 12 24 12 14
882 1780 1977 1721 1894 2176 1847 1985 2072 2266 2293 2041 1949 2024 2082 1859 1870 1724 1479 1164 1008 841 248 138 70 30 10 18 30 27 44 56 124 112 14 17 23 25 20 16 13 14 14
880 1382 2100 1575 1696 1851 1738 1748 1857 2042 1691 1862 1890 2083 2163 2054 1928 1616 1219 877 746 745 405 168 84 30 5 12 0 0 0 0 5 33 11 19 16 17 14 12 8 6 18
739 1009 1378 905 1551 1728 1575 1994 1939 1653 1208 1698 1773 2028 2187 2001 1741 1298 830 637 614 566 356 125 29 8 0 0 0 0 0 0 31 24 23 19 15 33 16 0 4 8 12
1148 962 1808 627 561 919 1265 698 562 1088 1046 1511 1723 1873 1917 1765 1362 1010 715 529 340 333 183 12 16 5 0 0 0 0 0 0 5 8 10 8 20 19 15 13 10 9 10
1341 1358 1492 955 539 974 925 34 0 103 483 1183 1605 1626 1564 1320 1058 821 638 502 296 148 49 12 8 2 0 0 0 0 0 0 7 7 4 4 26 16 16 12 11 7 7
1182 1186 1275 1364 1270 734 381 179 27 128 17 368 1217 1241 1108 898 735 736 769 567 103 31 3 5 7 1 0 0 0 0 0 0 7 3 1 8 23 14 15 11 9 9 11
1077 1073 1146 1033 1362 1333 811 33 40 7 90 312 774 934 756 667 635 738 543 255 51 1 2 5 3 0 0 0 0 0 0 1 2 0 2 8 18 13 9 10 7 7 8
846 766 779 692 1017 787 504 78 48 2 16 122 611 590 560 839 838 652 391 134 40 1 2 3 1 0 0 0 0 0 0 9 6 2 0 22 18 12 10 7 8 9 10
1101 630 263 415 657 590 181 217 93 0 2 16 1048 794 1020 1045 798 513 231 74 23 4 1 0 0 0 0 0 0 0 4 15 8 0 1 25 15 12 9 7 9 6 6
594 600 259 194 328 380 271 219 114 25 20 105 939 697 796 1032 675 663 397 103 1 0 0 0 0 0 0 0 0 0 1 16 11 0 3 22 16 11 10 9 9 9 7
192 459 321 83 121 229 253 281 133 120 0 194 430 550 684 749 538 432 384 93 0 0 0 0 0 6 0 0 0 0 1 9 12 1 7 18 21 11 12 9 7 7 7
29 34 86 64 102 95 99 74 203 107 99 47 41 258 471 350 371 225 273 182 36 10 0 0 1 4 1 0 0 0 1 5 6 0 2 10 18 16 11 11 8 4 2
4 18 23 16 24 10 84 9 12 203 92 61 14 57 98 137 144 205 288 240 147 62 29 8 18 5 0 0 0 0 0 0 3 2 1 5 13 20 20 13 10 4 3
12 14 16 6 4 1 4 8 56 122 93 58 23 95 90 43 125 220 324 288 203 194 278 91 26 0 0 0 0 0 0 0 0 6 0 5 4 7 16 18 5 3 1
18 19 8 6 3 5 9 11 13 31 104 57 33 57 42 44 147 226 182 196 258 254 101 48 21 0 0 0 0 0 0 0 0 1 7 8 0 1 0 8 17 10 1
18 14 12 5 8 17 12 9 11 48 94 26 11 0 2 12 83 162 110 119 129 75 87 59 2 4 7 1 0 0 0 0 0 0 0 2 9 1 0 0 3 6 10
8 10 5 7 13 12 5 5 3 19 14 2 0 0 0 2 50 124 32 6 11 0 0 1 12 27 0 0 0 0 0 0 0 0 0 0 0 0 7 17 0 0 8
8 15 16 6 7 8 11 6 1 3 3 1 0 0 0 18 41 85 51 15 5 12 0 9 47 62 28 0 0 0 0 0 0 0 0 0 0 0 1 3 29 0 0
6 9 8 15 5 9 9 11 7 2 5 6 5 9 15 38 65 78 65 51 42 64 49 92 100 72 28 0 1 25 29 0 0 0 0 0 0 0 0 2 7 22 22
4 8 12 10 9 9 8 11 16 10 10 14 38 33 32 56 80 104 92 97 99 70 170 185 163 127 99 16 42 98 139 111 76 0 1 0 0 0 0 0 0 1 4
11 12 3 13 5 14 22 12 6 4 13 35 26 33 62 95 97 64 111 138 135 215 245 107 148 166 294 172 99 35 167 129 149 132 42 6 9 0 0 0 0 0 0
4 8 17 8 6 17 7 10 12 7 1 3 21 45 74 22 28 38 116 168 145 182 239 216 280 349 316 270 216 186 104 96 142 121 70 140 46 5 0 0 0 0 0
7 5 21 16 13 14 18 23 18 0 0 7 2 6 33 24 6 63 170 148 262 245 224 305 338 329 287 288 332 254 241 142 103 176 173 155 171 128 16 0 0 0 0

GFSSE_con_sbcape_096.txt.gz
CAPE
1738 1491 1786 2117 2083 1800 1660 1662 1697 1708 1728 1699 1660 1807 1806 1661 1506 1370 1257 1117 1031 967 579 769 947 786 711 625 557 707 647 539 561 643 666 473 367 290 198 427 259 105 576
1531 1777 1725 2034 2288 1991 1824 1753 1822 1825 1862 1738 1840 1827 1796 1700 1585 1478 1393 1273 1221 1224 973 842 600 485 438 366 473 416 329 263 226 352 436 306 179 149 91 240 196 152 239
1296 1784 1714 1894 2256 2191 2044 1910 1989 2034 2094 1886 1984 1862 1838 1767 1692 1577 1544 1427 1359 1209 773 615 433 266 153 183 348 323 211 176 246 266 86 0 8 28 22 24 133 57 24
782 1815 2090 1806 2148 2304 2084 1970 2023 2221 2280 1996 2051 1929 1894 1860 1708 1685 1583 1276 1179 1056 527 442 337 151 29 144 147 188 191 219 134 113 0 1 15 27 12 19 20 15 19
764 1255 2189 1696 1908 2264 2094 2033 1962 1998 2039 1935 1947 2024 1942 1920 1844 1732 1403 1120 999 967 448 277 215 31 26 9 17 48 117 161 36 1 0 3 6 20 20 14 13 13 17
735 1319 1494 1564 1659 1880 2119 2002 1543 1381 1158 1516 1830 1892 1944 2055 1868 1526 1178 1066 1101 1014 619 213 70 1 0 0 0 0 0 3 5 0 3 23 9 37 25 12 14 14 27
1337 1599 1777 1281 1099 982 1635 1578 887 265 224 792 1250 1185 1528 1669 1559 1144 951 920 909 820 647 157 34 13 0 0 0 0 0 0 3 0 0 0 13 11 17 16 18 19 15
1534 1584 1600 1086 817 813 1133 533 338 247 0 270 564 794 1400 1341 1039 848 798 735 618 520 306 167 40 3 0 0 0 0 0 1 2 0 0 0 26 24 20 17 15 11 10
1320 1571 1791 1804 1364 807 773 178 138 149 31 73 3 57 1065 788 607 681 665 550 357 196 122 67 2 0 0 0 0 0 0 2 0 0 0 2 27 22 19 14 9 9 9
1177 1424 1351 1302 1462 1425 486 58 25 119 45 0 0 17 399 346 436 546 378 267 181 115 22 4 0 0 0 0 0 0 0 11 0 0 0 7 23 21 17 12 9 9 7
1091 1230 905 966 1241 1325 901 103 39 125 7 0 1 20 253 289 396 453 121 101 80 19 12 3 0 0 0 0 0 0 0 0 0 0 0 28 21 16 13 10 8 8 10
1488 1085 474 647 767 782 521 195 44 62 53 13 11 0 296 327 473 371 47 26 16 12 7 1 0 0 0 0 0 0 0 3 0 0 0 31 20 14 13 12 10 10 7
1079 707 424 343 536 541 243 160 42 4 2 4 1 0 273 382 341 157 8 11 4 2 0 0 0 0 0 0 0 0 0 0 0 0 4 23 19 10 12 11 7 6 4
749 813 472 369 217 197 263 102 45 3 0 3 1 21 240 264 310 65 0 0 0 0 0 0 0 0 0 0 0 0 0 1 0 0 0 17 22 13 14 10 7 6 4
341 471 453 87 114 90 68 96 87 55 8 38 54 77 181 143 229 79 0 0 0 0 0 0 0 0 0 0 0 0 0 1 0 0 0 11 16 21 12 11 5 5 6
15 134 116 25 40 32 74 55 92 49 1 2 43 181 112 107 107 72 0 0 0 0 0 0 0 0 0 0 0 0 0 1 0 0 0 0 9 17 18 6 4 3 2
15 5 26 5 0 0 29 23 10 64 8 5 0 2 114 99 87 25 27 0 3 0 0 1 0 0 0 0 0 0 0 0 0 0 0 0 0 6 10 18 6 3 3
3 3 25 4 1 0 23 4 0 27 5 1 1 14 7 8 50 51 92 49 26 8 0 22 2 0 0 0 0 0 0 0 0 0 0 0 0 0 0 5 11 13 2
10 11 11 6 3 1 4 12 8 2 15 4 2 11 21 13 40 117 99 116 80 95 70 15 0 0 0 0 0 0 0 0 0 0 0 0 0 0 0 0 2 3 2
0 4 7 0 12 8 6 5 19 36 44 50 2 1 7 3 60 89 28 29 39 24 13 2 0 0 0 0 0 0 0 0 0 0 0 0 0 0 0 0 0 0 0
1 10 6 9 6 7 2 0 3 19 29 9 8 0 5 0 13 12 1 0 0 0 0 8 0 0 0 0 0 0 0 0 0 0 0 0 0 0 0 0 0 0 0
5 6 11 1 9 10 3 3 0 1 0 0 0 0 0 0 0 2 6 6 1 0 0 0 0 0 0 0 0 0 0 0 0 0 0 0 0 0 0 0 0 0 0
2 5 9 11 11 1 10 3 2 1 2 1 1 0 0 0 0 0 26 17 27 11 11 25 2 7 1 0 0 19 85 41 0 0 0 0 0 0 0 0 0 0 0
1 3 3 12 18 0 5 1 1 1 0 0 0 0 0 0 4 38 50 62 33 47 48 40 38 41 46 5 0 0 19 97 64 0 0 0 0 0 0 0 0 0 0
3 12 4 5 12 2 0 1 0 0 0 0 0 0 0 0 0 15 46 67 74 76 58 83 73 69 79 173 88 103 40 48 29 22 0 12 0 0 0 0 0 0 0
0 3 11 7 9 5 14 0 0 2 2 1 0 0 0 3 15 21 41 85 92 48 53 71 62 87 149 204 144 145 91 71 33 14 12 3 9 3 0 0 0 0 0

GFSSE_con_sbcape_099.txt.gz
CAPE
1324 1711 1773 1772 1674 1664 1573 1603 1665 1668 1641 1831 1878 1757 1659 1575 1461 1307 1202 1094 1100 1237 1007 1131 1332 839 881 935 983 952 860 770 720 775 654 382 416 428 330 526 453 175 647
1378 1673 1951 1841 1753 1732 1753 1777 1850 1881 1829 1988 1957 1784 1638 1547 1455 1364 1238 1190 1201 1214 1010 1089 963 703 872 711 794 672 619 545 563 592 650 520 423 270 231 228 230 219 443
1548 1597 1958 2001 1883 1850 1918 1922 1990 2072 1963 2088 2005 1859 1730 1599 1518 1410 1291 1282 1566 1526 900 625 657 699 695 735 642 566 481 311 108 101 125 4 5 97 109 270 197 55 35
1665 1551 1663 2080 2004 1985 1937 2007 2047 2212 2053 2080 2026 1969 1835 1728 1607 1570 1485 1439 1496 1233 702 713 649 660 649 610 475 472 472 191 64 8 0 2 15 54 36 27 27 24 22
1329 1792 1726 1948 2161 2122 2012 1998 2071 2202 1959 1949 1927 2058 1969 1819 1833 1701 1359 1158 1215 1198 657 476 515 435 480 347 326 326 258 12 0 0 0 0 2 34 34 23 11 15 18
978 1840 1582 1703 2055 2219 2164 2096 2132 2165 1891 1839 1828 1907 1971 1843 1917 1587 1187 989 1018 988 823 193 233 274 92 57 53 41 17 7 0 0 0 17 20 38 27 22 28 12 10
1270 1473 1469 1582 1772 2092 2371 2258 1831 1500 1725 1302 981 1048 1021 865 1476 1284 997 913 836 733 573 385 212 69 10 0 0 0 0 0 0 0 0 8 12 25 19 8 8 9 7
945 1449 1235 1297 1272 1335 1624 2121 1108 689 800 634 513 555 365 778 1033 1112 1050 928 776 636 426 249 78 42 0 0 0 0 0 0 0 0 0 2 27 20 22 7 15 14 16
820 926 1111 1052 1051 1009 1165 898 491 340 664 465 442 28 79 335 516 932 858 811 692 518 292 119 37 3 3 0 0 0 0 0 0 0 0 1 25 22 19 20 11 12 18
779 908 937 1064 928 661 609 310 232 79 206 188 122 76 26 2 243 501 519 534 472 338 166 46 14 12 0 0 0 0 0 0 0 0 0 5 17 14 21 19 20 15 15
570 698 516 624 749 743 95 37 38 95 46 43 39 40 2 0 187 281 250 270 239 161 65 20 10 0 0 0 0 0 0 0 0 0 0 22 21 17 18 15 14 10 10
544 467 334 375 534 656 261 20 0 9 0 0 0 0 0 1 132 180 150 125 80 52 37 3 0 0 0 0 0 0 0 0 0 0 0 21 19 12 13 14 12 10 9
614 286 99 118 322 321 86 0 0 3 12 0 1 1 0 14 159 40 8 4 0 5 0 0 0 0 0 0 0 0 0 0 0 0 0 21 21 14 14 12 8 6 6
413 86 61 22 84 36 0 0 0 1 17 4 3 1 0 62 75 8 0 1 1 0 0 0 0 0 0 0 0 0 0 0 0 0 0 11 16 12 12 8 7 5 4
417 162 22 0 0 0 8 4 1 1 1 6 2 1 1 75 25 0 0 0 0 0 0 0 0 0 0 0 0 0 0 0 0 0 0 1 13 19 10 7 5 4 2
111 70 0 0 2 0 1 15 15 0 2 1 21 1 8 94 7 0 0 0 0 0 0 0 0 0 0 0 0 0 0 0 0 0 0 0 1 12 16 6 5 4 4
0 0 0 0 0 0 2 1 9 0 0 16 9 0 70 68 5 0 0 0 0 0 0 0 0 0 0 0 0 0 0 0 0 0 0 0 0 0 5 9 6 3 3
0 0 0 0 0 0 1 0 0 0 0 1 18 5 4 58 4 0 0 0 0 0 0 0 0 0 0 0 0 0 0 0 0 0 0 0 0 0 0 6 10 8 3
0 0 0 0 0 0 0 0 0 1 0 0 0 0 10 3 0 0 0 0 0 0 0 0 0 0 0 0 0 0 0 0 0 0 0 0 0 0 0 0 1 4 7
0 0 0 0 0 1 0 0 0 1 1 1 1 2 0 0 0 3 0 0 0 0 0 0 0 0 0 0 0 0 0 0 0 0 0 0 0 0 0 0 0 0 0
0 0 0 0 0 0 0 5 1 12 4 1 0 0 0 0 0 0 0 0 0 0 0 0 0 0 0 0 0 0 0 0 0 0 0 0 0 0 0 0 0 0 0
0 0 0 0 0 4 0 0 0 16 14 1 0 0 0 0 0 0 0 0 0 0 0 0 0 0 0 0 0 0 0 0 0 0 0 0 0 0 0 0 0 0 0
0 2 0 0 0 4 0 1 1 0 0 0 4 1 0 0 0 0 0 0 0 0 0 0 0 0 0 0 0 0 0 0 0 0 0 0 0 0 0 0 0 0 0
0 1 0 0 0 0 0 1 0 0 0 0 0 0 0 0 0 0 0 0 0 0 0 0 0 0 0 0 0 0 0 12 21 10 0 0 0 0 0 0 0 0 0
0 1 0 1 1 0 0 0 0 1 0 1 1 0 0 0 0 0 0 0 0 0 13 9 11 22 6 0 0 0 0 0 0 0 0 0 0 0 0 0 0 0 0
0 0 2 1 0 0 0 0 0 0 0 0 1 0 0 0 0 0 0 0 2 1 27 61 41 39 21 41 5 14 2 0 0 1 0 0 0 0 0 0 0 0 0

GFSSE_con_sbcape_102.txt.gz
CAPE
1283 1513 1520 1667 1706 1600 1519 1600 1566 1613 1804 1796 1771 1730 1676 1648 1640 1627 1606 1587 1651 1751 1251 1313 1684 1645 1413 1031 1237 1184 1050 919 829 837 768 553 485 524 474 644 475 246 756
1228 1675 1525 1689 1771 1677 1704 1723 1721 1783 1962 1923 1822 1745 1638 1596 1519 1480 1532 1566 1706 1747 1244 1312 1442 1248 957 1000 1097 999 914 764 683 722 884 672 439 353 409 445 480 357 514
1414 1750 1592 1593 1764 1833 1908 1949 1991 1983 2107 2082 1942 1776 1675 1575 1485 1393 1397 1441 1655 1664 1127 1126 1285 1102 901 1007 893 753 642 522 408 352 409 22 85 306 322 285 454 441 257
1372 1721 1790 1548 1757 1957 2008 2051 2122 2171 2233 2176 1985 1846 1742 1672 1553 1520 1521 1413 1484 1510 677 864 1165 1031 1018 881 722 556 381 209 92 70 1 7 93 316 205 97 39 28 26
1415 1522 1896 1655 1718 1946 2004 2073 2138 2151 2170 2096 1947 1895 1837 1747 1702 1741 1659 1429 1168 1030 501 1051 953 985 874 668 488 358 150 33 1 0 0 0 14 73 51 26 17 18 17
1454 1468 1665 1759 1750 1971 2070 2144 2230 2207 2101 2015 1904 1879 1824 1908 1880 1747 1482 1309 1216 1290 986 941 1110 874 571 431 268 23 0 0 0 0 0 11 11 39 22 14 19 25 27
1374 1407 1325 1652 1882 2087 2191 2210 2200 2132 2005 1977 1613 1295 1008 1029 1051 1143 1264 1224 1111 1008 838 878 726 361 193 93 17 0 0 0 0 0 0 4 16 34 29 11 12 13 16
1156 1169 1191 1364 1786 2160 2245 2145 2023 1753 1627 1509 996 246 77 298 222 477 1079 990 766 624 455 585 332 124 29 0 0 0 0 0 0 0 0 12 40 39 28 18 16 13 15
1048 945 950 1067 1204 1232 1494 2140 1679 1327 1325 802 750 220 161 268 143 362 507 722 676 500 485 378 142 45 1 0 0 0 0 0 0 0 2 14 44 33 23 11 9 9 18
555 823 727 706 760 702 853 918 732 608 642 243 413 161 35 52 59 246 354 654 554 431 350 226 80 0 0 0 0 0 0 0 0 0 0 9 17 18 20 16 19 16 15
396 410 518 646 506 432 240 350 176 428 413 275 210 56 0 0 73 195 201 444 461 316 214 64 13 0 0 0 0 0 0 0 0 0 0 11 19 23 24 17 15 17 15
366 282 154 162 310 275 71 13 48 92 176 123 39 31 2 0 0 1 116 271 312 211 95 19 8 0 0 0 0 0 0 0 0 0 0 25 26 20 19 15 13 12 8
234 143 41 61 272 267 40 0 0 0 0 0 0 0 0 0 32 28 104 129 70 70 3 1 0 0 0 0 0 0 0 0 0 0 2 23 26 15 15 11 9 8 5
313 74 0 13 105 36 0 1 0 1 1 0 0 0 0 3 3 81 83 0 0 0 0 0 0 0 0 0 0 0 0 0 0 0 2 13 17 12 10 7 5 5 4
194 40 0 0 5 0 0 1 1 0 1 4 1 1 0 48 1 73 0 0 0 0 0 0 0 0 0 0 0 0 0 0 0 0 0 2 12 12 6 4 4 4 3
94 10 0 0 0 0 0 4 2 1 1 5 3 1 1 16 81 11 0 0 0 0 0 0 0 0 0 0 0 0 0 0 0 0 0 0 4 11 9 3 3 4 3
29 0 0 0 0 0 0 1 1 1 1 1 3 2 5 24 0 0 0 0 0 0 0 0 0 0 0 0 0 0 0 0 0 0 0 0 0 0 5 8 6 6 3
0 0 0 0 0 0 0 0 2 0 1 3 23 17 5 46 0 0 0 0 0 0 0 0 0 0 0 0 0 0 0 0 0 0 0 0 0 0 0 3 11 9 5
0 0 0 0 0 0 0 0 3 0 2 2 12 3 55 2 0 0 0 0 0 0 0 0 0 0 0 0 0 0 0 0 0 0 0 0 0 0 0 0 0 2 5
0 0 0 0 0 0 0 0 0 1 0 1 1 0 20 0 0 0 0 0 0 0 0 0 0 0 0 0 0 0 0 0 0 0 0 0 0 0 0 0 0 0 0
0 0 0 0 0 0 0 0 1 2 1 1 2 6 7 0 0 0 0 0 0 0 0 0 0 0 0 0 0 0 0 0 0 0 0 0 0 0 0 0 0 0 0
0 0 0 0 0 0 0 0 0 1 2 0 1 0 0 0 0 0 0 0 0 0 0 0 0 0 0 0 0 0 0 0 0 0 0 0 0 0 0 0 0 0 0
0 0 0 0 0 1 0 0 1 4 8 1 1 0 0 0 0 0 0 0 0 0 0 0 0 0 0 0 0 0 0 0 0 0 0 0 0 0 0 0 0 0 0
0 0 0 0 0 0 0 2 1 3 18 0 0 0 0 0 0 0 0 0 0 0 0 0 0 0 0 0 0 0 0 0 0 0 0 0 0 0 0 0 0 0 0
0 0 0 0 0 0 0 0 0 1 0 0 2 1 0 0 0 0 1 0 0 0 0 0 0 0 0 0 0 0 0 0 0 0 0 0 0 0 0 0 0 0 0
0 0 0 0 0 0 0 1 0 0 0 0 1 1 1 0 0 0 0 0 0 0 0 0 6 0 0 0 0 0 0 0 0 1 1 0 0 0 0 0 0 0 0

GFSSE_con_sbcape_105.txt.gz
CAPE
1147 1183 1439 1615 1682 1586 1575 1551 1598 1643 1787 1914 1942 1895 1845 1818 1786 1732 1725 1798 1677 1704 1587 1690 1677 1671 1495 1145 1163 1205 1113 977 952 926 867 748 665 596 604 628 649 218 687
1134 1299 1397 1627 1672 1605 1692 1654 1800 1827 1924 2004 1975 1967 1900 1835 1843 1817 1910 1936 1794 1701 1347 1525 1872 1345 1216 1192 1216 1119 1021 834 781 903 903 798 612 438 526 518 566 403 653
1343 1474 1341 1553 1727 1735 1846 1832 1977 2012 2098 2086 1960 1893 1942 1961 1904 1886 1950 1909 1849 1716 1338 1364 1555 1377 1139 1176 1199 1084 963 866 684 675 684 216 228 489 381 364 520 462 363
1403 1512 1337 1473 1685 1826 1885 1985 2043 2183 2161 2040 1994 1925 1895 1901 1884 1905 1924 1793 1563 1004 1546 1453 1389 1112 1168 1127 927 796 675 503 417 376 150 117 176 405 340 169 231 249 201
1393 1583 1445 1444 1610 1847 1934 2015 2120 2206 2136 2010 1952 1931 1842 1787 1777 1856 1798 1688 1498 990 900 1510 1368 1057 967 703 592 445 247 160 52 0 1 3 13 171 120 40 28 33 33
1173 1542 1655 1382 1518 1851 2014 2077 2149 2237 2112 1995 1951 1849 1875 1740 1900 1853 1603 1421 1279 1121 1494 1396 1006 890 632 450 253 45 1 0 0 0 2 17 0 27 24 18 23 27 35
1068 1125 1396 1322 1489 1887 2145 2169 2113 2122 1991 1869 1426 953 826 1206 1204 1234 1210 1313 1246 1141 1333 1050 748 644 404 177 32 9 0 0 0 0 0 4 3 24 17 22 22 20 18
1080 1061 1171 1356 1507 1804 2043 2083 2046 1974 1876 1586 1007 893 876 623 572 612 708 903 995 737 628 595 477 444 96 15 9 0 0 0 0 0 0 0 28 20 26 20 17 19 17
923 891 875 1145 1578 1821 1902 1883 1837 1753 1547 985 623 569 389 386 306 325 257 419 479 592 628 445 335 140 9 0 0 0 0 0 0 0 0 0 34 30 25 16 12 9 11
584 540 614 690 898 1045 1381 1705 1566 1459 1023 455 234 103 207 171 133 31 182 269 338 507 482 343 180 32 0 0 0 0 0 0 0 0 0 8 31 30 19 16 10 14 8
241 339 295 429 436 323 477 667 834 657 536 375 214 81 115 128 171 183 120 174 282 368 352 252 81 0 0 0 0 0 0 0 0 0 0 30 17 11 13 13 14 8 11
144 124 230 246 191 60 158 211 83 224 230 261 135 73 28 46 71 58 66 140 210 287 213 131 6 0 0 0 0 0 0 0 0 0 0 27 28 18 20 14 14 15 12
118 62 31 20 25 43 13 11 38 105 104 71 65 21 1 25 35 0 7 92 106 124 23 3 0 0 0 0 0 0 0 0 0 0 4 30 32 16 18 13 14 11 10
55 30 0 0 40 73 1 0 0 1 1 0 1 1 0 0 0 2 88 139 38 0 0 0 0 0 0 0 0 0 0 0 0 0 5 25 30 21 19 16 14 12 9
78 1 0 0 5 3 1 1 0 1 1 1 0 0 0 0 7 15 93 56 6 0 0 0 0 0 0 0 0 0 0 0 0 0 0 11 18 28 16 15 12 10 5
119 0 0 0 0 0 1 1 1 1 1 1 1 0 0 0 6 37 65 44 2 0 0 0 0 0 0 0 0 0 0 0 0 0 0 0 6 14 18 13 10 8 4
88 0 0 0 0 0 0 1 1 1 1 2 2 1 0 8 10 78 77 12 2 0 0 0 0 0 0 0 0 0 0 0 0 0 0 0 0 0 7 16 8 6 3
6 0 0 0 0 0 0 1 5 1 1 1 2 2 2 21 33 16 6 0 0 0 0 0 0 0 0 0 0 0 0 0 0 0 0 0 0 0 0 9 13 9 5
0 0 0 0 0 0 0 0 4 1 0 1 4 3 4 7 47 5 0 0 0 0 0 0 0 0 0 0 0 0 0 0 0 0 0 0 0 0 0 0 1 6 10
0 0 0 0 0 0 0 0 2 1 1 7 6 12 0 23 1 0 0 0 0 0 0 0 0 0 0 0 0 0 0 0 0 0 0 0 0 0 0 0 0 0 0
0 0 0 0 0 0 0 1 1 11 1 1 1 2 8 0 0 0 0 0 0 0 0 0 0 0 0 0 0 0 0 0 0 0 0 0 0 0 0 0 0 0 0
0 0 0 0 0 0 0 0 0 1 1 0 1 2 1 0 0 0 0 0 0 0 0 0 0 0 0 0 0 0 0 0 0 0 0 0 0 0 0 0 0 0 0
0 0 0 0 0 0 0 0 0 0 9 1 1 7 3 1 0 0 0 0 0 0 0 0 0 0 0 0 0 0 0 0 0 0 0 0 0 0 0 0 0 0 0
0 0 0 0 0 0 0 0 1 1 11 8 1 1 3 0 0 0 0 0 0 0 0 0 0 0 0 0 0 0 0 0 0 0 0 0 0 0 0 0 0 0 0
0 0 0 0 0 0 0 1 0 13 13 5 1 1 0 2 0 0 0 0 0 0 0 0 0 0 0 0 0 0 0 0 0 0 0 0 0 0 0 0 0 0 0
0 0 0 0 0 0 0 0 1 1 1 8 2 1 1 0 1 0 0 0 0 0 0 0 0 0 0 0 0 0 0 0 0 0 0 0 0 0 0 0 0 0 0

GFSSE_con_sbcape_108.txt.gz
CAPE
978 889 1303 1521 1600 1304 1481 1503 1572 1749 1961 1917 1845 1917 1945 1960 1941 1849 1736 1731 1762 1843 1799 1900 1864 1935 1586 1437 1449 1306 1183 1130 1036 1044 1127 962 791 659 683 746 623 347 745
849 1007 1201 1450 1629 1584 1590 1630 1722 1909 2173 2196 2082 2022 1993 1981 1933 1909 1979 1942 2031 2102 1836 1889 1985 1832 1700 1402 1314 1157 1035 913 890 855 1009 986 778 604 652 698 659 529 749
1000 1113 1249 1271 1646 1684 1761 1817 1964 2151 2348 2331 2245 2154 2094 2046 2009 2120 2067 1956 1970 1947 1644 1640 1960 1665 1396 1289 1022 818 1019 959 823 771 736 346 417 602 478 719 742 740 570
1129 1172 1200 1396 1585 1733 1777 1826 1993 2298 2378 2410 2037 2221 2177 2129 2144 2197 2061 1916 1919 1779 1645 1606 1591 1533 1308 1273 1104 1016 887 789 680 522 257 216 347 559 388 352 519 456 439
1287 1191 1161 1375 1523 1688 1825 1896 1949 2154 2189 2198 2200 2159 2256 2195 2220 2137 1851 1697 1699 1827 1635 1530 1415 1338 1148 908 743 628 489 293 279 78 1 42 199 410 322 208 239 104 267
1239 1268 1155 1294 1451 1725 1890 1961 2063 2140 1995 1937 1688 1899 2016 2179 1983 1410 1557 1413 1474 1628 1414 1434 1340 1019 773 513 396 321 160 90 20 0 13 87 35 228 56 15 69 49 39
1038 1291 1223 1228 1369 1781 2015 2021 2046 2018 1920 1871 1537 1329 1114 1386 1246 1397 1333 1059 1261 1240 1220 1204 1067 836 483 236 212 77 22 3 0 0 0 0 16 144 39 18 14 32 37
828 990 1199 1216 1299 1687 1955 1877 1810 1893 1788 1392 1171 1040 945 971 924 825 766 1045 894 1070 861 891 731 552 237 140 56 1 0 2 0 0 0 2 86 54 21 12 12 32 17
790 790 881 1146 1286 1513 1739 1819 1592 1594 1321 937 899 704 689 561 594 670 613 760 742 743 641 517 380 226 165 79 2 0 0 0 0 0 0 1 52 14 16 17 7 22 11
665 671 592 895 1170 1269 1372 1561 1554 1317 730 631 536 363 150 240 254 346 436 514 605 532 501 385 166 88 75 3 0 0 0 0 0 0 0 0 44 19 17 23 22 13 7
321 413 290 552 701 859 901 1193 1381 471 518 367 402 335 167 166 233 247 170 360 389 512 361 291 55 8 4 0 0 0 0 0 0 0 0 30 24 25 13 14 10 13 8
239 202 136 223 249 169 296 312 479 534 370 243 66 63 96 96 27 27 56 238 341 377 261 143 4 1 0 0 0 0 0 0 0 0 0 25 20 14 17 12 11 9 13
11 24 22 48 30 20 75 139 140 318 234 171 3 18 17 84 90 46 83 205 199 212 87 2 0 0 0 0 0 0 0 0 0 0 2 22 35 14 15 16 12 12 5
0 0 0 0 8 66 1 7 85 62 200 152 27 3 4 64 36 18 21 112 131 69 20 0 0 0 0 0 0 0 0 0 0 0 1 23 17 21 17 6 5 6 10
0 0 0 0 5 0 1 1 0 1 1 45 22 0 1 4 12 0 42 134 57 8 13 0 0 0 0 0 0 0 0 0 0 0 0 11 8 8 13 10 4 6 3
3 0 0 0 0 0 1 0 1 1 1 1 1 0 0 0 0 3 62 95 2 1 0 0 0 0 0 0 0 0 0 0 0 0 0 1 6 18 26 11 12 6 12
1 0 0 0 0 0 1 1 1 1 1 1 1 1 1 0 0 13 38 48 1 0 0 0 0 0 0 0 0 0 0 0 0 0 0 0 0 6 14 23 15 8 11
0 0 0 0 0 1 0 0 1 1 1 2 0 2 1 1 1 31 64 31 2 0 0 0 0 0 0 0 0 0 0 0 0 0 0 0 0 0 8 10 14 16 11
0 0 0 0 0 0 0 1 2 4 1 1 2 1 0 1 4 32 20 11 0 0 0 0 0 0 0 0 0 0 0 0 0 0 0 0 0 0 0 4 5 5 9
0 0 0 0 0 0 0 1 11 5 1 1 2 2 2 1 12 12 4 0 0 0 0 0 0 0 0 0 0 0 0 0 0 0 0 0 0 0 0 0 0 0 0
0 0 0 0 0 0 1 1 9 7 4 3 4 2 2 2 8 19 0 0 0 0 0 0 0 0 0 0 0 0 0 0 0 0 0 0 0 0 0 0 0 0 0
0 0 0 0 0 1 0 0 1 1 5 0 1 1 1 3 5 0 0 0 0 0 0 0 0 0 0 0 0 0 0 0 0 0 0 0 0 0 0 0 0 0 0
0 0 0 0 0 0 0 0 0 0 4 1 1 2 4 0 0 0 0 0 0 0 0 0 0 0 0 0 0 0 0 0 0 0 0 0 0 0 0 0 0 0 0
0 0 0 0 0 0 0 0 0 0 7 3 1 5 1 0 0 0 0 0 0 0 0 0 0 0 0 0 0 0 0 0 0 0 0 0 0 0 0 0 0 0 0
0 0 0 0 0 0 0 0 0 0 3 7 0 1 1 1 0 0 0 0 0 0 0 0 0 0 0 0 0 0 0 0 0 0 0 0 0 0 0 0 0 0 0
0 0 0 0 0 0 0 0 0 0 11 8 1 1 4 4 6 0 0 0 0 0 0 0 0 0 0 0 0 0 0 0 0 0 0 0 0 0 0 0 0 0 0

GFSSE_con_sbcape_111.txt.gz
CAPE
1255 1199 1277 1417 1094 1477 1516 1568 1641 1787 1773 1838 1894 1947 1992 2033 2043 2079 1995 1881 1956 2004 1868 1907 1883 1886 1762 1473 1663 1540 1343 1172 1035 1069 1067 1115 1004 946 818 930 819 593 960
1172 1362 1213 1471 1214 1225 1591 1676 1800 1973 2016 2077 2071 2061 2059 2051 2054 1994 2014 1966 1947 2041 1575 1955 2131 2039 1803 1701 1527 1384 1201 1053 995 997 1013 910 864 827 719 858 779 824 969
1347 1437 1383 1327 1166 1439 1665 1776 2012 2271 2294 2272 2235 2180 2140 2093 2048 2114 2177 2120 2054 2099 1827 1879 2104 1825 1599 1569 1345 1212 1172 1035 884 926 971 746 638 716 706 919 846 934 973
1332 1444 1451 1089 1421 1615 1725 1893 2134 2464 2464 2385 2333 2203 2056 2151 2170 2226 2175 2081 2103 2096 1986 1817 1789 1587 1581 1330 1200 1193 1089 952 789 801 545 559 532 676 657 634 916 929 848
1294 1337 1482 1206 1398 1640 1760 1851 2112 2393 2376 2143 2070 2289 2179 2141 2230 2176 2043 1928 1956 2053 2058 1705 1674 1533 1298 1046 1000 940 812 632 553 545 676 644 611 629 636 596 625 700 548
1465 1427 1191 1310 1408 1619 1776 1917 2039 2013 2036 1991 2105 2208 1590 1831 1917 1691 1855 1920 1618 1957 1870 1821 1581 1383 953 752 624 541 432 357 469 606 740 634 479 437 316 243 429 482 384
1610 1540 1539 1267 1438 1623 1737 1967 1938 1880 1835 1738 1571 1703 1391 1094 1030 1094 1290 1262 1311 1581 1507 1362 1456 988 698 566 443 272 132 156 575 647 520 451 434 246 18 1 66 39 34
1697 1717 1650 1262 1424 1603 1604 1315 1660 1564 1535 1392 1535 1595 1105 833 1217 1309 1282 1239 1314 1316 1042 1027 966 699 518 351 136 35 7 68 422 483 462 381 381 102 7 2 21 19 18
1631 1763 1824 1822 1631 1535 1515 1212 1504 1424 1369 1091 976 875 894 941 1045 1152 1028 983 1127 1064 1030 936 529 425 351 176 55 0 0 26 335 326 180 171 278 40 6 3 12 13 10
1537 1677 1809 1879 1894 2023 2064 1345 1170 1263 937 703 583 413 394 437 550 651 606 831 971 903 809 631 319 242 84 35 0 0 0 0 221 116 75 70 145 9 10 8 14 10 15
1367 1487 1556 1809 1882 1696 1625 1943 1175 657 586 487 474 167 179 491 371 142 308 538 650 638 609 358 222 83 11 0 0 0 0 46 54 60 50 57 67 15 11 19 8 15 17
1406 1262 1466 1666 1574 1115 1018 1375 1953 1326 1003 784 770 420 436 333 362 232 244 282 497 498 346 207 106 0 48 116 1 0 5 1 10 24 18 46 35 15 19 12 14 12 10
1054 1280 1224 1432 1704 1132 776 786 965 785 763 676 569 627 286 256 254 305 177 393 505 474 391 166 36 12 90 24 0 0 0 0 2 13 11 29 38 22 18 10 11 10 15
606 976 1113 1217 1269 1069 684 517 377 476 455 248 129 204 428 313 256 217 99 148 228 525 326 96 0 0 9 0 0 0 0 0 0 3 6 26 32 22 23 17 7 18 11
494 654 920 963 1108 731 412 214 231 108 481 226 24 52 126 377 283 201 152 177 269 161 147 0 0 0 4 0 0 0 0 0 0 3 2 20 26 32 19 12 8 11 12
423 574 691 794 741 280 233 42 95 103 152 497 59 32 35 96 148 142 136 261 92 153 47 6 2 0 0 0 0 0 0 0 0 4 20 28 16 30 40 16 14 10 6
347 442 526 571 557 301 237 46 4 22 4 20 65 22 26 29 50 113 197 103 103 125 32 1 0 0 0 0 0 0 0 0 1 3 20 22 9 17 19 24 22 7 12
72 334 408 256 295 84 123 144 4 4 3 3 3 1 4 20 17 44 102 90 104 49 33 7 0 0 0 0 0 0 0 0 2 3 19 27 34 17 11 6 18 20 12
22 189 290 388 451 12 32 51 4 6 6 7 4 2 1 5 9 18 185 78 67 32 11 0 0 0 0 0 0 0 0 1 2 8 17 14 19 13 14 8 12 8 11
17 134 293 425 405 19 23 12 9 28 6 35 19 9 3 2 3 7 91 65 3 0 0 0 0 0 0 0 0 0 2 1 2 7 7 9 17 15 15 11 8 4 1
35 95 192 281 151 7 4 3 0 1 8 10 11 5 4 2 5 18 5 1 0 1 0 0 0 0 0 1 2 9 5 3 9 7 14 16 12 9 9 11 13 8 1
4 73 63 137 14 3 2 2 20 32 15 13 17 16 17 2 2 18 3 0 0 0 0 0 0 0 0 0 1 3 3 4 9 10 15 15 11 4 2 3 3 0 0
4 0 9 30 3 4 4 5 0 18 21 26 40 26 6 2 2 4 5 0 0 0 0 0 0 0 0 1 0 0 7 12 3 6 10 5 1 0 0 0 0 0 1
1 0 0 5 2 1 1 3 0 10 15 26 23 24 3 2 2 0 0 0 0 0 0 0 0 0 0 0 0 0 0 0 0 0 0 0 0 0 0 0 0 0 7
1 2 1 10 3 0 0 2 1 17 28 17 14 19 12 4 0 0 0 0 0 0 0 0 0 0 0 0 0 0 0 0 0 0 0 0 0 1 2 4 2 1 0
3 1 4 5 1 0 6 5 8 6 6 20 17 20 1 1 1 1 0 0 0 0 0 0 0 0 0 0 2 0 0 0 5 39 33 4 24 12 0 10 3 31 17

GFSSE_con_sbcape_114.txt.gz
CAPE
646 1072 1219 1394 1584 1520 1517 1597 1700 1896 1949 1877 1879 1958 2012 2047 2076 2143 2199 2225 2171 2111 1930 1685 1701 1696 1506 1460 1632 1698 1540 1379 1278 1264 1324 1203 1014 983 943 1042 1020 804 1089
448 1217 1175 1401 1458 1507 1569 1666 1813 1953 2037 2063 2042 2061 1989 2091 2091 2115 2109 2146 2207 2231 1766 1661 1792 1693 1634 1706 1596 1476 1343 1215 1158 1184 1248 1117 1029 906 883 1051 1018 959 1089
767 1342 1448 1395 1192 1399 1606 1776 2022 2177 2243 2277 2232 2194 2138 2166 2113 1986 1959 2022 2135 2261 1941 1728 1730 1662 1647 1469 1413 1392 1286 1156 1077 1200 1236 908 1011 960 928 1052 1032 1145 1172
784 1308 1617 1252 1263 1426 1789 1978 2187 2432 2398 2341 2314 2283 1954 2123 2009 1764 2052 1987 2063 2180 2157 1883 1807 1730 1676 1518 1400 1290 1179 1079 1033 1046 955 681 734 868 835 871 1051 1064 1068
780 1054 1681 1180 1276 1579 1827 2016 2201 2447 2326 2308 2251 2101 1851 1628 1415 1228 1189 1986 2141 2305 2244 1772 1746 1751 1527 1324 1208 1114 1002 933 884 872 612 677 761 916 852 811 783 871 866
878 983 949 1024 1255 1609 1837 2033 2143 2306 2256 2142 1938 2031 1927 1540 1345 1062 1036 1787 2074 2093 1913 1635 1901 1546 1175 1008 880 766 688 707 567 575 680 796 653 726 674 575 730 706 653
1148 1319 1836 1073 1267 1634 1909 2026 2077 2051 2030 1892 1751 1664 1423 412 86 368 647 712 1591 1692 1883 1753 1494 1182 746 722 665 528 487 513 836 716 789 720 678 572 366 276 216 445 419
1816 1908 2045 1293 1284 1450 1698 1800 1851 1696 1717 1604 1562 1510 1070 185 414 500 1066 1227 1547 1588 1549 1466 1137 934 590 481 402 244 271 320 540 666 570 630 472 209 20 0 32 82 30
2168 2171 2222 2128 1791 1253 1244 1368 1622 1681 1581 1421 1277 1240 926 699 683 1097 912 1300 1406 1279 1304 1128 793 526 415 233 159 92 169 244 584 486 512 474 428 108 2 0 0 0 9
2132 2216 2247 2333 2283 2084 1794 1083 1267 1388 1360 1154 1042 744 379 246 661 867 915 1090 1178 1188 1187 848 523 341 173 78 5 0 94 193 512 487 334 321 279 16 1 0 0 6 10
1980 2130 2280 2348 2354 2231 2233 1685 1079 1150 904 722 704 495 487 1130 1304 1063 679 850 1004 963 892 484 312 175 0 0 0 0 33 552 481 367 238 117 206 11 0 3 11 16 12
1984 2126 2136 2340 2396 2161 1647 2109 2079 2217 2073 1764 1538 1148 1272 1281 936 510 216 607 751 648 530 293 152 37 118 401 248 24 529 379 422 289 73 71 91 22 12 10 20 17 11
1652 2057 2080 2287 2436 1833 1703 1792 2331 2500 2280 2113 1712 1448 1179 1070 617 179 328 625 1117 452 715 359 233 522 555 525 385 430 204 198 49 38 24 52 130 21 14 22 14 13 8
1096 1916 2106 2161 2419 2009 1715 1635 2075 1876 2072 1633 1576 1415 1221 1255 1006 475 508 436 683 512 837 765 816 591 470 337 327 219 83 40 35 24 28 25 45 47 22 20 22 14 20
746 1361 1960 2133 2281 2046 1534 1517 1517 1592 1356 1112 1134 975 980 1268 1027 457 406 239 460 743 190 494 604 375 299 214 228 105 50 24 28 24 35 12 33 55 25 25 22 12 16
450 1061 1607 1986 2105 1899 1431 1302 1242 1446 1335 873 721 1204 982 1313 761 828 754 334 425 439 282 128 55 220 174 183 169 86 57 18 12 17 32 18 17 45 41 29 28 21 14
143 660 1327 1842 1918 1761 1554 1378 1157 1208 1325 767 551 770 716 584 500 755 851 900 307 543 370 72 11 114 131 161 119 144 59 14 11 14 24 24 16 15 30 43 35 19 15
0 130 913 1260 1795 1497 1279 1329 1041 925 980 774 565 372 401 363 202 327 550 814 525 146 120 24 21 154 171 169 106 129 57 15 18 16 20 10 11 34 14 27 25 34 17
0 0 722 1373 1697 1494 1428 1018 687 687 584 311 182 399 345 268 188 242 126 668 400 175 244 56 64 185 146 156 109 68 54 33 27 13 18 26 29 27 19 9 10 10 15
0 15 588 1171 1475 1290 1032 686 724 607 390 175 178 47 166 62 98 82 40 118 187 129 194 111 139 180 150 138 56 70 54 30 40 14 21 23 32 41 34 12 8 5 1
74 133 586 978 1374 576 558 515 661 555 274 295 284 15 6 18 11 35 22 98 69 63 227 147 228 204 180 162 119 80 50 35 32 19 17 17 22 30 27 26 15 13 0
300 420 534 854 1293 356 501 805 559 159 97 30 54 59 32 9 6 8 12 49 16 65 94 55 181 204 172 192 106 73 38 51 44 33 12 15 23 12 11 18 20 16 14
400 585 605 827 1180 853 1068 510 677 494 137 281 181 139 31 12 7 6 5 1 2 7 4 2 129 167 137 181 155 34 17 26 34 29 19 14 12 7 6 12 13 7 3
318 542 501 762 854 863 1040 690 595 396 157 152 175 148 61 93 63 8 9 2 1 2 1 0 1 68 162 125 121 20 8 14 31 30 20 14 6 5 10 5 0 2 22
260 408 147 449 566 789 957 719 455 132 132 104 214 210 207 79 29 23 3 1 1 0 0 0 1 23 74 203 143 26 44 44 58 4 2 5 3 6 11 56 40 61 59
411 76 38 321 241 144 380 427 247 84 42 92 97 163 142 48 22 2 1 1 1 0 0 0 0 2 153 200 172 83 48 39 50 4 3 3 3 33 66 82 118 145 140

GFSSE_con_sbcape_117.txt.gz
CAPE
103 1060 1277 1472 1560 1533 1594 1709 1783 1954 1909 1873 1889 1894 1991 2030 2077 2161 2243 2193 2061 2118 1919 1732 1785 1613 1432 1372 1454 1696 1489 1397 1373 1466 1547 1397 1068 996 1051 980 1013 812 1170
61 995 1101 1471 1607 1526 1535 1631 1771 1963 2096 2024 1992 1968 2047 2040 2059 2237 2276 2258 2208 2213 1822 1709 1719 1705 1580 1658 1546 1480 1389 1246 1248 1322 1373 1408 1291 948 1048 1220 1080 973 1110
231 1261 1334 1353 1563 1530 1586 1688 1877 2124 2264 2165 2096 2081 1920 1670 1834 2212 2151 2182 2094 2025 1839 1679 1750 1783 1654 1571 1503 1427 1377 1277 1247 1278 1121 818 1111 1160 1060 1049 1110 1208 1113
320 1290 1589 1194 1321 1660 1738 1839 2086 2240 2337 2235 2185 2137 1849 1648 1693 1600 1672 1786 1883 2004 2155 1804 1760 1760 1658 1544 1409 1349 1266 1237 1190 1200 776 810 885 1056 1015 1156 1192 1220 1129
304 889 1900 1179 1262 1679 1861 2001 2279 2343 2239 2206 2201 2052 1472 1382 1067 316 534 797 1433 2389 2045 1878 1763 1766 1554 1314 1235 1197 1161 1098 782 656 625 729 727 966 1030 1025 1020 982 914
303 591 991 1021 1280 1626 1913 2052 2181 2251 2085 2084 2123 1958 1394 872 481 211 203 573 768 1445 2016 1922 1961 1654 1250 1096 1036 1011 943 933 675 620 639 765 696 848 868 825 974 869 749
398 1309 1768 1032 1319 1681 1937 2093 2047 2004 2001 2026 1982 1814 1082 490 321 367 509 491 205 726 1965 1935 1620 1326 1066 894 862 751 687 717 734 623 785 832 896 894 790 676 812 759 666
1071 1717 1866 1109 1321 1603 1799 1814 1861 1892 1874 1909 1761 1496 465 64 93 233 596 610 422 963 1579 1472 1180 972 830 755 671 504 426 276 666 553 655 796 706 620 449 349 354 334 212
1774 2044 2125 1825 1551 1352 1509 1490 1670 1606 1691 1615 1548 1197 450 109 249 182 292 685 560 1162 1407 1150 820 709 658 449 419 302 258 253 683 639 697 405 485 178 17 4 0 2 14
2050 2063 2196 2121 2087 2109 1889 1312 1427 1490 1382 1354 1186 869 145 89 342 316 704 827 1077 1224 1218 941 504 437 355 238 191 166 146 270 579 581 588 397 335 10 0 0 0 0 0
2055 2110 2049 2180 2319 2375 2176 1672 1149 1134 1081 1053 970 432 237 676 164 645 732 870 1016 1056 861 517 304 186 111 88 100 95 164 733 556 695 565 210 343 16 5 0 0 0 0
1860 2138 2071 2226 2380 2502 1957 2131 1768 1800 1769 1609 1807 1528 1608 1192 936 958 713 797 871 817 507 354 132 25 171 526 276 38 483 454 415 546 201 183 217 9 12 6 10 3 14
1482 1927 2092 2306 2462 2482 2341 2327 2034 1985 1870 2067 1726 1777 1728 1175 1723 1088 1255 811 1226 710 728 413 69 639 510 542 523 682 409 467 315 127 31 41 115 14 16 20 12 6 14
710 1844 2134 2137 2436 2714 2318 2125 2049 2126 1958 1958 1981 2152 1587 1482 1368 1248 432 126 710 1315 896 337 642 857 590 519 515 476 244 287 41 123 0 6 50 46 30 25 20 12 18
13 943 2085 2186 2578 2638 2378 1925 2036 2214 2167 2149 1915 2097 1644 1416 1071 881 762 736 858 1207 1151 490 722 897 680 432 383 258 113 39 25 94 9 3 31 48 22 28 19 12 20
0 553 1558 2292 2430 2807 1980 2075 2141 1976 1887 2061 1955 1894 1601 1362 1549 1019 1213 848 567 1068 665 184 308 497 594 290 315 124 49 32 10 39 10 15 18 27 33 41 27 11 9
0 134 1129 2100 2618 2797 2012 1838 1935 1694 1696 1867 1556 1887 1653 1408 1418 1212 1147 904 617 1052 197 77 63 95 471 212 142 68 59 39 9 8 5 16 19 17 33 47 43 24 15
0 66 437 1072 2497 2883 2400 2264 1817 1499 1576 1743 1307 1514 1604 1217 1135 1332 1040 1207 897 852 160 57 127 93 46 142 168 86 49 36 16 9 17 17 19 20 17 23 37 34 22
0 0 56 1483 1990 2952 2507 2023 1917 1670 1511 1523 1344 1074 1190 1085 920 990 1086 995 814 794 527 88 62 33 18 82 106 111 119 41 22 6 34 11 7 18 12 6 19 21 17
0 0 0 932 2028 2855 2438 2016 1831 1536 1103 1108 923 906 955 983 743 702 976 920 969 640 278 7 34 30 47 92 67 90 67 52 33 9 16 22 17 33 6 0 4 3 5
0 41 110 466 1699 2304 2060 1987 1269 1049 720 723 677 579 699 874 537 645 566 549 149 111 83 68 58 55 55 227 125 110 107 82 103 14 11 16 28 18 45 4 0 1 0
0 256 316 664 1310 1935 1472 1092 1212 1314 1128 1059 678 581 368 295 366 278 384 207 25 65 78 11 48 23 42 234 123 102 85 59 36 16 12 17 60 13 23 28 12 5 8
30 425 488 736 1059 1665 799 1015 1318 1126 834 478 329 399 444 146 58 20 16 61 31 19 10 18 49 13 33 109 172 64 66 36 46 31 23 18 45 27 21 16 13 11 17
4 330 637 738 975 1498 999 1246 1473 1045 670 660 558 522 343 281 95 12 4 7 10 7 29 12 39 66 69 125 167 126 128 62 18 37 30 18 24 18 34 25 12 6 4
2 406 889 916 1049 1343 1383 1382 1457 1380 940 640 464 538 369 293 173 44 8 3 5 3 2 7 0 64 59 145 158 146 156 132 99 20 24 20 8 9 8 8 13 4 0
541 869 950 901 1162 1306 1417 1559 1431 1324 916 636 502 460 506 405 405 122 44 7 0 1 1 0 1 35 57 84 175 221 174 146 103 172 90 57 8 10 7 9 73 70 133

GFSSE_con_sbcape_120.txt.gz
CAPE
257 924 1270 1508 1568 1602 1641 1688 1861 1718 1767 1833 1848 1833 1902 2019 2091 2184 2210 2085 2112 2158 2046 1738 1655 1615 1533 1530 1511 1433 1423 1396 1333 1357 1360 1327 985 916 1176 1140 904 732 1158
664 1021 1147 1479 1534 1520 1595 1654 1748 1924 1944 1969 1929 1895 1985 2052 2142 2244 2317 2224 2295 2188 1975 1763 1715 1403 1565 1591 1566 1396 1302 1213 1173 1142 1228 1324 1323 1170 1216 1104 949 1002 1144
886 1010 1047 1366 1471 1528 1585 1568 1742 1981 2165 2110 2022 1978 1987 1963 1810 1848 2260 2311 2055 2102 2021 1815 1700 1703 1612 1544 1442 1390 1336 1168 1069 1037 1115 688 893 1189 1043 1083 1192 1207 1238
1149 1078 1039 1149 1374 1551 1655 1728 1908 2151 2310 2156 2101 2092 1940 1586 1213 1114 1122 1261 1447 1915 2036 1843 1911 1755 1634 1479 1377 1321 1267 1183 1138 1051 754 683 777 1091 1081 1211 1300 1302 1227
1031 1180 1195 952 1179 1521 1688 1834 2144 2253 2220 2119 2068 2157 1712 677 207 361 64 291 329 732 2023 1762 1891 1714 1489 1237 1179 1143 1108 1060 943 711 536 680 645 1063 1105 1041 1183 1172 922
632 1919 718 864 1122 1524 1765 1977 2116 2087 1600 1938 1998 1938 1397 223 65 171 17 282 126 1 921 1508 1848 1542 1137 997 941 812 877 814 485 450 518 777 566 1042 932 1069 951 921 828
1526 1770 1082 804 1132 1547 1808 1996 1912 1920 1689 1755 1913 1729 1039 388 116 105 141 134 0 0 417 1195 1516 1284 978 831 810 666 691 587 478 434 492 578 664 1041 1026 800 910 837 734
2497 2224 1300 905 1164 1456 1643 1737 1690 1721 1497 1756 1829 1129 1052 604 397 155 219 147 5 1 295 1097 1252 1059 852 746 672 551 346 154 463 596 476 491 745 741 799 635 657 496 358
2686 2379 1602 1321 1299 1230 1280 1385 1573 1596 1475 1698 1471 781 419 529 367 551 624 235 41 331 962 1192 944 831 750 632 481 269 153 234 419 467 404 332 686 612 530 214 71 78 99
2221 2598 1909 1781 1655 1662 1387 1168 1420 1403 1390 1427 1141 416 141 0 70 352 588 632 592 692 1122 799 642 664 544 377 280 172 122 393 296 373 244 99 491 239 96 2 1 2 1
2327 2468 2246 2083 2000 2172 1953 1295 1096 1267 1091 1052 814 336 40 155 186 115 150 369 594 702 894 544 382 275 239 177 106 106 94 252 295 326 71 245 390 24 10 4 2 3 3
2359 2444 2384 2374 2296 2424 1926 1627 1502 1587 1466 1511 1461 419 707 802 299 278 569 574 531 630 515 369 204 66 163 153 86 40 224 214 226 175 5 232 265 13 13 9 8 11 12
2052 2364 2266 2465 2621 2582 1851 2045 1611 1745 1564 1504 1756 1378 1395 1209 1078 700 674 642 443 463 368 187 106 91 291 247 193 173 280 183 204 77 0 94 174 37 18 17 10 14 18
1422 2259 2275 2405 2825 2766 1986 1958 1885 1486 1779 1789 1514 1715 1545 1279 1071 881 703 542 455 499 406 279 107 129 124 155 232 315 206 237 65 0 0 0 45 23 18 20 15 11 19
864 1962 2200 2384 2650 2749 2259 1920 2074 1648 1919 1844 1796 1738 1458 1275 1048 908 500 355 297 675 500 333 149 125 120 206 301 209 231 175 26 8 0 0 5 34 26 24 16 13 12
0 1801 2318 2199 2609 2845 2308 2178 1894 2347 1861 2178 1981 1857 1559 1162 1056 694 382 442 609 605 710 406 128 148 119 207 195 179 136 41 38 8 0 0 2 24 35 36 16 9 13
0 483 2314 2392 2476 2911 2328 2128 2008 2135 1986 1902 1793 1917 1501 1247 1010 541 491 486 450 536 462 125 75 61 164 161 148 127 39 20 9 1 0 0 0 7 25 37 22 19 5
0 42 1521 2271 2344 2691 2399 1796 1706 1753 1734 1675 1244 1632 1576 1267 985 768 525 340 289 402 144 41 38 33 57 42 30 37 28 11 13 0 0 0 0 6 24 17 21 23 27
0 0 595 1424 2225 2507 2347 1932 1738 1616 1726 1574 1337 1215 1646 1308 1005 713 592 365 322 342 34 10 20 27 27 27 49 12 26 16 0 8 0 0 0 0 2 5 9 12 18
0 0 496 1254 1967 2478 2628 2219 1980 1754 1461 1572 1448 1154 1267 1243 964 742 559 323 287 238 29 0 11 9 13 15 63 26 71 21 2 2 5 0 0 0 0 0 0 0 4
0 239 247 1208 1833 2296 2364 2170 1829 1653 1304 1116 1036 939 730 970 810 690 458 299 250 197 57 7 15 10 0 0 11 24 35 30 38 0 7 0 0 0 0 0 0 0 0
2 132 370 306 1701 2010 2269 2108 1730 1573 758 578 578 527 517 727 705 508 438 257 196 175 31 1 0 2 0 4 14 21 33 32 44 12 9 11 1 0 0 0 0 0 0
55 555 342 362 769 1674 2130 1652 1083 809 798 688 764 588 437 347 520 320 367 155 83 8 2 1 0 9 4 5 1 0 17 8 10 35 6 1 18 0 13 5 0 0 0
3 518 557 453 631 1419 1660 1134 1086 915 1014 775 503 337 362 237 206 202 158 102 25 4 5 1 1 0 1 0 11 23 34 9 0 8 6 8 20 4 5 4 0 1 7
2 425 513 643 747 1559 1229 893 939 1099 944 598 558 244 230 264 158 19 32 28 27 8 4 2 1 0 0 0 2 5 41 64 0 2 0 5 14 3 1 6 0 0 0
1195 1037 1302 1073 859 1271 1139 1176 1060 1297 969 743 717 590 377 254 226 78 2 4 4 4 5 1 11 1 2 1 17 13 25 55 8 0 0 0 0 0 0 0 4 0 0

GFSSE_con_sbcape_123.txt.gz
CAPE
534 986 1157 1343 1417 1434 1530 1657 1464 1452 1622 1777 1769 1809 1881 1986 2084 2076 2057 2155 2138 2128 2056 1833 1847 1710 1428 1357 1528 1527 1192 989 919 1223 1373 1536 1423 1224 1182 1226 1063 941 1247
590 962 1155 1291 1362 1397 1453 1532 1688 1557 1786 1901 1818 1834 1925 1994 2096 2130 2166 2308 2218 2295 1734 1535 1882 1882 1589 1531 1440 1490 1367 1178 875 898 1383 1574 1474 1378 1029 1119 1041 1061 1257
707 948 1137 1175 1296 1413 1519 1570 1708 1953 2030 1914 1915 1865 1965 1748 1670 1492 1612 1498 1505 1518 1837 1482 1713 1609 1534 1523 1445 1390 1269 1042 947 996 1075 811 1051 1233 1082 1174 1141 1204 1183
518 855 1009 1085 1246 1440 1480 1582 1740 2078 2142 2077 2001 1967 1772 1421 1327 833 622 434 489 417 1377 1824 1761 1613 1520 1396 1236 1226 1135 1022 985 809 550 635 857 1300 1093 1055 1220 1289 1314
672 761 986 981 1162 1396 1479 1665 1915 2050 1967 1917 1944 2006 1426 1143 864 666 569 446 325 132 483 1370 1851 1581 1336 1183 1092 1015 1013 946 728 544 413 465 817 1141 1157 1090 1237 1200 1016
846 849 724 849 1093 1360 1572 1868 1969 1872 1540 1724 1770 1739 1011 1079 953 766 415 237 11 144 234 959 1402 1376 1044 991 886 865 760 521 333 306 526 830 755 1063 961 1079 1057 990 915
1071 653 600 814 1086 1408 1758 1914 1860 1317 1257 1521 1645 1247 951 1065 978 435 423 99 30 84 225 635 1412 1236 948 857 759 641 368 261 255 300 379 482 710 1150 1087 886 984 887 752
1071 755 661 837 1075 1286 1600 1647 1669 1270 1129 1418 1517 821 817 796 459 311 430 293 178 265 183 600 992 942 842 729 561 246 182 249 276 320 327 376 821 963 766 672 621 589 526
1315 787 657 838 1060 1155 1281 1359 1419 1136 1058 1462 1029 752 738 538 261 288 417 93 175 384 467 439 868 704 669 569 262 140 113 251 234 234 291 336 759 823 546 406 322 191 224
1376 912 695 752 845 772 771 1178 1250 1100 1132 1469 800 578 311 179 214 280 537 197 87 184 408 1066 764 511 476 177 128 82 186 172 114 150 102 302 685 611 368 215 120 6 3
1649 1131 945 997 911 843 646 875 1055 1149 1196 1175 580 150 70 5 11 401 523 396 486 432 629 807 498 403 195 118 77 11 148 109 74 4 27 323 587 291 112 33 21 6 4
1822 1534 1234 1158 1152 1201 1197 662 678 792 581 678 402 31 0 0 0 101 149 483 535 507 590 544 343 201 131 92 12 4 52 94 74 3 1 156 313 70 11 9 7 14 14
1699 1909 1500 1468 1339 1502 1383 546 702 767 720 758 382 27 4 105 31 0 52 90 239 381 286 159 112 113 133 91 22 3 35 57 16 27 50 86 279 76 16 16 17 21 20
1764 1770 1734 1718 1699 1595 992 863 843 928 746 788 696 329 462 471 1 123 283 105 145 96 88 80 68 87 133 124 62 56 44 35 0 2 6 54 151 116 18 15 21 24 19
1670 1784 1740 1823 1957 1831 1212 1159 1005 875 1014 919 898 890 904 582 325 202 181 25 109 70 51 51 47 53 55 112 106 104 47 26 0 3 0 0 10 31 18 17 16 19 22
934 1796 1694 1809 2112 1952 1406 1214 1150 849 940 1080 939 1132 842 570 452 279 73 37 64 129 52 42 26 32 48 82 115 87 29 12 0 0 0 0 0 1 18 17 12 12 18
80 1489 1634 1872 2016 2080 1653 1213 1161 1192 900 1107 1223 1049 749 493 469 283 100 98 142 116 117 61 30 53 54 90 92 92 6 11 0 0 0 0 0 3 12 27 29 32 15
0 1399 1631 1905 2043 2144 1884 1482 1188 1376 1145 1095 1110 1167 806 515 400 183 68 131 169 81 84 16 10 23 41 35 32 43 0 0 0 0 0 0 0 0 5 17 27 28 22
0 665 1620 1660 2098 2233 1795 1531 1144 1146 1034 994 744 874 889 621 421 228 65 8 70 22 6 0 0 7 19 22 14 20 0 2 1 0 0 0 0 0 0 14 12 8 10
0 0 1597 1726 1922 2278 1747 1318 1093 1008 837 920 741 724 797 792 502 325 100 5 104 41 0 0 0 0 1 18 59 65 0 0 0 0 0 0 0 0 0 0 0 0 0
0 0 1204 1666 1870 2085 1693 1425 1281 1186 945 708 899 729 607 708 511 330 199 28 90 77 0 0 0 0 0 2 17 18 5 0 0 0 0 0 0 0 0 0 0 0 0
0 0 144 1195 1831 2114 2072 1776 1564 1262 915 774 1036 889 733 714 443 256 172 59 111 77 0 0 0 0 0 0 0 2 12 1 2 0 0 0 0 0 0 0 0 0 0
0 0 110 853 1788 1959 2008 1539 777 383 461 452 532 484 434 427 350 205 87 40 44 106 13 0 0 0 0 0 0 0 0 1 1 0 0 0 0 0 0 0 0 0 0
0 0 0 205 1458 1667 1723 1582 1139 1128 745 534 522 485 374 316 386 195 48 24 1 40 43 12 0 0 0 0 0 2 0 0 0 0 0 0 2 1 0 0 0 0 0
0 21 0 0 732 1251 1593 1471 960 926 750 538 538 439 361 176 100 88 56 52 28 16 6 16 1 0 0 0 0 1 0 0 0 1 0 0 0 0 2 2 0 0 0
2 1 9 40 300 1241 1049 993 1063 923 511 413 347 197 136 120 85 12 24 28 19 0 0 0 2 0 0 0 0 3 0 0 0 0 0 0 0 0 0 0 0 0 0